[[{"header":{"parameterUnit":"m.s-1","parameterCategory":1,"la1":31.0,"la2":29.5877,"lo1":-88.7671,"lo2":-86.6584,"dy":0.0162,"dx":0.0185,"nx":115,"ny":88,"refTime":"2026-03-20T00:00:00:Z","depth":0,"parameterNumber":2,"parameterNumberName":"U-component_of_WINDS"},"data":[0.0,0.0,0.0,0.0,0.0,0.0,0.0,0.0,0.0,0.0,0.0,0.0,0.0,0.0,0.0,0.0,0.0,0.0,0.0,0.0,0.0,0.0,0.0,0.0,0.0,0.0,0.0,0.0,0.0,0.0,0.0,0.0,0.0,0.0,0.0,0.0,0.0,0.0,0.0,0.0,0.0,0.0,0.0,0.0,0.0,0.0,0.0,0.0,0.0,0.0,0.0,0.0,0.0,0.0,0.0,0.0,0.0,0.0,0.0,0.0,0.0,0.0,0.0,0.0,0.0,0.0,0.0,0.0,0.0,0.0,0.0,0.0,0.0,0.0,0.0,0.0,0.0,0.0,0.0,0.0,0.0,0.0,0.0,0.0,0.0,0.0,0.0,0.0,0.0,0.0,0.0,0.0,0.0,0.0,0.0,0.0,0.0,0.0,0.0,0.0,0.0,0.0,0.0,0.0,0.0,0.0,0.0,0.0,0.0,0.0,0.0,0.0,0.0,0.0,0.0,0.0,0.0,0.0,0.0,0.0,0.0,0.0,0.0,0.0,0.0,0.0,0.0,0.0,0.0,0.0,0.0,0.0,0.0,0.0,0.0,0.0,0.0,0.0,0.0,0.0,0.0,0.0,0.0,0.0,0.0,0.0,0.0,0.0,0.0,0.0,0.0,0.0,0.0,0.0,0.0,0.0,0.0,0.0,0.0,0.0,0.0,0.0,0.0,0.0,0.0,0.0,0.0,0.0,0.0,0.0,0.0,0.0,0.0,0.0,0.0,0.0,0.0,0.0,0.0,0.0,0.0,0.0,0.0,0.0,0.0,0.0,0.0,0.0,0.0,0.0,0.0,0.0,0.0,0.0,0.0,0.0,0.0,0.0,0.0,0.0,0.0,0.0,0.0,0.0,0.0,0.0,0.0,0.0,0.0,0.0,0.0,0.0,0.0,0.0,0.0,0.0,0.0,0.0,0.0,0.0,0.0,0.0,0.0,0.0,0.0,0.0,0.0,0.0,0.0,0.0,0.0,0.0,0.0,0.0,0.0,0.0,0.0,0.0,0.0,0.0,0.0,0.0,0.0,0.0,0.0,0.0,0.0,0.0,0.0,0.0,0.0,0.0,0.0,0.0,0.0,0.0,0.0,0.0,0.0,0.0,0.0,0.0,0.0,0.0,0.0,0.0,0.0,0.0,0.0,0.0,0.0,0.0,0.0,0.0,0.0,0.0,0.0,0.0,0.0,0.0,0.0,0.0,0.0,0.0,0.0,0.0,0.0,0.0,0.0,0.0,0.0,0.0,0.0,0.0,0.0,0.0,0.0,0.0,0.0,0.0,0.0,0.0,0.0,0.0,0.0,0.0,0.0,0.0,0.0,0.0,0.0,0.0,0.0,0.0,0.0,0.0,0.0,0.0,0.0,0.0,0.0,0.0,0.0,0.0,0.0,0.0,0.0,0.0,0.0,0.0,0.0,0.0,0.0,0.0,0.0,0.0,0.0,0.0,0.0,0.0,0.0,0.0,0.0,0.0,0.0,0.0,0.0,0.0,0.0,0.0,0.0,0.0,0.0,0.0,0.0,0.0,0.0,0.0,0.0,0.0,0.0,0.0,0.0,0.0,0.0,0.0,0.0,0.0,0.0,0.0,0.0,0.0,0.0,0.0,0.0,0.0,0.0,0.0,0.0,0.0,0.0,0.0,0.0,0.0,0.0,0.0,0.0,0.0,0.0,0.0,0.0,0.0,0.0,0.0,0.0,0.0,0.0,0.0,0.0,0.0,0.0,0.0,0.0,0.0,0.0,0.0,0.0,0.0,0.0,0.0,0.0,0.0,0.0,0.0,0.0,0.0,0.0,0.0,0.0,0.0,0.0,0.0,0.0,0.0,0.0,0.0,0.0,0.0,0.0,0.0,0.0,0.0,0.0,0.0,0.0,0.0,0.0,0.0,0.0,0.0,0.0,0.0,0.0,0.0,0.0,0.0,0.0,0.0,0.0,0.0,0.0,0.0,0.0,0.0,0.0,0.0,0.0,0.0,0.0,0.0,0.0,0.0,0.0,0.0,0.0,0.0,0.0,0.0,0.0,0.0,0.0,0.0,0.0,0.0,0.0,0.0,0.0,0.0,0.0,0.0,0.0,0.0,0.0,0.0,0.0,0.0,0.0,0.0,0.0,0.0,0.0,0.0,0.0,0.0,0.0,0.0,0.0,0.0,0.0,0.0,0.0,0.0,0.0,0.0,0.0,0.0,0.0,0.0,0.0,0.0,0.0,0.0,0.0,0.0,0.0,0.0,0.0,0.0,0.0,0.0,0.0,0.0,0.0,0.0,0.0,0.0,0.0,0.0,0.0,0.0,0.0,0.0,0.0,0.0,0.0,0.0,0.0,0.0,0.0,0.0,0.0,0.0,0.0,0.0,0.0,0.0,0.0,0.0,0.0,0.0,0.0,0.0,0.0,0.0,0.0,0.0,0.0,0.0,0.0,0.0,0.0,0.0,0.0,0.0,0.0,0.0,0.0,0.0,0.0,0.0,0.0,0.0,0.0,0.0,0.0,0.0,0.0,0.0,0.0,0.0,0.0,0.0,0.0,0.0,0.0,0.0,0.0,0.0,0.0,0.0,0.0,0.0,0.0,0.0,0.0,0.0,0.0,0.0,0.0,0.0,0.0,0.0,0.0,0.0,0.0,0.0,0.0,0.0,0.0,0.0,0.0,0.0,0.0,0.0,0.0,0.0,0.0,0.0,0.0,0.0,0.0,0.0,0.0,0.0,0.0,0.0,0.0,0.0,0.0,0.0,0.0,0.0,0.0,0.0,0.0,0.0,0.0,0.0,0.0,0.0,0.0,0.0,0.0,0.0,0.0,0.0,0.0,0.0,0.0,0.0,0.0,0.0,0.0,0.0,0.0,0.0,0.0,0.0,0.0,0.0,0.0,0.0,0.0,0.0,0.0,0.0,0.0,0.0,0.0,0.0,0.0,0.0,0.0,0.0,0.0,0.0,0.0,0.0,0.0,0.0,0.0,0.0,0.0,0.0,0.0,0.0,0.0,0.0,0.0,0.0,0.0,0.0,0.0,0.0,0.0,0.0,0.0,0.0,0.0,0.0,0.0,0.0,0.0,0.0,0.0,0.0,0.0,0.0,0.0,0.0,0.0,0.0,0.0,0.0,0.0,0.0,0.0,0.0,0.0,0.0,0.0,0.0,0.0,0.0,0.0,0.0,0.0,0.0,0.0,0.0,0.0,0.0,0.0,0.0,0.0,0.0,0.0,0.0,0.0,0.0,0.0,0.0,0.0,0.0,0.0,0.0,0.0,0.0,0.0,0.0,0.0,0.0,0.0,0.0,0.0,0.0,0.0,0.0,0.0,0.0,0.0,0.0,0.0,0.0,0.0,0.0,0.0,0.0,0.0,0.0,0.0,0.0,0.0,0.0,0.0,0.0,0.0,0.0,0.0,0.0,0.0,0.0,0.0,0.0,0.0,0.0,0.0,0.0,0.0,0.0,0.0,0.0,0.0,0.0,0.0,0.0,0.0,0.0,0.0,0.0,0.0,0.0,0.0,0.0,0.0,0.0,0.0,0.0,0.0,0.0,0.0,0.0,0.0,0.0,0.0,0.0,0.0,0.0,0.0,0.0,0.0,0.0,0.0,0.0,0.0,0.0,0.0,0.0,0.0,0.0,0.0,0.0,0.0,0.0,0.0,0.0,0.0,0.0,0.0,0.0,0.0,0.0,0.0,0.0,0.0,0.0,0.0,0.0,0.0,0.0,0.0,0.0,0.0,0.0,0.0,0.0,0.0,0.0,0.0,0.0,0.0,0.0,0.0,0.0,0.0,0.0,0.0,0.0,0.0,0.0,0.0,0.0,0.0,0.0,0.0,0.0,0.0,0.0,0.0,0.0,0.0,0.0,0.0,0.0,0.0,0.0,0.0,0.0,0.0,0.0,0.0,0.0,0.0,0.0,0.0,0.0,0.0,0.0,0.0,0.0,0.0,0.0,0.0,0.0,0.0,0.0,0.0,0.0,0.0,0.0,0.0,0.0,0.0,0.0,0.0,0.0,0.0,0.0,0.0,0.0,0.0,0.0,0.0,0.0,0.0,0.0,0.0,0.0,0.0,0.0,0.0,0.0,0.0,0.0,0.0,0.0,0.0,0.0,0.0,0.0,0.0,0.0,0.0,0.0,0.0,0.0,0.0,0.0,0.0,0.0,0.0,0.0,0.0,0.0,0.0,0.0,0.0,0.0,0.0,0.0,0.0,0.0,0.0,0.0,0.0,0.0,-4.415,0.0,0.0,0.0,0.0,0.0,0.0,0.0,0.0,0.0,0.0,0.0,0.0,0.0,0.0,0.0,0.0,0.0,0.0,0.0,0.0,0.0,0.0,0.0,0.0,0.0,0.0,0.0,0.0,0.0,0.0,0.0,0.0,0.0,0.0,0.0,0.0,0.0,0.0,0.0,0.0,0.0,0.0,0.0,0.0,0.0,0.0,0.0,0.0,0.0,0.0,0.0,0.0,0.0,0.0,0.0,0.0,0.0,0.0,0.0,0.0,0.0,0.0,0.0,0.0,0.0,0.0,0.0,0.0,0.0,0.0,0.0,0.0,0.0,0.0,0.0,0.0,0.0,0.0,0.0,0.0,0.0,0.0,0.0,0.0,0.0,0.0,0.0,0.0,0.0,0.0,0.0,0.0,0.0,0.0,0.0,0.0,0.0,0.0,0.0,0.0,0.0,0.0,0.0,0.0,0.0,0.0,0.0,0.0,0.0,0.0,-4.5678,-4.6252,-4.6139,-4.5409,-4.3971,0.0,0.0,0.0,0.0,0.0,0.0,0.0,0.0,0.0,0.0,0.0,0.0,0.0,0.0,0.0,0.0,0.0,0.0,0.0,0.0,0.0,0.0,0.0,0.0,0.0,0.0,0.0,0.0,0.0,0.0,0.0,0.0,0.0,0.0,0.0,0.0,0.0,0.0,0.0,0.0,0.0,0.0,0.0,0.0,0.0,0.0,0.0,0.0,0.0,0.0,0.0,0.0,0.0,0.0,0.0,0.0,0.0,0.0,0.0,0.0,0.0,0.0,0.0,0.0,0.0,0.0,0.0,0.0,0.0,0.0,0.0,0.0,0.0,0.0,0.0,0.0,0.0,0.0,0.0,0.0,0.0,0.0,0.0,0.0,0.0,0.0,0.0,0.0,0.0,0.0,0.0,0.0,0.0,0.0,0.0,0.0,0.0,0.0,0.0,0.0,0.0,0.0,0.0,0.0,0.0,0.0,0.0,0.0,0.0,0.0,0.0,0.0,-4.6141,-4.5315,-4.3816,0.0,0.0,0.0,0.0,0.0,0.0,0.0,0.0,0.0,0.0,0.0,0.0,0.0,0.0,0.0,0.0,0.0,0.0,0.0,0.0,0.0,0.0,0.0,0.0,0.0,0.0,0.0,0.0,0.0,0.0,0.0,0.0,0.0,0.0,0.0,0.0,0.0,0.0,0.0,0.0,0.0,0.0,0.0,0.0,0.0,0.0,0.0,0.0,0.0,0.0,0.0,0.0,0.0,0.0,0.0,0.0,0.0,0.0,0.0,0.0,0.0,0.0,0.0,0.0,0.0,0.0,0.0,0.0,0.0,0.0,0.0,0.0,0.0,0.0,0.0,0.0,0.0,0.0,0.0,0.0,0.0,0.0,0.0,0.0,0.0,0.0,0.0,0.0,0.0,0.0,0.0,0.0,0.0,0.0,0.0,0.0,0.0,0.0,0.0,0.0,0.0,0.0,0.0,0.0,0.0,0.0,0.0,0.0,0.0,0.0,-4.518,-4.7031,-4.7046,0.0,-4.3851,0.0,0.0,0.0,0.0,0.0,0.0,0.0,0.0,0.0,0.0,0.0,0.0,0.0,0.0,0.0,0.0,0.0,0.0,0.0,0.0,0.0,0.0,0.0,0.0,0.0,0.0,0.0,0.0,0.0,0.0,0.0,0.0,0.0,0.0,0.0,0.0,0.0,0.0,0.0,0.0,0.0,0.0,0.0,0.0,0.0,0.0,0.0,0.0,0.0,0.0,0.0,0.0,0.0,0.0,0.0,0.0,0.0,0.0,0.0,0.0,0.0,0.0,0.0,0.0,0.0,0.0,0.0,0.0,0.0,0.0,0.0,0.0,0.0,0.0,0.0,0.0,0.0,0.0,0.0,0.0,0.0,0.0,0.0,0.0,0.0,0.0,0.0,0.0,0.0,0.0,0.0,0.0,0.0,0.0,0.0,0.0,0.0,0.0,0.0,0.0,0.0,0.0,0.0,0.0,0.0,0.0,0.0,0.0,0.0,0.0,-4.5022,-4.6268,-4.5436,-4.4458,0.0,0.0,0.0,0.0,0.0,0.0,0.0,0.0,0.0,0.0,0.0,0.0,0.0,0.0,0.0,0.0,0.0,0.0,0.0,0.0,0.0,0.0,0.0,0.0,0.0,0.0,0.0,0.0,0.0,0.0,0.0,0.0,0.0,0.0,0.0,0.0,0.0,0.0,0.0,0.0,0.0,0.0,0.0,0.0,0.0,0.0,0.0,0.0,0.0,0.0,0.0,0.0,0.0,0.0,0.0,0.0,0.0,0.0,0.0,0.0,0.0,0.0,0.0,0.0,0.0,0.0,0.0,0.0,0.0,0.0,0.0,0.0,0.0,0.0,0.0,0.0,0.0,0.0,0.0,0.0,0.0,0.0,0.0,0.0,0.0,0.0,0.0,0.0,0.0,0.0,0.0,0.0,0.0,0.0,0.0,0.0,0.0,0.0,0.0,0.0,0.0,0.0,0.0,0.0,0.0,0.0,0.0,0.0,0.0,0.0,-4.4891,-4.5466,-4.5906,-4.4722,-4.3593,-4.2602,0.0,0.0,0.0,0.0,0.0,0.0,0.0,0.0,0.0,0.0,0.0,0.0,0.0,0.0,0.0,0.0,0.0,0.0,0.0,0.0,0.0,0.0,0.0,0.0,0.0,0.0,0.0,0.0,0.0,0.0,0.0,0.0,0.0,0.0,0.0,0.0,0.0,0.0,0.0,0.0,0.0,0.0,0.0,0.0,0.0,0.0,0.0,0.0,0.0,0.0,0.0,0.0,0.0,0.0,0.0,0.0,0.0,0.0,0.0,0.0,0.0,0.0,0.0,0.0,0.0,0.0,0.0,0.0,0.0,0.0,0.0,0.0,0.0,0.0,0.0,0.0,0.0,0.0,0.0,0.0,0.0,0.0,0.0,0.0,0.0,0.0,0.0,0.0,0.0,0.0,0.0,0.0,0.0,0.0,0.0,0.0,0.0,0.0,0.0,0.0,0.0,0.0,0.0,0.0,0.0,0.0,0.0,0.0,-4.6447,-4.6583,-4.6684,-4.6752,-4.6007,-4.4248,0.0,0.0,0.0,0.0,0.0,0.0,0.0,0.0,0.0,0.0,0.0,0.0,0.0,0.0,0.0,0.0,0.0,0.0,0.0,0.0,0.0,0.0,0.0,0.0,0.0,0.0,0.0,0.0,0.0,0.0,0.0,0.0,0.0,0.0,0.0,0.0,0.0,0.0,0.0,0.0,0.0,0.0,0.0,0.0,0.0,0.0,0.0,0.0,0.0,0.0,0.0,0.0,0.0,0.0,0.0,0.0,0.0,0.0,0.0,0.0,0.0,0.0,0.0,0.0,0.0,0.0,0.0,0.0,0.0,0.0,0.0,0.0,0.0,0.0,0.0,0.0,0.0,0.0,0.0,0.0,0.0,0.0,0.0,0.0,0.0,0.0,0.0,0.0,0.0,0.0,0.0,0.0,0.0,0.0,0.0,0.0,0.0,0.0,0.0,0.0,0.0,0.0,0.0,0.0,0.0,0.0,0.0,0.0,0.0,-4.32,-4.4147,-4.5771,-4.797,-4.4722,-4.2997,0.0,0.0,0.0,0.0,0.0,0.0,0.0,0.0,0.0,0.0,0.0,0.0,0.0,0.0,0.0,0.0,0.0,0.0,0.0,0.0,0.0,0.0,0.0,0.0,0.0,0.0,0.0,0.0,0.0,0.0,0.0,0.0,0.0,0.0,0.0,0.0,0.0,0.0,0.0,0.0,0.0,0.0,0.0,0.0,0.0,0.0,0.0,0.0,0.0,0.0,0.0,0.0,0.0,0.0,0.0,0.0,0.0,0.0,0.0,0.0,0.0,0.0,0.0,0.0,0.0,0.0,0.0,0.0,0.0,0.0,0.0,0.0,0.0,0.0,0.0,0.0,0.0,0.0,0.0,0.0,0.0,0.0,0.0,0.0,0.0,0.0,0.0,0.0,0.0,0.0,0.0,0.0,0.0,0.0,0.0,0.0,0.0,0.0,0.0,0.0,0.0,0.0,0.0,0.0,0.0,0.0,0.0,0.0,0.0,-4.2997,0.0,-4.5602,-4.7665,-4.4045,-4.2083,0.0,0.0,0.0,0.0,0.0,0.0,0.0,0.0,0.0,0.0,0.0,0.0,0.0,0.0,0.0,0.0,0.0,0.0,0.0,0.0,0.0,0.0,0.0,0.0,0.0,0.0,0.0,0.0,0.0,0.0,0.0,0.0,0.0,0.0,0.0,0.0,0.0,0.0,0.0,0.0,0.0,0.0,0.0,0.0,0.0,0.0,0.0,0.0,0.0,0.0,0.0,0.0,0.0,0.0,0.0,0.0,0.0,0.0,0.0,0.0,0.0,0.0,0.0,0.0,0.0,0.0,0.0,0.0,0.0,0.0,0.0,0.0,0.0,0.0,0.0,0.0,0.0,0.0,0.0,0.0,0.0,0.0,0.0,0.0,0.0,0.0,0.0,0.0,0.0,0.0,0.0,0.0,0.0,0.0,0.0,0.0,0.0,0.0,0.0,0.0,0.0,0.0,0.0,0.0,0.0,0.0,0.0,0.0,-4.2997,-4.6447,-4.6616,-4.638,-4.5771,-4.4153,-4.1685,0.0,0.0,0.0,0.0,0.0,0.0,0.0,0.0,0.0,0.0,0.0,0.0,0.0,0.0,0.0,0.0,0.0,0.0,0.0,0.0,0.0,0.0,0.0,0.0,0.0,0.0,0.0,0.0,0.0,0.0,0.0,0.0,0.0,0.0,0.0,0.0,0.0,0.0,0.0,0.0,0.0,0.0,0.0,0.0,0.0,0.0,0.0,0.0,0.0,0.0,0.0,0.0,0.0,0.0,0.0,0.0,0.0,0.0,0.0,0.0,0.0,0.0,0.0,0.0,0.0,0.0,0.0,0.0,0.0,0.0,0.0,0.0,0.0,0.0,0.0,0.0,0.0,0.0,0.0,0.0,0.0,0.0,0.0,0.0,0.0,0.0,0.0,0.0,0.0,0.0,0.0,0.0,0.0,0.0,0.0,0.0,0.0,0.0,0.0,0.0,0.0,0.0,0.0,0.0,0.0,0.0,0.0,0.0,0.0,-4.3673,-4.4722,-4.6109,-4.7767,-4.4012,-4.2083,0.0,0.0,0.0,0.0,0.0,0.0,0.0,0.0,0.0,0.0,0.0,0.0,0.0,0.0,0.0,0.0,0.0,0.0,0.0,0.0,0.0,0.0,0.0,0.0,0.0,0.0,0.0,0.0,0.0,0.0,0.0,0.0,0.0,0.0,0.0,0.0,0.0,0.0,0.0,0.0,0.0,0.0,0.0,0.0,0.0,0.0,0.0,0.0,0.0,0.0,0.0,0.0,0.0,0.0,0.0,0.0,0.0,0.0,0.0,0.0,0.0,0.0,0.0,0.0,0.0,0.0,0.0,0.0,0.0,0.0,0.0,0.0,0.0,0.0,0.0,0.0,0.0,0.0,0.0,0.0,0.0,0.0,0.0,0.0,0.0,0.0,0.0,0.0,0.0,0.0,0.0,0.0,0.0,0.0,0.0,0.0,0.0,0.0,0.0,0.0,0.0,0.0,0.0,0.0,0.0,0.0,0.0,0.0,0.0,-4.4857,-4.6278,-4.7665,-4.8951,-4.5026,-4.2997,-4.3234,0.0,0.0,0.0,0.0,0.0,0.0,0.0,0.0,0.0,0.0,0.0,0.0,0.0,0.0,0.0,0.0,0.0,0.0,0.0,0.0,0.0,0.0,0.0,0.0,0.0,0.0,0.0,0.0,0.0,0.0,0.0,0.0,0.0,0.0,0.0,0.0,0.0,0.0,0.0,0.0,0.0,0.0,0.0,0.0,0.0,0.0,0.0,0.0,0.0,0.0,0.0,0.0,0.0,0.0,0.0,0.0,0.0,0.0,0.0,0.0,0.0,0.0,0.0,0.0,0.0,0.0,0.0,0.0,0.0,0.0,0.0,0.0,0.0,0.0,0.0,0.0,0.0,0.0,0.0,0.0,0.0,0.0,0.0,0.0,0.0,0.0,0.0,0.0,0.0,0.0,0.0,0.0,0.0,0.0,0.0,0.0,0.0,0.0,0.0,0.0,0.0,0.0,0.0,0.0,0.0,0.0,0.0,0.0,-4.9086,-5.071,-5.0845,-4.939,-4.7056,-4.4418,0.0,0.0,0.0,0.0,0.0,0.0,0.0,0.0,0.0,0.0,0.0,0.0,0.0,0.0,0.0,0.0,0.0,0.0,0.0,0.0,0.0,0.0,0.0,0.0,0.0,0.0,0.0,0.0,0.0,0.0,0.0,0.0,0.0,0.0,0.0,0.0,0.0,0.0,0.0,0.0,0.0,0.0,0.0,0.0,0.0,0.0,0.0,0.0,0.0,0.0,0.0,0.0,0.0,0.0,0.0,0.0,0.0,0.0,0.0,0.0,0.0,0.0,0.0,0.0,0.0,0.0,0.0,0.0,0.0,0.0,0.0,0.0,0.0,0.0,0.0,0.0,0.0,0.0,0.0,0.0,0.0,0.0,0.0,0.0,0.0,0.0,0.0,0.0,0.0,0.0,0.0,0.0,0.0,0.0,0.0,0.0,0.0,0.0,0.0,0.0,0.0,0.0,0.0,0.0,0.0,0.0,0.0,0.0,0.0,-5.0608,-5.3687,-5.4634,-5.3112,-4.939,-4.6177,0.0,0.0,0.0,0.0,0.0,0.0,0.0,0.0,0.0,0.0,0.0,0.0,0.0,0.0,0.0,0.0,0.0,0.0,0.0,0.0,0.0,0.0,0.0,0.0,0.0,0.0,0.0,0.0,0.0,0.0,0.0,0.0,0.0,0.0,0.0,0.0,0.0,0.0,0.0,0.0,0.0,0.0,0.0,0.0,0.0,0.0,0.0,0.0,0.0,0.0,0.0,0.0,0.0,0.0,0.0,0.0,0.0,0.0,0.0,0.0,0.0,0.0,0.0,0.0,0.0,0.0,0.0,0.0,0.0,0.0,0.0,0.0,0.0,0.0,0.0,0.0,0.0,0.0,0.0,0.0,0.0,0.0,0.0,0.0,0.0,0.0,0.0,0.0,0.0,0.0,0.0,0.0,0.0,0.0,0.0,0.0,0.0,0.0,0.0,0.0,0.0,0.0,0.0,0.0,0.0,0.0,0.0,0.0,-4.9323,-5.2604,-5.6258,-5.7645,-5.6461,-5.2739,-4.9086,0.0,0.0,0.0,0.0,0.0,0.0,0.0,0.0,0.0,0.0,0.0,0.0,0.0,0.0,0.0,0.0,0.0,0.0,0.0,0.0,0.0,0.0,0.0,0.0,0.0,0.0,0.0,0.0,0.0,0.0,0.0,0.0,0.0,0.0,0.0,0.0,0.0,0.0,0.0,0.0,0.0,0.0,0.0,0.0,0.0,0.0,0.0,0.0,0.0,0.0,0.0,0.0,0.0,0.0,0.0,0.0,0.0,0.0,0.0,0.0,0.0,0.0,0.0,0.0,0.0,0.0,0.0,0.0,0.0,0.0,0.0,0.0,0.0,0.0,0.0,0.0,0.0,0.0,0.0,0.0,0.0,0.0,0.0,0.0,0.0,0.0,0.0,0.0,0.0,0.0,0.0,0.0,0.0,0.0,0.0,0.0,0.0,0.0,0.0,0.0,0.0,0.0,0.0,0.0,0.0,0.0,0.0,0.0,-5.098,-5.4769,-5.8287,-5.9776,-5.9066,-5.6122,-5.2063,0.0,0.0,0.0,0.0,0.0,0.0,0.0,0.0,0.0,0.0,0.0,0.0,0.0,0.0,0.0,0.0,0.0,0.0,0.0,0.0,0.0,0.0,0.0,0.0,0.0,0.0,0.0,0.0,0.0,0.0,0.0,0.0,0.0,0.0,0.0,0.0,0.0,0.0,0.0,0.0,0.0,0.0,0.0,0.0,0.0,0.0,0.0,0.0,0.0,0.0,0.0,0.0,0.0,0.0,0.0,0.0,0.0,0.0,0.0,0.0,0.0,0.0,0.0,0.0,0.0,0.0,0.0,0.0,0.0,0.0,0.0,0.0,0.0,0.0,0.0,0.0,0.0,0.0,0.0,0.0,0.0,0.0,0.0,0.0,0.0,0.0,0.0,0.0,0.0,0.0,0.0,0.0,0.0,0.0,0.0,0.0,0.0,0.0,0.0,0.0,0.0,0.0,0.0,0.0,0.0,0.0,0.0,0.0,-5.1961,-5.6224,-5.8795,-6.0013,-5.9844,-5.5886,-5.1555,0.0,0.0,0.0,0.0,0.0,0.0,0.0,0.0,0.0,0.0,0.0,0.0,0.0,0.0,0.0,0.0,0.0,0.0,0.0,0.0,0.0,0.0,0.0,0.0,0.0,0.0,0.0,0.0,0.0,0.0,0.0,0.0,0.0,0.0,0.0,0.0,0.0,0.0,0.0,0.0,0.0,0.0,0.0,0.0,0.0,0.0,0.0,0.0,-3.4801,0.0,0.0,0.0,0.0,0.0,0.0,0.0,0.0,0.0,0.0,0.0,0.0,0.0,0.0,0.0,0.0,0.0,0.0,0.0,0.0,0.0,0.0,0.0,0.0,0.0,0.0,0.0,0.0,0.0,0.0,0.0,0.0,0.0,0.0,0.0,0.0,0.0,0.0,0.0,0.0,0.0,0.0,0.0,0.0,0.0,0.0,0.0,0.0,0.0,0.0,0.0,0.0,0.0,0.0,0.0,0.0,0.0,0.0,0.0,-5.2807,-5.7171,-5.8795,-5.9742,-5.9945,-5.6423,-5.2302,0.0,0.0,0.0,0.0,0.0,0.0,0.0,0.0,0.0,0.0,0.0,0.0,0.0,0.0,0.0,0.0,0.0,0.0,0.0,0.0,0.0,0.0,0.0,0.0,0.0,0.0,0.0,0.0,0.0,0.0,0.0,0.0,0.0,0.0,0.0,0.0,0.0,0.0,0.0,0.0,0.0,0.0,0.0,0.0,0.0,0.0,0.0,0.0,0.0,0.0,0.0,0.0,0.0,0.0,0.0,0.0,0.0,0.0,0.0,0.0,0.0,0.0,0.0,0.0,0.0,0.0,0.0,0.0,0.0,0.0,0.0,0.0,0.0,0.0,0.0,0.0,0.0,0.0,0.0,0.0,0.0,0.0,0.0,0.0,0.0,0.0,0.0,0.0,0.0,0.0,0.0,0.0,0.0,0.0,0.0,0.0,0.0,0.0,0.0,0.0,0.0,0.0,0.0,0.0,0.0,0.0,0.0,-4.8987,-5.3213,-5.7848,-5.8693,-5.9265,-5.984,-5.699,-5.328,-4.8873,0.0,0.0,0.0,0.0,0.0,0.0,0.0,0.0,0.0,0.0,0.0,0.0,0.0,0.0,0.0,0.0,0.0,0.0,0.0,0.0,0.0,0.0,0.0,0.0,0.0,0.0,0.0,0.0,0.0,0.0,0.0,0.0,0.0,0.0,0.0,0.0,0.0,0.0,-3.3029,-3.4852,0.0,0.0,0.0,0.0,0.0,0.0,0.0,0.0,-3.5609,0.0,0.0,0.0,0.0,0.0,0.0,0.0,0.0,0.0,0.0,0.0,0.0,0.0,0.0,0.0,0.0,0.0,0.0,0.0,0.0,0.0,0.0,0.0,0.0,0.0,0.0,0.0,0.0,0.0,0.0,0.0,0.0,0.0,0.0,0.0,0.0,0.0,0.0,0.0,0.0,0.0,0.0,0.0,0.0,0.0,0.0,0.0,0.0,0.0,0.0,0.0,0.0,0.0,0.0,0.0,0.0,-4.8928,-4.926,-5.2435,-5.8626,-5.893,-5.8991,-5.8871,-5.6612,-5.321,-4.8588,0.0,0.0,0.0,0.0,0.0,0.0,0.0,0.0,0.0,0.0,0.0,0.0,0.0,0.0,0.0,0.0,0.0,0.0,0.0,0.0,0.0,0.0,0.0,0.0,0.0,0.0,0.0,0.0,0.0,0.0,0.0,0.0,0.0,0.0,0.0,0.0,0.0,0.0,0.0,-3.7966,-3.8692,0.0,0.0,0.0,0.0,0.0,0.0,0.0,0.0,-3.5669,0.0,0.0,0.0,0.0,0.0,0.0,0.0,0.0,0.0,0.0,0.0,0.0,0.0,0.0,0.0,0.0,0.0,0.0,0.0,0.0,0.0,0.0,0.0,0.0,0.0,0.0,0.0,0.0,0.0,0.0,0.0,0.0,0.0,0.0,0.0,0.0,0.0,0.0,0.0,0.0,0.0,0.0,0.0,0.0,0.0,0.0,0.0,0.0,0.0,0.0,0.0,0.0,0.0,0.0,0.0,-4.7835,-5.0354,-5.3884,-5.8459,-5.8328,-5.8291,-5.8446,-5.485,-5.1396,0.0,0.0,0.0,0.0,0.0,0.0,0.0,0.0,0.0,0.0,0.0,0.0,0.0,0.0,0.0,0.0,0.0,0.0,0.0,0.0,0.0,0.0,0.0,0.0,0.0,0.0,0.0,0.0,0.0,0.0,0.0,0.0,0.0,0.0,0.0,0.0,0.0,0.0,0.0,0.0,-3.8775,-3.9742,-4.1083,0.0,0.0,0.0,0.0,0.0,0.0,-3.7105,-3.6806,0.0,0.0,0.0,0.0,0.0,0.0,0.0,0.0,0.0,0.0,0.0,0.0,0.0,0.0,0.0,0.0,0.0,0.0,0.0,0.0,0.0,0.0,0.0,0.0,0.0,0.0,0.0,0.0,0.0,0.0,0.0,0.0,0.0,0.0,0.0,0.0,0.0,0.0,0.0,0.0,0.0,0.0,0.0,0.0,0.0,0.0,0.0,0.0,0.0,0.0,0.0,0.0,0.0,0.0,0.0,-4.6109,-5.0827,-5.4809,-5.7792,-5.7356,-5.7356,-5.7783,-5.323,-4.9793,0.0,0.0,0.0,0.0,0.0,0.0,0.0,0.0,0.0,0.0,0.0,0.0,0.0,0.0,0.0,0.0,0.0,0.0,0.0,0.0,0.0,0.0,0.0,0.0,0.0,0.0,0.0,0.0,0.0,0.0,0.0,0.0,0.0,0.0,0.0,0.0,0.0,0.0,0.0,0.0,0.0,-4.0829,-4.2307,-4.0901,0.0,0.0,0.0,0.0,-3.8212,-3.908,0.0,0.0,0.0,0.0,0.0,0.0,0.0,0.0,0.0,0.0,0.0,0.0,0.0,0.0,0.0,0.0,0.0,0.0,0.0,0.0,0.0,0.0,0.0,0.0,0.0,0.0,0.0,0.0,0.0,0.0,0.0,0.0,0.0,0.0,0.0,0.0,0.0,0.0,0.0,0.0,0.0,0.0,0.0,0.0,0.0,0.0,0.0,0.0,0.0,0.0,0.0,0.0,0.0,0.0,0.0,0.0,-4.5087,-4.9055,-5.2802,-5.6251,-5.6385,-5.6311,-5.6158,-5.3126,-4.9759,0.0,0.0,0.0,0.0,0.0,0.0,0.0,0.0,0.0,0.0,0.0,0.0,0.0,0.0,0.0,0.0,0.0,0.0,0.0,0.0,0.0,0.0,0.0,0.0,0.0,0.0,0.0,0.0,0.0,0.0,0.0,0.0,0.0,0.0,0.0,0.0,0.0,0.0,0.0,0.0,0.0,-4.2585,-4.1181,-4.0871,-4.03,0.0,0.0,-4.0905,-4.0905,-4.294,0.0,0.0,0.0,0.0,0.0,0.0,0.0,0.0,0.0,0.0,0.0,0.0,0.0,0.0,0.0,0.0,0.0,0.0,0.0,0.0,0.0,0.0,0.0,0.0,0.0,0.0,0.0,0.0,0.0,0.0,0.0,0.0,0.0,0.0,0.0,0.0,0.0,0.0,0.0,0.0,0.0,0.0,0.0,0.0,0.0,0.0,0.0,0.0,0.0,0.0,0.0,0.0,0.0,0.0,0.0,-4.1687,-4.4873,-4.9726,-5.3221,-5.5148,-5.5203,-5.4739,-5.3841,-4.9805,-4.6343,0.0,0.0,0.0,0.0,0.0,0.0,0.0,0.0,0.0,0.0,0.0,0.0,0.0,0.0,0.0,0.0,0.0,0.0,0.0,0.0,0.0,0.0,0.0,0.0,0.0,0.0,0.0,0.0,0.0,0.0,0.0,0.0,0.0,0.0,0.0,0.0,0.0,0.0,0.0,0.0,0.0,0.0,-4.2136,-4.1955,0.0,0.0,0.0,-4.2634,-4.1352,0.0,0.0,0.0,0.0,0.0,0.0,0.0,0.0,0.0,0.0,0.0,0.0,0.0,0.0,0.0,0.0,0.0,0.0,0.0,0.0,0.0,0.0,0.0,0.0,0.0,0.0,0.0,0.0,0.0,0.0,0.0,0.0,0.0,0.0,0.0,0.0,0.0,0.0,0.0,0.0,0.0,0.0,0.0,0.0,0.0,0.0,0.0,0.0,0.0,0.0,0.0,0.0,0.0,0.0,0.0,0.0,0.0,-4.4181,-4.967,-5.2875,-5.3563,-5.3545,-5.2946,-5.1688,-4.7548,0.0,0.0,0.0,0.0,0.0,0.0,0.0,0.0,0.0,0.0,0.0,0.0,0.0,0.0,0.0,0.0,0.0,0.0,0.0,0.0,0.0,0.0,0.0,0.0,0.0,0.0,0.0,-2.6994,0.0,0.0,0.0,0.0,0.0,0.0,0.0,0.0,0.0,0.0,0.0,0.0,0.0,0.0,-4.0492,-4.19,-4.2201,-4.2181,0.0,0.0,-4.3516,-4.2019,-4.4268,-4.4246,0.0,0.0,0.0,0.0,0.0,0.0,0.0,0.0,0.0,0.0,0.0,0.0,0.0,0.0,0.0,0.0,0.0,0.0,0.0,0.0,0.0,0.0,0.0,0.0,0.0,0.0,0.0,0.0,0.0,0.0,0.0,0.0,0.0,0.0,0.0,0.0,0.0,0.0,0.0,0.0,0.0,0.0,0.0,0.0,0.0,0.0,0.0,0.0,0.0,0.0,0.0,0.0,0.0,0.0,0.0,-4.2621,-4.7568,-5.0454,-5.1112,-5.1135,-5.0818,-5.0058,-4.839,-4.5001,0.0,0.0,0.0,0.0,0.0,0.0,0.0,0.0,0.0,0.0,0.0,0.0,0.0,0.0,0.0,0.0,0.0,0.0,0.0,0.0,0.0,0.0,0.0,0.0,0.0,0.0,0.0,0.0,0.0,0.0,0.0,0.0,0.0,0.0,0.0,0.0,0.0,0.0,0.0,0.0,0.0,-3.9376,-3.8557,-4.0776,-4.2594,0.0,0.0,-4.3459,-4.3724,-4.6574,-4.6248,-3.8971,0.0,0.0,0.0,0.0,0.0,0.0,0.0,0.0,0.0,0.0,0.0,0.0,0.0,0.0,0.0,0.0,0.0,0.0,0.0,0.0,0.0,0.0,0.0,0.0,0.0,0.0,0.0,0.0,0.0,0.0,0.0,0.0,0.0,0.0,0.0,0.0,0.0,0.0,0.0,0.0,0.0,0.0,0.0,0.0,0.0,0.0,0.0,0.0,0.0,0.0,0.0,0.0,0.0,-3.9518,-4.2429,-4.6912,-4.956,-5.0184,-5.0141,-4.9396,-4.7901,-4.5988,-4.2683,0.0,0.0,0.0,0.0,0.0,0.0,0.0,0.0,0.0,0.0,0.0,0.0,0.0,0.0,0.0,0.0,0.0,0.0,0.0,0.0,0.0,0.0,0.0,0.0,0.0,0.0,0.0,0.0,-2.8829,-2.9058,-2.8884,0.0,0.0,0.0,0.0,0.0,0.0,0.0,0.0,0.0,0.0,-3.8376,-4.0082,-4.1143,0.0,0.0,-4.3003,-4.3365,-4.3345,-4.4367,-4.3445,-3.8209,-3.6497,0.0,0.0,0.0,0.0,0.0,0.0,0.0,0.0,0.0,0.0,0.0,0.0,0.0,0.0,0.0,0.0,0.0,0.0,0.0,0.0,0.0,0.0,0.0,0.0,0.0,0.0,0.0,0.0,0.0,0.0,0.0,0.0,0.0,0.0,0.0,0.0,0.0,0.0,0.0,0.0,0.0,0.0,0.0,0.0,0.0,0.0,0.0,0.0,0.0,0.0,0.0,0.0,-3.837,-4.1754,-4.5551,-4.7955,-4.9044,-4.8778,-4.7873,-4.6244,-4.4338,-4.1227,0.0,0.0,0.0,0.0,0.0,0.0,0.0,0.0,0.0,0.0,0.0,0.0,0.0,0.0,0.0,0.0,0.0,0.0,0.0,0.0,0.0,0.0,0.0,0.0,0.0,0.0,0.0,0.0,-2.8586,-2.8768,-2.8283,0.0,0.0,0.0,0.0,0.0,0.0,0.0,0.0,0.0,0.0,-3.7526,-4.0236,-4.0605,-4.0897,-4.1437,-4.1696,-4.1887,-4.1928,-4.1904,-4.0618,-3.696,0.0,0.0,0.0,0.0,0.0,0.0,0.0,0.0,0.0,0.0,0.0,0.0,0.0,0.0,0.0,0.0,0.0,0.0,0.0,0.0,0.0,0.0,0.0,0.0,0.0,0.0,0.0,0.0,0.0,0.0,-3.6396,0.0,0.0,0.0,0.0,0.0,0.0,0.0,0.0,0.0,0.0,0.0,0.0,0.0,0.0,0.0,0.0,0.0,0.0,0.0,0.0,0.0,0.0,-3.6933,-4.0339,-4.3067,-4.5387,-4.7246,-4.6723,-4.6065,-4.5316,-4.4018,-4.1406,-3.7464,0.0,0.0,0.0,0.0,0.0,0.0,0.0,0.0,0.0,0.0,0.0,0.0,0.0,0.0,0.0,0.0,0.0,0.0,0.0,0.0,0.0,0.0,0.0,0.0,0.0,0.0,-2.5323,-2.5187,-2.5269,0.0,0.0,0.0,0.0,0.0,0.0,0.0,0.0,0.0,0.0,-3.4293,-3.6832,-3.7988,-3.8767,-3.95,-4.0083,-3.9084,-3.856,-3.9691,-3.9743,-3.8611,0.0,0.0,0.0,0.0,0.0,0.0,0.0,0.0,0.0,0.0,0.0,0.0,0.0,0.0,0.0,0.0,0.0,0.0,0.0,0.0,0.0,0.0,0.0,0.0,0.0,0.0,0.0,-4.1876,-4.0806,0.0,0.0,0.0,0.0,0.0,0.0,0.0,0.0,0.0,0.0,0.0,-3.9565,-4.0926,0.0,0.0,0.0,0.0,0.0,0.0,0.0,0.0,0.0,0.0,0.0,0.0,-3.6366,-3.9593,-4.2289,-4.4407,-4.5903,-4.5753,-4.5334,-4.4676,-4.3768,-4.1047,-3.6297,0.0,0.0,0.0,0.0,0.0,0.0,0.0,0.0,0.0,0.0,0.0,0.0,0.0,0.0,0.0,0.0,0.0,0.0,0.0,0.0,0.0,0.0,0.0,0.0,0.0,-2.6468,0.0,0.0,0.0,0.0,0.0,0.0,0.0,0.0,0.0,0.0,0.0,-2.9479,-3.1612,-3.4198,-3.631,-3.7789,-3.8592,-3.9348,0.0,0.0,0.0,0.0,0.0,0.0,0.0,0.0,0.0,0.0,0.0,0.0,0.0,0.0,-3.4248,-3.0192,-2.9176,-2.9001,-2.9202,0.0,0.0,0.0,0.0,0.0,0.0,0.0,0.0,0.0,0.0,0.0,0.0,0.0,0.0,-4.4108,0.0,-4.1887,0.0,0.0,0.0,0.0,0.0,0.0,0.0,0.0,-4.2269,-4.2859,-4.1666,-4.3292,-4.2783,0.0,-3.9504,-3.705,0.0,0.0,0.0,0.0,0.0,0.0,0.0,0.0,-3.6107,-3.9282,-4.1723,-4.3748,-4.5214,-4.5065,-4.4766,-4.4317,-4.2961,-4.0449,-3.6626,-3.3963,-3.172,0.0,0.0,0.0,0.0,0.0,0.0,0.0,0.0,0.0,0.0,0.0,0.0,0.0,0.0,0.0,0.0,0.0,0.0,0.0,0.0,0.0,0.0,0.0,-2.5684,0.0,0.0,0.0,0.0,0.0,0.0,0.0,0.0,0.0,-2.6465,-2.8574,-3.0768,-3.2817,-3.4826,-3.6461,-3.7563,0.0,0.0,0.0,0.0,0.0,0.0,0.0,-3.5629,-3.5759,-3.4906,-3.4274,-3.4449,-3.5529,-3.6132,-3.5332,0.0,0.0,-3.2516,-3.1637,-3.1512,-3.1512,-3.2064,-3.2416,-3.2114,-3.2742,-3.3319,0.0,0.0,0.0,0.0,0.0,0.0,0.0,0.0,-4.6046,-4.5486,0.0,-4.3652,0.0,0.0,0.0,0.0,0.0,-4.1042,0.0,0.0,-4.5866,-4.6466,-4.455,-4.5202,-4.4478,-4.2599,-4.244,-4.0733,-3.7464,-3.4352,0.0,0.0,0.0,0.0,0.0,0.0,-3.6148,-3.9349,-4.1422,-4.3339,-4.5125,-4.4616,-4.4257,-4.4167,-4.1773,-3.9798,-3.8392,-3.5941,-3.3933,-3.2557,-3.0073,0.0,0.0,0.0,0.0,0.0,0.0,0.0,0.0,0.0,0.0,0.0,0.0,0.0,0.0,0.0,0.0,0.0,0.0,0.0,0.0,-2.4326,0.0,0.0,0.0,0.0,0.0,0.0,0.0,0.0,0.0,0.0,-2.8273,-3.0532,-3.28,-3.4449,0.0,0.0,0.0,0.0,-3.7186,-3.7262,-3.6807,-3.6656,-3.7211,-3.7186,-3.6985,-3.6533,0.0,0.0,-3.5884,-3.6107,-3.6254,-3.5127,-3.6332,-3.7262,-3.7161,-3.5755,-3.4801,-3.4751,-3.4073,-3.3696,-3.4575,-3.5228,-3.578,-5.4262,0.0,0.0,0.0,0.0,-4.939,-5.0574,-5.274,-5.1395,-5.0153,-4.8974,-4.7291,0.0,0.0,0.0,0.0,0.0,0.0,-4.2385,-4.3753,-4.531,-4.5905,-4.5785,-4.6448,-4.6202,-4.5185,-4.4227,-4.2791,-4.0943,-3.905,-3.5818,-3.1301,0.0,0.0,0.0,0.0,-3.7075,-3.9343,-4.1384,-4.2851,-4.3868,-4.3678,-4.3389,-4.295,-4.1294,-3.9978,-3.9104,-3.7464,-3.5759,-3.3993,-3.1869,0.0,0.0,0.0,0.0,0.0,0.0,0.0,0.0,0.0,0.0,0.0,0.0,0.0,0.0,0.0,0.0,0.0,0.0,0.0,-2.4286,-2.4141,-2.3828,0.0,0.0,0.0,0.0,0.0,0.0,0.0,0.0,0.0,-3.0959,-3.2064,-3.3144,0.0,0.0,-3.5834,-3.5479,-3.6081,-3.6885,-3.7663,0.0,0.0,0.0,-3.7436,-3.681,-3.7437,-3.8165,-3.8467,-3.799,-3.8366,-3.8642,-3.8291,-3.8668,-3.8843,-3.8417,-3.7688,-3.7086,-3.7061,-3.7111,-3.7136,-3.7111,-3.7513,-3.7839,-5.8287,-5.389,-5.1995,-5.1725,-5.2536,-5.2401,-5.3619,-5.5614,-5.4423,-5.3243,-5.2068,-5.0153,-4.744,-4.4156,-4.2011,0.0,0.0,0.0,-4.3402,-4.5101,-4.5496,-4.6079,-4.6711,-4.71,-4.698,-4.6249,-4.5214,-4.4018,-4.2731,-4.1683,-3.899,-3.4739,0.0,0.0,-3.4173,-3.6178,-3.8093,-3.9798,-4.1542,-4.259,-4.294,-4.2701,-4.2372,-4.2021,-4.0965,-4.0217,-3.9798,-3.8512,-3.7255,-3.6091,-3.3811,-3.1484,0.0,0.0,0.0,0.0,0.0,0.0,0.0,0.0,0.0,0.0,0.0,-2.3385,-2.2438,0.0,0.0,0.0,-2.3439,-2.4356,-2.4658,-2.4887,0.0,0.0,0.0,0.0,0.0,0.0,0.0,-2.8236,-2.9905,-3.1411,-3.2692,-3.337,-3.3922,-3.4474,-3.5328,-3.5755,-3.5429,0.0,-3.6732,-3.7563,-3.7387,-3.7563,-3.8718,-3.7888,-3.7236,-3.7889,-3.8266,-3.8517,-3.8542,-3.8818,-3.9019,-3.9019,-3.9019,-3.8919,-3.8592,-3.8241,-3.7914,-3.7739,-3.7965,-3.8115,-3.8015,-3.8467,-3.8818,-6.1637,-5.9911,-5.6528,-5.5108,-5.5108,-5.5716,-5.5952,-5.5952,-5.56,-5.4917,-5.3933,-5.2056,-4.9548,-4.6547,-4.3797,0.0,-4.448,-4.4442,-4.5162,-4.6411,-4.6369,-4.6711,-4.7279,-4.7249,-4.692,-4.6322,-4.5574,-4.4586,-4.3379,-4.2761,-4.1474,-3.9553,-3.8332,-3.7375,-3.6746,-3.7913,-3.92,-4.0457,-4.1752,-4.2381,-4.2381,-4.1722,-4.1265,-4.1235,-4.0576,-4.0217,-4.0127,-3.896,-3.8302,-3.8153,-3.5684,-3.3386,-3.1397,0.0,0.0,0.0,0.0,0.0,0.0,0.0,0.0,0.0,0.0,0.0,0.0,0.0,0.0,0.0,-2.4347,0.0,-2.5552,-2.6147,0.0,0.0,0.0,-2.6399,-2.5963,-2.7344,-2.8524,-2.9013,0.0,0.0,-3.3746,0.0,-3.4906,-3.5483,-3.6031,-3.6405,-3.6355,-3.6355,-3.6606,-3.7136,-3.7186,-3.7563,-3.8542,-3.8266,-3.7914,-3.799,-3.799,-3.804,-3.804,-3.804,-3.8015,-3.8065,-3.8015,-3.8015,-3.8015,-3.799,-3.7789,-3.7287,-3.7262,-3.7437,-3.7914,-3.8417,-3.8868,-6.2888,-6.096,-6.008,-5.937,-5.8761,-5.8389,-5.822,-5.8042,-5.6469,-5.5386,-5.4547,-5.2016,-4.9292,-4.6524,-4.5796,-4.562,-4.5812,-4.5812,-4.6239,-4.704,-4.707,-4.716,-4.7279,-4.68,-4.6471,-4.6219,-4.5125,-4.4377,-4.4007,-4.3419,-4.2372,-4.0965,-4.0576,-3.9589,-3.8063,-3.926,-4.0337,-4.1145,-4.1991,-4.2381,-4.2381,-4.1235,-4.0397,-3.9888,-3.923,-3.8631,-3.8153,-3.7823,-3.7336,-3.6756,-3.5618,-3.3972,-3.1778,-2.8724,0.0,0.0,0.0,0.0,0.0,0.0,0.0,0.0,0.0,-2.471,-2.1755,0.0,-2.4174,0.0,-2.388,-2.5012,-2.5569,-2.6147,0.0,0.0,-2.7268,-2.7544,-2.8674,-2.9528,-3.0231,-3.0733,-3.1913,-3.3144,-3.4374,-3.465,-3.5102,-3.6031,-3.6282,-3.6207,-3.583,-3.6107,-3.6606,-3.7061,-3.7161,-3.7437,-3.8015,-3.8115,-3.799,-3.799,-3.799,-3.799,-3.799,-3.799,-3.799,-3.799,-3.799,-3.799,-3.7965,-3.7688,-3.7362,-3.7236,-3.7513,-3.7839,-3.799,-3.8115,-3.8241,-6.3497,-6.1806,-6.1772,-6.1535,-6.0994,-5.9607,-5.8998,-5.8819,-5.6801,-5.5496,-5.4698,-5.1611,-4.9151,-4.7308,-4.7004,-4.6815,-4.6741,-4.6741,-4.695,-4.7279,-4.7309,-4.713,-4.6817,-4.6459,-4.595,-4.5394,-4.4676,-4.4167,-4.3828,-4.3469,-4.2931,-4.2252,-4.1953,-4.1153,-3.9798,-4.0157,-4.0576,-4.0935,-4.1324,-4.1542,-4.1512,-4.0487,-3.9649,-3.899,-3.8601,-3.7943,-3.7045,-3.6918,-3.6552,-3.5892,-3.5041,-3.3755,-3.2013,-2.9549,-2.7426,0.0,0.0,0.0,0.0,0.0,0.0,0.0,0.0,0.0,0.0,0.0,-2.4537,0.0,-2.4944,0.0,-2.664,-2.7218,-2.7921,-2.8775,-2.88,-2.9227,-3.0382,-3.0984,-3.1436,-3.1738,-3.2541,-3.3495,-3.4575,-3.468,-3.5127,-3.6254,-3.6405,-3.6304,-3.6006,-3.6182,-3.6531,-3.6759,-3.6857,-3.6958,-3.7236,-3.7487,-3.7563,-3.7337,-3.7262,-3.7287,-3.7287,-3.7287,-3.7262,-3.7262,-3.7287,-3.7287,-3.7262,-3.7036,-3.6857,-3.686,-3.6964,-3.7265,-3.7588,-3.7638,-3.7688,-6.3734,-6.2415,-6.2415,-6.2415,-6.2245,-6.0144,-5.9197,-5.8991,-5.6834,-5.5338,-5.4266,-5.1017,-4.9131,-4.8237,-4.7698,-4.7399,-4.7309,-4.7309,-4.7309,-4.7309,-4.7309,-4.695,-4.6279,-4.619,-4.5514,-4.4347,-4.4227,-4.3898,-4.3319,-4.324,-4.314,-4.3021,-4.2432,-4.1811,-4.1183,-4.0576,-4.0307,-4.0397,-4.0307,-4.0277,-4.0247,-3.9523,-3.8841,-3.8182,-3.8063,-3.7464,-3.6297,-3.5952,-3.5621,-3.5183,-3.4139,-3.3152,-3.2192,-3.0513,-2.8855,0.0,-2.6242,0.0,0.0,0.0,0.0,0.0,0.0,0.0,0.0,-2.4864,-2.5458,-2.6439,-2.6773,-2.7304,-2.8247,-2.8838,-2.9478,-3.0055,-3.0532,-3.1035,-3.1537,-3.2039,-3.2315,-3.2315,-3.2767,-3.347,-3.4424,-3.4675,-3.5127,-3.6078,-3.6355,-3.6405,-3.6405,-3.6405,-3.643,-3.6405,-3.6405,-3.6505,-3.6531,-3.6857,-3.6935,-3.6556,-3.6505,-3.6405,-3.648,-3.6455,-3.6455,-3.6455,-3.6505,-3.6455,-3.6405,-3.6383,-3.6383,-3.636,-3.6221,-3.6274,-3.6816,-3.6989,-3.7139,-6.3734,-6.2415,-6.2415,-6.2415,-6.2279,-6.1071,-6.03,-5.9734,-5.7066,-5.4534,-5.2168,-5.0725,-4.9389,-4.8297,-4.8147,-4.7818,-4.7309,-4.7309,-4.7309,-4.7309,-4.7309,-4.695,-4.6249,-4.5753,-4.5095,-4.4317,-4.3738,-4.3409,-4.329,-4.2821,-4.2282,-4.1743,-4.1085,-4.0457,-3.9828,0.0,0.0,0.0,-3.9888,-3.9582,-3.9559,-3.8422,-3.7494,-3.6866,-3.6327,0.0,-3.4923,-3.4195,-3.3741,-3.3467,-3.3157,0.0,0.0,0.0,0.0,0.0,0.0,0.0,0.0,0.0,0.0,0.0,-2.6193,-2.5439,-2.474,-2.595,-2.6914,-2.7142,-2.8371,-2.9252,-2.9453,-3.0357,-3.1135,-3.1687,-3.1838,-3.2139,-3.2667,-3.2842,-3.2918,-3.2918,-3.3036,-3.3319,-3.3972,-3.4424,-3.4977,-3.5583,-3.6081,-3.6405,-3.6405,-3.6405,-3.6405,-3.6405,-3.6405,-3.6405,-3.6405,-3.6531,-3.6581,-3.643,-3.6405,-3.6405,-3.6405,-3.6405,-3.6405,-3.6405,-3.6405,-3.6405,-3.6358,-3.6216,-3.6098,-3.6051,-3.586,-3.5789,-3.6152,-3.6056,-3.5937,-6.3734,0.0,-6.2415,-6.211,0.0,-6.0786,-5.9738,-5.8467,-5.6498,-5.404,-5.1395,-5.0545,-4.9673,-4.8775,-4.8446,-4.7938,-4.7309,-4.7309,-4.7309,-4.7309,-4.7309,-4.677,-4.5813,-4.5454,-4.4766,-4.3798,-4.3469,-4.314,-4.2851,-4.256,-4.2081,-4.1384,-4.0726,-4.0247,-3.9918,-3.9553,-3.9589,-3.9918,-3.9589,-3.9403,-3.9409,-3.8751,-3.7943,-3.6985,0.0,0.0,0.0,0.0,0.0,0.0,0.0,0.0,0.0,0.0,0.0,-3.0074,-2.9464,-2.8971,-2.8652,-2.8857,-2.8827,-2.8373,-2.8178,-2.7452,-2.6052,-2.7006,-2.7921,-2.8473,-2.9302,-3.0005,-3.0532,-3.1085,-3.1612,-3.2139,-3.2215,-3.2441,-3.2968,-3.3136,-3.3136,-3.3136,-3.3136,-3.3294,-3.3822,-3.4374,-3.4881,-3.5433,-3.6006,-3.6405,-3.6405,-3.6405,-3.6405,-3.6405,-3.6405,-3.6405,-3.6405,-3.6405,-3.6405,-3.6405,-3.6405,-3.6405,-3.6405,-3.6405,-3.6358,-3.6241,-3.6193,-3.6193,-3.6051,-3.5908,-3.5812,-3.5764,-3.5572,-3.5428,-3.5572,-3.562,-3.562,-6.3632,-6.2415,-6.2415,-6.187,-6.0953,-6.0275,-5.8694,-5.6582,0.0,0.0,0.0,-5.0677,-5.0062,-4.9404,-4.8745,-4.8117,-4.7489,-4.7369,-4.7309,-4.7309,-4.7309,-4.6591,-4.5304,-4.5274,-4.4616,-4.3349,-4.329,-4.3,-4.241,-4.2291,-4.1901,-4.1205,-4.0546,-4.0217,-4.0187,-3.9709,-3.9403,-3.9373,-3.932,-3.923,-3.9194,-3.9104,-3.8542,-3.7434,-3.7161,-3.5959,-3.3745,-3.3201,-3.2457,-3.1456,-3.1127,-3.0977,-3.1096,-3.1471,-3.1669,-3.1698,-3.2191,-3.2249,-3.1727,-3.2182,-3.1674,-2.9868,-2.9928,-2.9428,-2.7846,-2.8323,-2.9076,-2.998,-3.0156,-3.0583,-3.1436,-3.1637,-3.1863,-3.2315,-3.2365,-3.2566,-3.3061,-3.3136,-3.3136,-3.3136,-3.3136,-3.3244,-3.3671,-3.4198,-3.4731,-3.5257,-3.583,-3.6329,-3.638,-3.6405,-3.6405,-3.6405,-3.6405,-3.6405,-3.6405,-3.6405,-3.6405,-3.6405,-3.6358,-3.631,-3.6335,-3.6288,-3.6193,-3.5955,-3.5908,-3.586,-3.5668,-3.5572,-3.5524,-3.5524,-3.5332,-3.5138,-3.5187,-3.5307,-3.5404,-6.3159,-6.2415,-6.2415,-6.187,-6.0945,-6.0403,-5.8224,-5.4976,-5.3792,-5.2935,-5.2336,-5.1482,-5.0674,-5.0062,-4.9434,-4.8775,-4.8117,-4.7549,-4.7309,0.0,-4.7309,-4.6591,-4.5334,-4.5274,-4.4616,-4.3379,-4.329,-4.3,-4.2381,-4.1841,-4.1175,-4.0546,-3.9858,-3.9559,-3.9559,-3.9433,-3.9403,-3.9373,-3.8841,-3.8542,-3.8512,-3.7973,-3.7614,-3.734,-3.619,-3.5347,-3.4961,-3.3544,-3.265,-3.2474,-3.2346,-3.2251,-3.2283,-3.2309,-3.2336,-3.2336,-3.2423,-3.2483,-3.2365,-3.2331,-3.2048,-3.1408,-3.1249,-3.0658,-2.9603,-3.0357,-3.1009,-3.1185,-3.1537,-3.1938,-3.2114,-3.2516,-3.2792,-3.296,-3.2943,-3.3036,-3.3068,-3.3136,-3.3136,-3.3136,-3.3136,-3.3136,-3.3244,-3.3696,-3.4248,-3.4776,-3.5282,-3.583,-3.6254,-3.6405,-3.6405,-3.6405,-3.6405,-3.6405,-3.6405,-3.6405,-3.6358,-3.6405,-3.6193,-3.6051,-3.6051,-3.5908,-3.5764,-3.5668,-3.5668,-3.5596,-3.5548,-3.538,-3.5259,-3.5235,-3.4969,-3.4824,-3.4848,-3.4896,-3.4896,-6.2778,-6.1669,-6.1669,-6.082,-5.9379,-5.7598,-5.589,-5.4202,-5.2673,-5.1926,-5.1819,-5.1386,-5.0794,-5.0166,-4.9553,-4.897,-4.8267,-4.7608,-4.7309,-4.7309,-4.7309,-4.6591,-4.5364,-4.5274,-4.4616,-4.3349,-4.329,-4.2821,-4.1863,-4.1542,-4.0876,-3.9918,-3.9523,-3.9403,-3.9403,-3.9403,-3.9403,-3.9409,-3.911,-3.8931,-3.8931,-3.8661,-3.8153,-3.7434,-3.6667,-3.57,-3.4593,-3.4068,-3.3404,-3.2608,-3.2893,-3.289,-3.2542,-3.2861,-3.3035,-3.3035,-3.3354,-3.3703,-3.4051,-3.3529,-3.2888,-3.2241,-3.1934,-3.1637,-3.116,-3.1286,-3.1512,-3.1813,-3.2064,-3.234,-3.2641,-3.2918,-3.3136,-3.3136,-3.3136,-3.3136,-3.3136,-3.3136,-3.3136,-3.3136,-3.3136,-3.3136,-3.3136,-3.3545,-3.3947,-3.4274,-3.4705,-3.5303,-3.583,-3.5931,-3.6031,-3.6355,-3.6405,-3.6405,-3.6405,-3.6288,-3.6193,-3.6193,-3.5955,-3.5812,-3.5764,-3.5668,-3.5572,-3.5428,-3.5356,-3.5185,-3.4895,-3.4896,-3.4824,-3.4583,-3.4438,-3.4414,-3.4655,-3.4583,-3.4462,-6.2171,-6.0986,-6.0778,-5.9674,-5.7869,-5.5189,-5.3975,-5.3711,-5.1987,-5.1229,-5.1229,-5.1229,-5.0823,-5.0166,-4.9553,-4.8895,-4.8267,-4.7608,-4.7309,-4.7309,-4.7309,-4.6591,-4.5394,-4.5274,-4.4616,-4.3439,-4.329,-4.2671,-4.1504,-4.1422,-4.0726,-3.9559,-3.9403,-3.9403,-3.9403,-3.9403,-3.9313,-3.92,-3.9164,-3.9164,-3.917,-3.9014,-3.8417,-3.7455,-3.7079,-3.6137,-3.4519,-3.4673,-3.4301,-3.3267,-3.3794,-3.3877,-3.3441,-3.3848,-3.4084,-3.3997,-3.4486,-3.5038,-3.5491,-3.4659,-3.3772,-3.3133,-3.2644,-3.2416,-3.2365,-3.2014,-3.1938,-3.234,-3.2416,-3.2616,-3.2968,-3.3111,-3.3136,-3.3136,-3.3136,-3.3136,-3.3136,-3.3136,-3.3136,-3.3136,-3.3136,-3.3136,-3.3187,-3.3445,-3.3746,-3.3947,-3.4374,-3.4901,-3.5232,-3.5307,-3.5533,-3.5984,-3.6282,-3.6405,-3.6405,-3.6288,-3.6098,-3.6028,-3.5764,-3.5547,-3.5377,-3.528,-3.5087,-3.4798,-3.4726,-3.4509,-3.4029,-3.415,-3.4222,-3.3933,-3.3885,-3.3982,-3.4294,-3.4078,-3.3982,-6.1136,-6.0861,-6.0098,-5.9011,-5.7574,-5.5064,-5.388,-5.3489,-5.1892,-5.1229,-5.1229,-5.1229,-5.0823,-5.0166,-4.9553,-4.8925,-4.8267,-4.7608,-4.7309,-4.7309,-4.7309,-4.6591,-4.5364,-4.5274,-4.4616,-4.3439,-4.329,-4.2671,-4.1414,-4.1362,-4.0696,-3.9523,-3.9403,-3.9403,-3.9403,-3.9403,-3.911,-3.8512,-3.8482,-3.8482,-3.8452,-3.7913,-3.7485,-3.7228,-3.6428,-3.5903,-3.5439,-3.5443,-3.5281,-3.5189,-3.5677,-3.5996,-3.5909,-3.5996,-3.5764,-3.5276,-3.5764,-3.617,-3.6086,-3.5262,-3.4561,-3.4457,-3.3472,-3.2943,-3.2968,-3.2986,-3.296,-3.3011,-3.3036,-3.2993,-3.3068,-3.3136,-3.3136,-3.3136,-3.3136,-3.3136,-3.3136,-3.3136,-3.3136,-3.3136,-3.3136,-3.3136,-3.3136,-3.3212,-3.337,-3.3771,-3.4198,-3.46,-3.4705,-3.4756,-3.4865,-3.5322,-3.5865,-3.6282,-3.6285,-3.6358,-3.6096,-3.5955,-3.574,-3.5279,-3.4723,-3.4339,-3.4053,-3.3931,-3.3666,-3.3571,-3.3475,-3.3428,-3.3452,-3.3428,-3.338,-3.3404,-3.3452,-3.3404,-3.3404,-6.0355,-5.9278,-5.8953,-5.818,-5.6946,-5.4905,-5.3927,-5.3663,-5.194,-5.1229,-5.1229,-5.1229,-5.0823,-5.0166,-4.9553,-4.8895,-4.8267,-4.7608,-4.7309,-4.7309,-4.7309,-4.6591,-4.5394,-4.5274,-4.4616,-4.3379,-4.329,-4.2671,-4.1444,-4.0606,-3.9918,-3.9433,-3.9403,-3.9403,-3.9403,-3.9403,-3.908,-3.8422,-3.8003,-3.7609,-3.7178,-3.7237,-3.7084,-3.6594,-3.6055,-3.5561,-3.5224,-3.5607,-3.5764,-3.5508,-3.6344,-3.6722,-3.6315,-3.6286,-3.6199,-3.5967,-3.6548,-3.6294,-3.5004,-3.4783,-3.4299,-3.3305,-3.2835,-3.2692,-3.3086,-3.3136,-3.3136,-3.3136,-3.3136,-3.3136,-3.3136,-3.3136,-3.3136,-3.3136,-3.3136,-3.3136,-3.3136,-3.3136,-3.3136,-3.3136,-3.3136,-3.3136,-3.3136,-3.3136,-3.3212,-3.3395,-3.3646,-3.3897,-3.4148,-3.409,-3.4205,-3.4632,-3.4885,-3.526,-3.5732,-3.5787,-3.5521,-3.5132,-3.4844,-3.4412,-3.3953,-3.369,-3.3501,-3.3284,-3.3212,-3.3068,-3.2875,-3.3116,-3.3236,-3.3068,-3.3116,-3.314,-3.2512,-3.2587,-3.2659,-5.9455,-5.8257,-5.784,-5.7275,-5.6445,-5.4648,-5.388,-5.368,-5.1987,-5.1229,-5.1229,-5.1229,-5.0704,-4.9972,-4.9464,-4.888,-4.8027,-4.7519,-4.7309,-4.7309,-4.7309,-4.6591,-4.5394,-4.5274,-4.4616,-4.3469,-4.329,-4.2671,-4.1384,-4.0277,-3.9589,-3.9403,-3.9403,-3.9403,-3.9403,-3.9403,-3.899,-3.8153,-3.7644,-3.6914,-3.6153,-3.6353,-3.6319,-3.5803,-3.557,-3.5166,-3.4689,-3.5543,-3.5851,-3.545,-3.6431,-3.6809,-3.6344,-3.646,-3.6577,-3.6577,-3.6838,-3.6225,-3.4376,-3.4465,-3.398,-3.2705,-3.2382,-3.2466,-3.2986,-3.3136,-3.3136,-3.3136,-3.3136,-3.3136,-3.3136,-3.3136,-3.3136,-3.3136,-3.3136,-3.3136,-3.3136,-3.3136,-3.3136,-3.3136,-3.3136,-3.3136,-3.3136,-3.3136,-3.3093,-3.3032,-3.3032,-3.3064,-3.3396,-3.3344,-3.3385,-3.386,-3.3822,-3.4121,-3.491,-3.5008,-3.4649,-3.4337,-3.4049,-3.3786,-3.3258,-3.3092,-3.2899,-3.2659,-3.2827,-3.2755,-3.237,-3.2587,-3.2803,-3.2515,-3.2539,-3.2635,-3.2006,-3.2082,-3.2058,-5.8257,-5.8026,-5.6971,-5.6342,-5.5907,-5.431,-5.3592,-5.3441,-5.1892,-5.1229,-5.1229,-5.1229,-5.0511,-4.9419,-4.9329,-4.861,-4.7459,-4.7339,-4.7309,-4.7309,-4.7309,-4.6591,-4.5334,-4.5274,-4.4616,-4.3439,-4.3319,-4.2641,-4.1414,-4.0666,-4.0038,-3.9433,-3.9403,-3.9403,-3.9403,-3.9403,-3.8781,-3.7704,-3.7464,-3.6735,-3.5466,-3.5149,-3.5045,-3.4882,-3.4756,-3.4655,-3.452,-3.5101,-3.5421,-3.5392,-3.6025,-3.6344,-3.6344,-3.6896,-3.7186,-3.7128,-3.6693,-3.5985,-3.5096,-3.431,-3.3682,-3.3245,-3.2479,-3.239,-3.2842,-3.3011,-3.3036,-3.3111,-3.3086,-3.3136,-3.3136,-3.3136,-3.3136,-3.3136,-3.3136,-3.3136,-3.3136,-3.3136,-3.3136,-3.3136,-3.3136,-3.3136,-3.3136,-3.3136,-3.2982,-3.2853,-3.2766,-3.2705,-3.2649,-3.2561,-3.2631,-3.2841,-3.2946,-3.3137,-3.3854,-3.4154,-3.3988,-3.3679,-3.3492,-3.3346,-3.2871,-3.2466,-3.2226,-3.2054,-3.2078,-3.2006,-3.1813,-3.1813,-3.1934,-3.1886,-3.191,-3.1789,-3.1741,-3.1717,-3.1741,-5.7746,-5.7019,-5.6616,-5.603,-5.525,-5.408,-5.335,-5.2868,-5.1712,-5.1229,-5.1229,-5.1229,-5.0511,-4.9299,-4.9299,-4.8536,-4.7369,-4.7309,-4.7309,-4.7309,-4.7309,-4.683,-4.5992,-4.5514,-4.4855,-4.4018,-4.3469,-4.2671,-4.1444,-4.0726,-4.0068,-3.9493,-3.9403,-3.9403,-3.9403,-3.9403,-3.8931,-3.8093,-3.7644,-3.685,-3.5718,-3.5141,-3.4769,-3.4501,-3.453,-3.4496,-3.4399,-3.5009,-3.5392,-3.5392,-3.5967,-3.6286,-3.6315,-3.6548,-3.6664,-3.6635,-3.6431,-3.5547,-3.4048,-3.352,-3.2833,-3.1712,-3.1387,-3.1436,-3.1938,-3.2315,-3.2516,-3.2591,-3.2893,-3.3111,-3.3136,-3.3136,-3.3136,-3.3136,-3.3136,-3.3136,-3.3136,-3.3136,-3.3136,-3.3136,-3.3136,-3.3136,-3.3136,-3.3136,-3.3068,-3.2939,-3.281,-3.268,-3.255,-3.2376,-3.2167,-3.2269,-3.2184,-3.2188,-3.2422,-3.3174,-3.3419,-3.3083,-3.2798,-3.2581,-3.2247,-3.2054,-3.1813,-3.1789,-3.1645,-3.1669,-3.1669,-3.1717,-3.1717,-3.1717,-3.1717,-3.1717,-3.1717,-3.1717,-3.1717,-5.7067,-5.6225,-5.6127,-5.5614,-5.4673,-5.3845,-5.3104,-5.2395,-5.1546,-5.1229,-5.1229,-5.1229,-5.0481,-4.9449,-4.9299,-4.8566,-4.7399,-4.7309,-4.7309,-4.7309,-4.7309,-4.695,-4.6249,-4.5633,-4.4945,-4.4287,-4.3618,-4.2731,-4.1743,-4.1025,-4.0367,-3.9768,-3.9529,-3.9403,-3.9403,-3.9403,-3.908,-3.8392,-3.7734,-3.6905,-3.5942,-3.5226,-3.4735,-3.4433,-3.4366,-3.4366,-3.4395,-3.4835,-3.5072,-3.516,-3.5473,-3.5793,-3.5967,-3.6025,-3.5996,-3.5996,-3.5747,-3.4787,-3.3037,-3.2486,-3.1841,-3.0741,-3.0633,-3.0834,-3.1361,-3.1888,-3.2164,-3.2315,-3.2742,-3.3136,-3.3136,-3.3136,-3.3136,-3.3136,-3.3136,-3.3136,-3.3136,-3.3136,-3.3136,-3.3136,-3.3136,-3.3136,-3.3093,-3.3025,-3.2939,-3.2921,-3.2636,-3.2463,-3.2332,-3.2157,-3.1893,-3.1893,-3.1829,-3.1809,-3.1906,-3.2433,-3.2675,-3.2367,-3.2343,-3.2054,-3.1813,-3.1621,-3.1476,-3.1452,-3.15,-3.1548,-3.1621,-3.1693,-3.1717,-3.1717,-3.1717,-3.1717,-3.1717,-3.1717,-3.1717,-5.6127,-5.5681,-5.5581,-5.506,-5.4171,-5.3492,-5.2833,-5.2097,-5.1468,-5.1229,-5.1229,-5.1229,-5.0511,-4.9509,-4.9299,-4.8536,-4.7489,-4.7309,-4.7309,-4.7309,-4.7309,-4.695,-4.6279,-4.5603,-4.4885,-4.4197,-4.3589,-4.3,-4.2321,-4.1632,-4.0965,-4.0367,-3.9709,-3.9403,-3.9403,-3.9373,-3.911,-3.8482,-3.7819,-3.696,-3.5976,-3.5314,-3.4794,-3.4462,-3.4366,-3.4366,-3.4366,-3.4428,-3.4486,-3.4486,-3.4516,-3.4748,-3.5305,-3.5392,-3.5392,-3.5288,-3.4697,-3.3573,-3.2282,-3.1468,-3.1007,-3.0565,-3.0583,-3.0708,-3.1135,-3.1763,-3.2114,-3.219,-3.2692,-3.3136,-3.3136,-3.3136,-3.3136,-3.3136,-3.3136,-3.3136,-3.3136,-3.3136,-3.3136,-3.3136,-3.3136,-3.3136,-3.3025,-3.2939,-3.2742,-3.2476,-3.219,-3.1948,-3.1792,-3.166,-3.1645,-3.1717,-3.1717,-3.1717,-3.1717,-3.1741,-3.1741,-3.1697,-3.1813,-3.1741,-3.1548,-3.1332,-3.1067,-3.1019,-3.1115,-3.1211,-3.1452,-3.1524,-3.1693,-3.1717,-3.1717,-3.1693,-3.1717,-3.1717,-3.1717,-5.6077,-5.5631,-5.5581,-5.4769,-5.3533,-5.3264,-5.2576,-5.1558,-5.1289,-5.1229,-5.1229,-5.1229,-5.0481,-4.9539,-4.9299,-4.8566,-4.7369,-4.7309,-4.7309,-4.7309,-4.7309,-4.698,-4.6322,-4.5633,-4.4706,-4.3738,-4.3409,-4.3,-4.241,-4.1752,-4.1055,-4.0397,-3.9768,-3.9403,-3.9403,-3.9373,-3.926,-3.9014,-3.8311,-3.7451,-3.662,-3.5771,-3.5073,-3.4491,-3.4366,-3.4366,-3.4366,-3.4366,-3.4366,-3.4366,-3.4366,-3.4516,-3.469,-3.4719,-3.469,-3.4621,-3.3972,-3.3147,-3.22,-3.1341,-3.0622,-3.02,-3.0055,-3.0105,-3.0357,-3.116,-3.1637,-3.1763,-3.2491,-3.3136,-3.3136,-3.3136,-3.3136,-3.3136,-3.3136,-3.3136,-3.3136,-3.3136,-3.3136,-3.3136,-3.3136,-3.3136,-3.3068,-3.2982,-3.2685,-3.2172,-3.1884,-3.1644,-3.1423,-3.1231,-3.1356,-3.1621,-3.1645,-3.1645,-3.1597,-3.15,-3.1428,-3.138,-3.1404,-3.1356,-3.1163,-3.0855,-3.0657,-3.0561,-3.0681,-3.0874,-3.1115,-3.1308,-3.1428,-3.1621,-3.1597,-3.1621,-3.1693,-3.1717,-3.1693,-5.583,-5.5481,-5.5431,-5.46,-5.3283,-5.3174,-5.2426,-5.1319,-5.1229,-5.1229,-5.1229,-5.1229,-5.0481,-4.9509,-4.9299,-4.855,-4.7399,-4.7309,-4.7309,-4.7309,-4.7309,-4.707,-4.6561,-4.5723,-4.4616,-4.3499,-4.329,-4.312,-4.2701,-4.1833,-4.1212,-4.0726,-3.9888,-3.9403,-3.9403,-3.9373,-3.9373,-3.9175,-3.8502,-3.7671,-3.681,-3.6025,-3.521,-3.4516,-3.4366,-3.4366,-3.4366,-3.4366,-3.4366,-3.4366,-3.4366,-3.4366,-3.4366,-3.4395,-3.4366,-3.4196,-3.3416,-3.2541,-3.2037,-3.1044,-3.0305,-2.9895,-2.9779,-2.9804,-2.998,-3.0783,-3.1361,-3.1512,-3.2416,-3.3136,-3.3136,-3.3136,-3.3136,-3.3136,-3.3136,-3.3136,-3.3136,-3.3136,-3.3136,-3.3136,-3.3136,-3.3136,-3.3111,-3.2896,-3.2685,-3.2148,-3.1669,-3.1333,-3.1089,-3.0797,-3.1019,-3.1259,-3.1332,-3.1332,-3.138,-3.1284,-3.1139,-3.1091,-3.1043,-3.0898,-3.0706,-3.0278,-2.9989,-2.9893,-2.9965,-3.0206,-3.047,-3.0711,-3.0879,-3.1139,-3.1332,-3.1332,-3.1332,-3.1645,-3.1693,-5.5431,-5.5209,-5.5149,-5.4371,-5.3283,-5.3114,-5.2366,-5.1319,-5.1229,-5.1229,-5.1229,-5.1229,-5.0511,-4.9509,-4.9299,-4.858,-4.7489,-4.7309,-4.7309,-4.7309,-4.7309,-4.716,-4.6741,-4.5633,-4.4496,-4.3469,-4.329,-4.329,-4.311,-4.2102,-4.1452,-4.1242,-4.0157,-3.9403,-3.9403,-3.9373,-3.9301,-3.903,-3.8489,-3.7683,-3.6781,-3.6009,-3.5326,-3.4545,-3.4457,-3.4366,-3.4366,-3.4366,-3.4366,-3.4366,-3.4366,-3.4332,-3.4332,-3.4332,-3.4366,-3.4128,-3.2826,-3.2218,-3.1709,-3.0722,-2.9895,-2.9818,-2.9779,-2.9779,-2.993,-3.0733,-3.1386,-3.1461,-3.2416,-3.3136,-3.3136,-3.3136,-3.3136,-3.3136,-3.3136,-3.3136,-3.3136,-3.3136,-3.3136,-3.3136,-3.3136,-3.3136,-3.3093,-3.2766,-3.25,-3.2154,-3.1552,-3.121,-3.0917,-3.073,-3.0561,-3.073,-3.1043,-3.0946,-3.0927,-3.0807,-3.0681,-3.035,-3.035,-3.0278,-3.0086,-2.9725,-2.9412,-2.934,-2.9436,-2.9653,-2.9893,-3.0182,-3.035,-3.047,-3.0639,-3.0759,-3.097,-3.1187,-3.1404,-5.5431,-5.5149,-5.467,-5.3952,-5.3144,-5.2695,-5.2007,-5.1289,-5.1229,-5.1229,-5.1229,-5.1229,-5.0481,-4.9389,-4.9299,-4.8536,-4.7578,-4.7309,-4.7309,-4.7309,-4.7309,-4.6681,-4.5843,-4.5005,-4.4167,-4.3379,-4.329,-4.329,-4.323,-4.2462,-4.1871,-4.1354,-4.0546,-3.9785,-3.9288,-3.9337,-3.9228,-3.8943,-3.8723,-3.8171,-3.7337,-3.6516,-3.5834,-3.5189,-3.469,-3.4457,-3.4395,-3.4366,-3.4366,-3.4366,-3.4366,-3.4094,-3.3659,-3.3997,-3.3859,-3.2925,-3.2362,-3.1783,-3.1193,-3.0368,-2.9818,-2.9779,-2.9779,-2.9779,-2.9829,-3.0758,-3.1286,-3.1587,-3.239,-3.3111,-3.3111,-3.3136,-3.3136,-3.3136,-3.3136,-3.3136,-3.3136,-3.3136,-3.3136,-3.3136,-3.3111,-3.3068,-3.3025,-3.2896,-3.2556,-3.2001,-3.1565,-3.1247,-3.096,-3.0711,-3.0543,-3.073,-3.0898,-3.0657,-3.0446,-3.035,-3.011,-2.9677,-2.9581,-2.9605,-2.9412,-2.9148,-2.8883,-2.8715,-2.91,-2.9364,-2.9581,-2.9821,-2.9893,-2.9845,-3.011,-3.0278,-3.0302,-3.0446,-3.0735,-5.533,-5.5119,-5.4491,-5.3803,-5.3144,-5.2456,-5.1828,-5.1319,-5.1229,-5.1229,-5.1229,-5.1229,-5.0481,-4.9389,-4.9299,-4.8536,-4.7429,-4.7309,-4.7309,-4.7309,-4.7309,-4.6561,-4.5514,-4.4825,-4.4257,-4.3349,-4.329,-4.329,-4.317,-4.2671,-4.2051,-4.1384,-4.0726,-3.9957,-3.9185,-3.9192,-3.9083,-3.876,-3.8657,-3.8282,-3.7485,-3.7026,-3.6431,-3.5793,-3.5189,-3.4719,-3.4486,-3.4366,-3.4366,-3.4332,-3.4094,-3.3659,-3.3248,-3.3311,-3.2995,-3.211,-3.1819,-3.1378,-3.0895,-3.0216,-2.9818,-2.9779,-2.9779,-2.9779,-2.993,-3.0583,-3.1085,-3.1461,-3.224,-3.2742,-3.3086,-3.3136,-3.3136,-3.3136,-3.3136,-3.3136,-3.3136,-3.3136,-3.3136,-3.3068,-3.2982,-3.2939,-3.2896,-3.2766,-3.2401,-3.1896,-3.1461,-3.121,-3.0941,-3.0778,-3.0543,-3.0585,-3.0513,-3.023,-2.9941,-2.9797,-2.9605,-2.9196,-2.9076,-2.9051,-2.8955,-2.8739,-2.8643,-2.8595,-2.8835,-2.9027,-2.9196,-2.9268,-2.9196,-2.9268,-2.9581,-2.9749,-2.9773,-2.9845,-3.0134,-5.5089,-5.5029,-5.4311,-5.3653,-5.2995,-5.2366,-5.1738,-5.1289,-5.1229,-5.1229,-5.1199,-5.1139,-5.0361,-4.9299,-4.912,-4.8446,-4.7309,-4.7309,-4.7309,-4.7309,-4.7219,-4.6591,-4.5394,-4.5214,-4.4466,-4.3469,-4.329,-4.329,-4.317,-4.2731,-4.2162,-4.1526,-4.0868,-4.004,-3.9313,-3.9106,-3.8833,-3.8538,-3.8501,-3.8222,-3.7608,-3.7273,-3.6838,-3.6199,-3.5386,-3.4985,-3.4632,-3.4453,-3.4332,-3.4264,-3.3555,-3.3213,-3.3038,-3.2398,-3.1965,-3.1773,-3.1257,-3.0932,-3.0696,-3.0101,-2.9779,-2.9779,-2.9779,-2.9779,-2.9905,-3.0357,-3.0884,-3.1361,-3.1888,-3.2491,-3.3011,-3.3136,-3.3136,-3.3136,-3.3136,-3.3136,-3.3136,-3.3136,-3.3068,-3.3025,-3.2853,-3.2723,-3.255,-3.2332,-3.2045,-3.1986,-3.1569,-3.1336,-3.1014,-3.0754,-3.0374,-3.0013,-2.9917,-2.9773,-2.9484,-2.922,-2.9003,-2.8739,-2.8715,-2.8691,-2.8715,-2.8595,-2.8546,-2.8595,-2.8715,-2.8715,-2.8691,-2.8691,-2.8667,-2.8739,-2.9076,-2.9172,-2.9244,-2.9388,-2.9605,-5.4431,-5.4341,-5.3144,-5.2546,-5.2306,-5.1708,-5.1349,-5.1229,-5.1229,-5.1229,-5.1109,-5.069,-5.0032,-4.9224,-4.8775,-4.8057,-4.7369,-4.7309,-4.7309,-4.7309,-4.7309,-4.6531,-4.5544,-4.5274,-4.4556,-4.3589,-4.329,-4.329,-4.323,-4.308,-4.2682,-4.187,-4.1186,-4.0402,-3.9517,-3.9003,-3.8686,-3.8352,-3.8389,-3.8331,-3.7978,-3.7535,-3.7041,-3.6344,-3.5294,-3.4951,-3.5009,-3.469,-3.4094,-3.3589,-3.3213,-3.2791,-3.2398,-3.211,-3.1516,-3.0797,-3.0771,-3.062,-3.0177,-2.9934,-2.9779,-2.9779,-2.9779,-2.9779,-2.9829,-3.0281,-3.0809,-3.1336,-3.1888,-3.2416,-3.3011,-3.3136,-3.3136,-3.3136,-3.3136,-3.3136,-3.3136,-3.3111,-3.3025,-3.2853,-3.2766,-3.2636,-3.2506,-3.2376,-3.2157,-3.2001,-3.1792,-3.1487,-3.111,-3.0735,-3.0278,-2.9797,-2.9605,-2.9484,-2.91,-2.8883,-2.8763,-2.8595,-2.8546,-2.8522,-2.8522,-2.8522,-2.8522,-2.8522,-2.8522,-2.8522,-2.8522,-2.8522,-2.857,-2.8595,-2.8619,-2.8739,-2.8883,-2.8979,-2.91,-5.4012,-5.3623,-5.2606,-5.2187,-5.2097,-5.1528,-5.1229,-5.1229,-5.1229,-5.1229,-5.1079,-5.0495,-4.9883,-4.9269,-4.8596,-4.7938,-4.7429,-4.7309,-4.7309,-4.7309,-4.7249,-4.6561,-4.5544,-4.5185,-4.4646,-4.3469,-4.329,-4.329,-4.329,-4.323,-4.2822,-4.2,-4.1406,-4.0533,-3.9572,-3.8964,-3.853,-3.8277,-3.8277,-3.8277,-3.8115,-3.7912,-3.7418,-3.6642,-3.5539,-3.4973,-3.5299,-3.3994,-3.3403,-3.3038,-3.2541,-3.2001,-3.1563,-3.122,-3.0596,-3.0101,-3.0101,-3.0228,-2.9895,-2.9779,-2.9779,-2.9779,-2.9779,-2.9779,-2.9829,-3.0105,-3.0457,-3.0984,-3.1537,-3.2114,-3.2986,-3.3136,-3.3111,-3.3136,-3.3136,-3.3136,-3.3136,-3.3111,-3.3068,-3.2853,-3.268,-3.255,-3.2419,-3.2245,-3.2069,-3.1849,-3.1825,-3.152,-3.1134,-3.0711,-3.0206,-2.9773,-2.9484,-2.9172,-2.8763,-2.8595,-2.8619,-2.8546,-2.8522,-2.8522,-2.8522,-2.8522,-2.8522,-2.8522,-2.8522,-2.8522,-2.8522,-2.8522,-2.8522,-2.8546,-2.8546,-2.8522,-2.857,-2.8715,-2.8787,-5.3563,-5.2965,-5.2336,-5.2067,-5.1977,-5.1439,-5.1229,-5.1229,-5.1229,-5.1139,-5.093,-5.0391,-4.9643,-4.9045,-4.8386,-4.7788,-4.7429,-4.7309,-4.7309,-4.7309,-4.7309,-4.6501,-4.5574,-4.5185,-4.4616,-4.3439,-4.329,-4.329,-4.325,-4.322,-4.2852,-4.207,-4.129,-4.0527,-3.9651,-3.8844,-3.8389,-3.8202,-3.8202,-3.8202,-3.8202,-3.8144,-3.7817,-3.6983,-3.5571,-3.4944,-3.4816,-3.3732,-3.2682,-3.2996,-3.1867,-3.1232,-3.0789,-3.0241,-2.9779,-2.9779,-2.9856,-2.9856,-2.9818,-2.9779,-2.9779,-2.9779,-2.9779,-2.9779,-2.9804,-2.988,-3.0156,-3.0633,-3.1185,-3.1838,-3.2835,-3.2867,-3.2943,-3.3086,-3.3136,-3.3136,-3.3136,-3.3136,-3.3068,-3.2964,-3.2636,-3.2444,-3.2201,-3.2025,-3.1849,-3.1717,-3.1693,-3.1548,-3.1139,-3.0639,-3.011,-2.9581,-2.922,-2.9003,-2.8619,-2.8522,-2.8522,-2.8522,-2.8522,-2.8522,-2.8522,-2.8522,-2.8522,-2.8522,-2.8522,-2.8522,-2.8522,-2.8522,-2.8522,-2.8522,-2.8522,-2.8522,-2.8522,-2.8522,-2.8546,-5.2456,-5.2306,-5.1648,-5.1379,-5.1379,-5.1259,-5.1229,-5.1229,-5.1199,-5.0853,-5.0315,-4.9703,-4.9075,-4.8446,-4.7758,-4.7399,-4.7339,-4.7309,-4.7309,-4.7309,-4.7249,-4.6591,-4.5514,-4.5244,-4.4556,-4.3618,-4.329,-4.321,-4.313,-4.2991,-4.2771,-4.2155,-4.1234,-4.0403,-3.978,-3.8908,-3.8335,-3.8202,-3.8202,-3.8202,-3.8202,-3.806,-3.7767,-3.6854,-3.5145,-3.4481,-3.4591,-3.3941,-3.3223,-3.2722,-3.2437,-3.1939,-3.1272,-3.0399,-2.9994,-2.9905,-2.988,-2.9905,-2.988,-2.9829,-2.9804,-2.9779,-2.9779,-2.9804,-2.9804,-2.9854,-3.0181,-3.0583,-3.1085,-3.1637,-3.2265,-3.2441,-3.2641,-3.2893,-3.3136,-3.3136,-3.3136,-3.3068,-3.3025,-3.2896,-3.2618,-3.2356,-3.2181,-3.1981,-3.1805,-3.1717,-3.1693,-3.1452,-3.1067,-3.0494,-2.9965,-2.9412,-2.8907,-2.8739,-2.8522,-2.8522,-2.8522,-2.8522,-2.8522,-2.8522,-2.8522,-2.8522,-2.8522,-2.8522,-2.8522,-2.8522,-2.8522,-2.8522,-2.8522,-2.8522,-2.8522,-2.8522,-2.8522,-2.8522,-2.8522,-5.2007,-5.1678,-5.1349,-5.1229,-5.1229,-5.1229,-5.1229,-5.1169,-5.087,-5.0495,-4.9986,-4.9224,-4.8596,-4.8177,-4.7578,-4.7309,-4.7309,-4.7309,-4.7309,-4.7309,-4.7249,-4.6591,-4.5394,-4.5274,-4.4466,-4.3618,-4.321,-4.317,-4.313,-4.293,-4.2729,-4.2361,-4.1477,-4.0704,-4.0012,-3.9218,-3.8551,-3.8318,-3.8165,-3.8165,-3.8089,-3.7796,-3.7222,-3.6476,-3.4908,-3.4111,-3.4296,-3.3093,-3.2581,-3.2501,-3.2183,-3.1807,-3.1398,-3.0984,-3.0608,-3.0583,-3.0382,-3.0206,-3.0231,-3.0206,-3.0131,-2.9804,-2.9804,-2.9955,-3.0131,-3.0281,-3.0432,-3.0834,-3.0859,-3.1336,-3.2139,-3.219,-3.2491,-3.2918,-3.3136,-3.3136,-3.3136,-3.3136,-3.2982,-3.2853,-3.255,-3.2356,-3.2269,-3.2025,-3.1805,-3.1717,-3.1717,-3.1428,-3.1043,-3.0422,-2.9893,-2.9292,-2.8811,-2.8643,-2.8522,-2.8522,-2.8522,-2.8522,-2.8522,-2.8522,-2.8522,-2.8522,-2.8522,-2.8522,-2.8522,-2.8522,-2.8522,-2.8522,-2.8522,-2.8522,-2.8522,-2.8522,-2.8522,-2.8522,-2.8522,-5.1708,-5.1229,-5.1229,-5.1229,-5.1229,-5.1229,-5.1139,-5.0883,-5.0435,-5.0046,-4.9703,-4.8805,-4.8148,-4.7673,-4.7316,-4.7062,-4.7266,-4.7309,-4.7309,-4.7279,-4.71,-4.6411,-4.5574,-4.5005,-4.4396,-4.3319,-4.305,-4.301,-4.301,-4.2809,-4.2607,-4.2268,-4.1719,-4.0927,-4.0099,-3.9421,-3.8832,-3.8178,-3.791,-3.7901,-3.7529,-3.6883,-3.6413,-3.6294,-3.4472,-3.3732,-3.3976,-3.2957,-3.2398,-3.2455,-3.2266,-3.1829,-3.1779,-3.1612,-3.1612,-3.1612,-3.1135,-3.0859,-3.0783,-3.0758,-3.0608,-3.0331,-3.0181,-3.0382,-3.0532,-3.0683,-3.0733,-3.106,-3.0959,-3.1009,-3.1813,-3.2139,-3.2491,-3.2918,-3.3136,-3.3111,-3.3068,-3.3025,-3.2939,-3.2766,-3.2506,-3.2376,-3.2245,-3.2069,-3.1849,-3.1717,-3.1717,-3.1645,-3.1211,-3.0513,-2.9869,-2.922,-2.8787,-2.8595,-2.8522,-2.8522,-2.8522,-2.8522,-2.8522,-2.8522,-2.8522,-2.8522,-2.8522,-2.8522,-2.8522,-2.8522,-2.8522,-2.8522,-2.8522,-2.8522,-2.8522,-2.8522,-2.8522,-2.8522,-2.8522,-5.1289,-5.1229,-5.1229,-5.1229,-5.1199,-5.1169,-5.084,-5.0315,-5.009,-4.9553,-4.8686,-4.8223,-4.7303,-4.6489,-4.6254,-4.6594,-4.7062,-4.7309,-4.7309,-4.7249,-4.677,-4.6142,-4.5304,-4.4646,-4.4016,-4.314,-4.285,-4.2769,-4.2648,-4.2444,-4.2351,-4.2111,-4.1604,-4.0826,-4.0234,-3.9497,-3.8457,-3.7363,-3.7106,-3.6727,-3.6029,-3.5251,-3.495,-3.4579,-3.3833,-3.3276,-3.3478,-3.2887,-3.2887,-3.2912,-3.292,-3.2885,-3.2835,-3.2365,-3.2466,-3.239,-3.1989,-3.1311,-3.1311,-3.1311,-3.121,-3.1035,-3.106,-3.121,-3.121,-3.0984,-3.0834,-3.0658,-3.0658,-3.0959,-3.1612,-3.1964,-3.2466,-3.2842,-3.3093,-3.3043,-3.3018,-3.2585,-3.2567,-3.2506,-3.2198,-3.2302,-3.2288,-3.2069,-3.1893,-3.1805,-3.1693,-3.1621,-3.1284,-3.0489,-2.9701,-2.9027,-2.8715,-2.857,-2.8522,-2.8522,-2.8522,-2.8522,-2.8522,-2.8522,-2.8522,-2.8522,-2.8522,-2.8522,-2.8522,-2.8522,-2.8522,-2.8522,-2.8522,-2.8522,-2.8522,-2.8522,-2.8522,-2.8522,-2.8522,-5.1229,-5.1199,-5.0764,-5.0614,-5.0601,-5.0272,-4.9972,-4.9552,-4.8663,-4.8281,-4.7926,-4.6586,-4.5875,-4.5808,-4.6299,-4.6887,-4.7266,-4.7222,-4.7309,-4.7086,-4.6548,-4.5891,-4.5233,-4.4493,-4.3715,-4.3049,-4.2648,-4.2117,-4.2034,-4.2075,-4.2216,-4.2129,-4.1814,-4.1366,-4.0383,-3.9527,-3.857,-3.7529,-3.6714,-3.5989,-3.5507,-3.4841,-3.4397,-3.4356,-3.3539,-3.3197,-3.3136,-3.3136,-3.3136,-3.3136,-3.3136,-3.3111,-3.3043,-3.2842,-3.2885,-3.2986,-3.2667,-3.2215,-3.1938,-3.1863,-3.1712,-3.1461,-3.1436,-3.1486,-3.1687,-3.1637,-3.1486,-3.1537,-3.1235,-3.1336,-3.1712,-3.2064,-3.2491,-3.2867,-3.3025,-3.2739,-3.2596,-3.2258,-3.2013,-3.1951,-3.1915,-3.2,-3.2059,-3.1957,-3.1825,-3.1761,-3.1621,-3.1476,-3.0995,-3.0134,-2.9412,-2.8715,-2.857,-2.8522,-2.8522,-2.8522,-2.8522,-2.8522,-2.8522,-2.8522,-2.8522,-2.8522,-2.8522,-2.8522,-2.8522,-2.8522,-2.8522,-2.8522,-2.8522,-2.8522,-2.8522,-2.8522,-2.8522,-2.8522,-2.8522,-5.0176,-4.9958,-4.9868,-4.9614,-4.9221,-4.8719,-4.8407,-4.808,-4.7027,-4.6754,-4.6583,-4.505,-4.4545,-4.5235,-4.5808,-4.5898,-4.6462,-4.655,-4.6608,-4.6429,-4.601,-4.5369,-4.4739,-4.4102,-4.3415,-4.282,-4.2199,-4.1632,-4.1254,-4.1128,-4.1254,-4.1632,-4.1478,-4.098,-4.0272,-3.9345,-3.8274,-3.6605,-3.5493,-3.4924,-3.4759,-3.433,-3.4105,-3.3852,-3.3496,-3.3136,-3.3136,-3.3136,-3.3136,-3.3136,-3.3136,-3.3136,-3.3111,-3.3086,-3.3061,-3.3111,-3.296,-3.2835,-3.2541,-3.239,-3.219,-3.1964,-3.1813,-3.2114,-3.2315,-3.234,-3.219,-3.2064,-3.1838,-3.1863,-3.2114,-3.2315,-3.2667,-3.29,-3.2939,-3.2554,-3.2269,-3.2055,-3.1878,-3.1743,-3.173,-3.1655,-3.1695,-3.1709,-3.1693,-3.1693,-3.1573,-3.1356,-3.0681,-2.9821,-2.9244,-2.8595,-2.8522,-2.8522,-2.8522,-2.8522,-2.8522,-2.8522,-2.8522,-2.8522,-2.8522,-2.8522,-2.8522,-2.8522,-2.8522,-2.8522,-2.8522,-2.8522,-2.8522,-2.8522,-2.8522,-2.8522,-2.8522,-2.8522,-2.8522,-4.751,-4.6744,-4.823,-4.799,-4.6679,-4.6506,-4.6186,-4.5817,-4.5525,-4.5044,-4.4528,-4.3606,-4.3701,-4.4125,-4.405,-4.4144,-4.4591,-4.4545,-4.492,-4.4864,-4.4327,-4.4144,-4.385,-4.3453,-4.2777,-4.231,-4.1632,-4.1057,-4.0432,-3.9694,-3.9607,-3.9519,-4.0303,-3.9655,-3.9071,-3.8644,-3.7166,-3.5455,-3.4098,-3.3598,-3.3556,-3.3411,-3.3326,-3.3283,-3.3154,-3.3136,-3.3136,-3.3136,-3.3136,-3.3136,-3.3136,-3.3136,-3.3136,-3.3136,-3.3136,-3.3136,-3.3136,-3.3036,-3.2893,-3.2893,-3.2986,-3.2986,-3.291,-3.2742,-3.2842,-3.2466,-3.229,-3.2315,-3.2215,-3.2215,-3.2416,-3.2641,-3.2918,-3.295,-3.2957,-3.2678,-3.24,-3.2142,-3.1939,-3.17,-3.1498,-3.1283,-3.1245,-3.1279,-3.1573,-3.1621,-3.1211,-3.097,-3.0278,-2.9532,-2.91,-2.8667,-2.8546,-2.8522,-2.8522,-2.8522,-2.8522,-2.8522,-2.8522,-2.8522,-2.8522,-2.8522,-2.8522,-2.8522,-2.8522,-2.8522,-2.8522,-2.8522,-2.8522,-2.8522,-2.8522,-2.8522,-2.8522,-2.8522,-2.8522,-4.6087,-4.4857,-4.547,-4.5705,-4.5645,-4.5279,-4.4922,-4.4583,-4.4034,-4.323,-4.2577,-4.3273,-4.3606,-4.3464,-4.3843,-4.389,-4.4266,-4.4312,-4.4442,-4.4171,-4.3629,-4.3372,-4.3186,-4.2548,-4.1673,-4.1423,-4.0887,-3.9913,-3.8854,-3.8496,-3.7952,-3.8088,-3.9006,-3.9322,-3.8885,-3.765,-3.5996,-3.4667,-3.3503,-3.3136,-3.3136,-3.3136,-3.3136,-3.3136,-3.3136,-3.3136,-3.3136,-3.3136,-3.3136,-3.3136,-3.3136,-3.3136,-3.3136,-3.3136,-3.3136,-3.3136,-3.3136,-3.3136,-3.3136,-3.3136,-3.3136,-3.3136,-3.3111,-3.3136,-3.3136,-3.2842,-3.2767,-3.2784,-3.2717,-3.2667,-3.2792,-3.2986,-3.3111,-3.3068,-3.2932,-3.2746,-3.2457,-3.2198,-3.1785,-3.1455,-3.1059,-3.07,-3.0706,-3.0778,-3.1187,-3.15,-3.1019,-3.0513,-2.9845,-2.9292,-2.8883,-2.8667,-2.8546,-2.8522,-2.8522,-2.8522,-2.8522,-2.8522,-2.8522,-2.8522,-2.8522,-2.8522,-2.8522,-2.8522,-2.8522,-2.8522,-2.8522,-2.8522,-2.8522,-2.8522,-2.8522,-2.8522,-2.8522,-2.8522,-2.8522,-4.4386,-4.3125,-4.3076,-4.3443,-4.3994,-4.3609,-4.3368,-4.3273,-4.2701,-4.2016,-4.1398,-4.2819,-4.3033,-4.2695,-4.2937,-4.3273,-4.3122,-4.3026,-4.3194,-4.2747,-4.2133,-4.2016,-4.191,-4.144,-4.056,-4.0389,-3.9869,-3.8899,-3.8024,-3.7592,-3.7129,-3.7129,-3.7612,-3.8107,-3.7844,-3.6627,-3.5091,-3.4073,-3.3395,-3.3136,-3.3136,-3.3136,-3.3136,-3.3136,-3.3136,-3.3136,-3.3136,-3.3136,-3.3136,-3.3136,-3.3136,-3.3136,-3.3136,-3.3136,-3.3136,-3.3136,-3.3136,-3.3136,-3.3136,-3.3136,-3.3136,-3.3136,-3.3136,-3.3136,-3.3136,-3.3136,-3.3036,-3.3061,-3.3086,-3.3136,-3.3136,-3.3136,-3.3136,-3.3068,-3.3025,-3.2821,-3.2481,-3.2148,-3.1644,-3.1186,-3.0936,-3.0898,-3.0802,-3.0898,-3.0874,-3.0995,-3.0368,-2.9941,-2.9581,-2.91,-2.8691,-2.8546,-2.8522,-2.8522,-2.8522,-2.8522,-2.8522,-2.8522,-2.8522,-2.8522,-2.8522,-2.8522,-2.8522,-2.8522,-2.8522,-2.8522,-2.8522,-2.8522,-2.8522,-2.8522,-2.8522,-2.8522,-2.8522,-2.8522,-2.8522,-4.2364,-4.1374,-4.14,-4.145,-4.1676,-4.1424,-4.1498,-4.1696,-4.1498,-4.1398,-4.1324,-4.1647,-4.1597,-4.1498,-4.1769,-4.1766,-4.1558,-4.0992,-4.0776,-4.0796,-4.0218,-3.9744,-3.9782,-3.9667,-3.9404,-3.9033,-3.863,-3.8206,-3.7684,-3.6989,-3.6546,-3.6452,-3.6781,-3.6849,-3.642,-3.537,-3.4474,-3.3922,-3.3395,-3.3187,-3.3136,-3.3136,-3.3136,-3.3136,-3.3136,-3.3136,-3.3136,-3.3136,-3.3136,-3.3136,-3.3136,-3.3136,-3.3136,-3.3136,-3.3136,-3.3136,-3.3136,-3.3136,-3.3136,-3.3136,-3.3136,-3.3136,-3.3136,-3.3136,-3.3136,-3.3136,-3.3136,-3.3136,-3.3136,-3.3136,-3.3136,-3.3136,-3.3136,-3.3068,-3.3025,-3.2828,-3.2445,-3.2135,-3.168,-3.1312,-3.1399,-3.15,-3.1284,-3.1091,-3.0802,-3.0422,-2.9725,-2.9364,-2.9292,-2.9076,-2.8739,-2.8522,-2.8522,-2.8522,-2.8522,-2.8522,-2.8522,-2.8522,-2.8522,-2.8522,-2.8522,-2.8522,-2.8522,-2.8522,-2.8522,-2.8522,-2.8522,-2.8522,-2.8522,-2.8522,-2.8522,-2.8522,-2.8522,-2.8522,-2.8522,-4.1597,-4.1324,-4.1324,-4.1324,-4.1324,-4.1324,-4.1324,-4.1324,-4.1324,-4.1324,-4.1324,-4.1324,-4.1324,-4.1324,-4.1169,-4.0963,-4.045,-4.0346,-4.0136,-3.9655,-3.8731,-3.8983,-3.9034,-3.8693,-3.836,-3.8206,-3.7867,-3.7361,-3.6828,-3.6499,-3.6452,-3.6405,-3.6405,-3.6405,-3.6128,-3.5353,-3.453,-3.4299,-3.3646,-3.3136,-3.3136,-3.3136,-3.3136,-3.3136,-3.3136,-3.3136,-3.3136,-3.3136,-3.3136,-3.3136,-3.3136,-3.3136,-3.3136,-3.3136,-3.3136,-3.3136,-3.3136,-3.3136,-3.3136,-3.3136,-3.3136,-3.3136,-3.3136,-3.3136,-3.3136,-3.3136,-3.3136,-3.3136,-3.3136,-3.3136,-3.3136,-3.3136,-3.3136,-3.3068,-3.2939,-3.2723,-3.2413,-3.2196,-3.1836,-3.1535,-3.1476,-3.1139,-3.0807,-3.1067,-3.0898,-3.0826,-3.032,-2.9701,-2.9508,-2.9292,-2.9027,-2.8667,-2.8522,-2.8522,-2.8522,-2.8667,-2.8667,-2.8643,-2.8595,-2.8522,-2.8522,-2.8522,-2.8522,-2.8522,-2.8522,-2.8522,-2.8522,-2.8522,-2.8522,-2.8522,-2.8522,-2.8522,-2.8522,-2.8522,-2.8522,-4.1224,-4.1274,-4.1198,-4.1198,-4.1274,-4.1324,-4.1324,-4.1324,-4.1324,-4.1324,-4.1272,-4.1115,-4.0984,-4.0932,-4.0726,-4.0444,-3.978,-3.945,-3.9194,-3.8658,-3.7698,-3.7738,-3.7874,-3.7769,-3.7381,-3.7315,-3.7268,-3.6943,-3.6499,-3.6405,-3.6405,-3.6405,-3.6405,-3.6405,-3.6128,-3.5529,-3.4856,-3.455,-3.3872,-3.3294,-3.3212,-3.3136,-3.3136,-3.3136,-3.3136,-3.3136,-3.3136,-3.3136,-3.3136,-3.3136,-3.3136,-3.3136,-3.3136,-3.3136,-3.3136,-3.3136,-3.3136,-3.3136,-3.3136,-3.3136,-3.3136,-3.3136,-3.3136,-3.3136,-3.3136,-3.3136,-3.3136,-3.3136,-3.3136,-3.3136,-3.3136,-3.3136,-3.3068,-3.3025,-3.2939,-3.2723,-3.2463,-3.2245,-3.2025,-3.168,-3.1452,-3.0995,-3.0663,-3.0783,-3.0995,-3.0995,-3.0946,-3.035,-2.9797,-2.9629,-2.946,-2.9148,-2.9003,-2.9124,-2.9076,-2.8979,-2.8931,-2.8811,-2.8691,-2.8595,-2.8522,-2.8522,-2.8522,-2.8522,-2.8522,-2.8522,-2.8522,-2.8522,-2.8522,-2.8522,-2.8522,-2.8522,-2.8522,-2.8522,-2.8522,-4.1021,-4.1172,-4.0945,-4.0943,-4.1169,-4.1065,-4.1143,-4.1246,-4.1219,-4.1193,-4.1117,-4.0517,-4.036,-4.0256,-3.9838,-3.941,-3.9039,-3.8434,-3.8009,-3.7537,-3.6922,-3.681,-3.6713,-3.664,-3.6687,-3.6546,-3.6546,-3.6687,-3.6405,-3.6405,-3.6405,-3.6405,-3.6405,-3.6405,-3.6204,-3.5855,-3.5278,-3.47,-3.4098,-3.352,-3.3194,-3.3136,-3.3136,-3.3136,-3.3136,-3.3136,-3.3136,-3.3136,-3.3136,-3.3136,-3.3136,-3.3136,-3.3136,-3.3136,-3.3136,-3.3136,-3.3136,-3.3136,-3.3136,-3.3136,-3.3136,-3.3136,-3.3136,-3.3136,-3.3136,-3.3136,-3.3136,-3.3136,-3.3136,-3.3136,-3.3136,-3.3136,-3.3136,-3.3068,-3.3025,-3.281,-3.2506,-3.2288,-3.2069,-3.1845,-3.1713,-3.1452,-3.1404,-3.1428,-3.1235,-3.1332,-3.1308,-3.1067,-3.0518,-3.0206,-3.0037,-2.9845,-2.9773,-2.9917,-2.9797,-2.9484,-2.9388,-2.9316,-2.8907,-2.8739,-2.8643,-2.857,-2.8522,-2.8522,-2.8522,-2.8522,-2.8522,-2.8522,-2.8522,-2.8522,-2.8522,-2.8522,-2.8522,-2.8522,-2.8522,-4.0102,-4.0126,-3.9589,-3.9556,-3.9777,-3.9803,-4.0109,-4.0543,-4.0278,-4.0095,-4.0069,-3.9719,-3.9518,-3.9492,-3.9143,-3.864,-3.8165,-3.7766,-3.7318,-3.6849,-3.6553,-3.6455,-3.6405,-3.6405,-3.6405,-3.6405,-3.6405,-3.6405,-3.6405,-3.6405,-3.6405,-3.6405,-3.6405,-3.6405,-3.6355,-3.6254,-3.5529,-3.4851,-3.4223,-3.3671,-3.3244,-3.3136,-3.3136,-3.3136,-3.3136,-3.3136,-3.3136,-3.3136,-3.3136,-3.3136,-3.3136,-3.3136,-3.3136,-3.3136,-3.3136,-3.3136,-3.3136,-3.3136,-3.3136,-3.3136,-3.3136,-3.3136,-3.3136,-3.3136,-3.3136,-3.3136,-3.3136,-3.3136,-3.3136,-3.3136,-3.3068,-3.3068,-3.3025,-3.3025,-3.2939,-3.268,-3.2419,-3.2245,-3.2025,-3.1893,-3.1761,-3.1717,-3.1717,-3.1669,-3.1524,-3.1645,-3.1621,-3.1428,-3.1235,-3.0874,-3.0657,-3.0446,-3.035,-3.0446,-3.023,-2.9917,-2.9893,-2.9797,-2.9388,-2.9076,-2.9027,-2.8931,-2.8643,-2.8522,-2.8522,-2.8522,-2.8522,-2.8522,-2.8522,-2.8522,-2.8522,-2.8522,-2.8522,-2.8522,-2.8522,-3.9263,-3.9261,-3.8856,-3.8751,-3.8871,-3.8788,-3.9036,-3.9366,-3.9336,-3.931,-3.921,-3.8884,-3.8733,-3.8633,-3.828,-3.7807,-3.7289,-3.7238,-3.6919,-3.6603,-3.6405,-3.6405,-3.6405,-3.6405,-3.6405,-3.6405,-3.6405,-3.6405,-3.6405,-3.6405,-3.6405,-3.6405,-3.6405,-3.6405,-3.6405,-3.6304,-3.573,-3.5002,-3.4349,-3.3796,-3.337,-3.3136,-3.3136,-3.3136,-3.3136,-3.3136,-3.3136,-3.3136,-3.3136,-3.3136,-3.3136,-3.3136,-3.3136,-3.3136,-3.3136,-3.3136,-3.3136,-3.3136,-3.3136,-3.3136,-3.3136,-3.3136,-3.3136,-3.3136,-3.3136,-3.3136,-3.3136,-3.3136,-3.3136,-3.3111,-3.3068,-3.3025,-3.2982,-3.2939,-3.2723,-3.255,-3.2332,-3.2157,-3.1981,-3.1893,-3.1805,-3.1717,-3.1717,-3.1717,-3.1717,-3.1717,-3.1717,-3.1645,-3.1524,-3.138,-3.1211,-3.1067,-3.097,-3.0879,-3.0681,-3.0513,-3.0422,-3.0278,-2.9917,-2.9653,-2.9532,-2.922,-2.8883,-2.8667,-2.8522,-2.8522,-2.8522,-2.8522,-2.8522,-2.8522,-2.857,-2.8643,-2.8643,-2.8619,-2.8595,-3.843,-3.8625,-3.838,-3.8206,-3.8206,-3.7964,-3.7881,-3.7932,-3.8316,-3.862,-3.8492,-3.8108,-3.7928,-3.7804,-3.7402,-3.7079,-3.6814,-3.6767,-3.672,-3.6405,-3.6405,-3.6405,-3.6405,-3.6405,-3.6405,-3.6405,-3.6405,-3.6405,-3.6405,-3.6405,-3.6405,-3.6405,-3.6405,-3.6405,-3.6405,-3.6207,-3.5655,-3.4876,-3.4424,-3.3997,-3.3363,-3.3136,-3.3136,-3.3136,-3.3136,-3.3136,-3.3136,-3.3136,-3.3136,-3.3136,-3.3136,-3.3136,-3.3136,-3.3136,-3.3136,-3.3136,-3.3136,-3.3136,-3.3136,-3.3136,-3.3136,-3.3136,-3.3136,-3.3136,-3.3136,-3.3136,-3.3136,-3.3136,-3.3136,-3.3025,-3.2982,-3.2853,-3.281,-3.2723,-3.255,-3.2419,-3.2313,-3.2138,-3.1937,-3.1849,-3.1761,-3.1717,-3.1717,-3.1717,-3.1717,-3.1717,-3.1717,-3.1717,-3.1693,-3.1645,-3.1573,-3.15,-3.1404,-3.1284,-3.1284,-3.1139,-3.0975,-3.0759,-3.0422,-3.023,-3.011,-2.9677,-2.9124,-2.8907,-2.8691,-2.8546,-2.8522,-2.8522,-2.8522,-2.8522,-2.8595,-2.8763,-2.8787,-2.8715,-2.8811,-3.7533,-3.7531,-3.7245,-3.7045,-3.6925,-3.6988,-3.6963,-3.6821,-3.6922,-3.7238,-3.7398,-3.7202,-3.7057,-3.7057,-3.6789,-3.6546,-3.6546,-3.6499,-3.6452,-3.6405,-3.6405,-3.6405,-3.6405,-3.6405,-3.6405,-3.6405,-3.6405,-3.6405,-3.6405,-3.6405,-3.6405,-3.6405,-3.6405,-3.6405,-3.638,-3.6081,-3.5382,-3.4705,-3.4299,-3.3872,-3.3262,-3.3136,-3.3136,-3.3136,-3.3136,-3.3136,-3.3136,-3.3136,-3.3136,-3.3136,-3.3136,-3.3136,-3.3136,-3.3136,-3.3136,-3.3136,-3.3136,-3.3136,-3.3136,-3.3136,-3.3136,-3.3111,-3.3068,-3.3111,-3.3136,-3.3136,-3.3093,-3.3093,-3.3068,-3.2939,-3.2853,-3.2723,-3.2636,-3.2506,-3.2376,-3.2313,-3.2269,-3.2094,-3.1893,-3.1805,-3.1717,-3.1717,-3.1717,-3.1717,-3.1717,-3.1717,-3.1717,-3.1717,-3.1717,-3.1693,-3.1669,-3.1621,-3.1645,-3.1597,-3.1645,-3.1597,-3.1404,-3.1259,-3.0951,-3.0783,-3.0663,-3.011,-2.9556,-2.9172,-2.8907,-2.8763,-2.8643,-2.8522,-2.8522,-2.8522,-2.857,-2.8691,-2.8835,-2.8835,-2.9003,-3.6857,-3.6832,-3.6625,-3.6499,-3.6452,-3.6546,-3.6499,-3.6405,-3.6405,-3.6546,-3.6734,-3.664,-3.6593,-3.6593,-3.6452,-3.6405,-3.6405,-3.6405,-3.6405,-3.6405,-3.6405,-3.6405,-3.6405,-3.6405,-3.6405,-3.6405,-3.6405,-3.6405,-3.6405,-3.6405,-3.6405,-3.6405,-3.6405,-3.6405,-3.6329,-3.583,-3.5207,-3.468,-3.4173,-3.3621,-3.3162,-3.3136,-3.3136,-3.3136,-3.3136,-3.3136,-3.3136,-3.3136,-3.3136,-3.3136,-3.3136,-3.3136,-3.3136,-3.3136,-3.3136,-3.3136,-3.3136,-3.3136,-3.3136,-3.3136,-3.3136,-3.3111,-3.2939,-3.2896,-3.2853,-3.2853,-3.281,-3.281,-3.2853,-3.281,-3.2593,-3.2463,-3.2332,-3.2225,-3.2069,-3.1981,-3.1937,-3.1893,-3.1805,-3.1761,-3.1717,-3.1717,-3.1717,-3.1717,-3.1717,-3.1717,-3.1717,-3.1717,-3.1717,-3.1717,-3.1717,-3.1717,-3.1717,-3.1717,-3.1693,-3.1693,-3.1645,-3.1524,-3.1404,-3.1144,-3.0855,-3.0422,-2.9965,-2.9653,-2.9316,-2.9027,-2.8883,-2.8739,-2.8546,-2.8522,-2.8546,-2.8619,-2.8763,-2.8907,-2.9027,-3.643,-3.6405,-3.6405,-3.6405,-3.6405,-3.6405,-3.6405,-3.6405,-3.6405,-3.6405,-3.6452,-3.6452,-3.6405,-3.6405,-3.6405,-3.6405,-3.6405,-3.6405,-3.6405,-3.6405,-3.6405,-3.6405,-3.6405,-3.6405,-3.6405,-3.6405,-3.6405,-3.6405,-3.6405,-3.6405,-3.6405,-3.6405,-3.6405,-3.6405,-3.6182,-3.573,-3.5082,-3.4625,-3.4098,-3.3545,-3.3287,-3.3136,-3.3136,-3.3136,-3.3136,-3.3136,-3.3136,-3.3136,-3.3136,-3.3136,-3.3136,-3.3136,-3.3136,-3.3136,-3.3136,-3.3136,-3.3136,-3.3136,-3.3136,-3.3136,-3.3136,-3.3025,-3.2853,-3.2698,-3.268,-3.2593,-3.2593,-3.255,-3.2593,-3.255,-3.2332,-3.2201,-3.2094,-3.2006,-3.1849,-3.1761,-3.1761,-3.1761,-3.1717,-3.1717,-3.1717,-3.1717,-3.1717,-3.1717,-3.1717,-3.1717,-3.1717,-3.1717,-3.1717,-3.1717,-3.1717,-3.1717,-3.1717,-3.1717,-3.1717,-3.1717,-3.1717,-3.1669,-3.1548,-3.1356,-3.1072,-3.0711,-3.0422,-3.0206,-2.9869,-2.9508,-2.922,-2.9051,-2.8859,-2.8691,-2.8546,-2.8595,-2.8763,-2.8907,-2.9003,-3.6405,-3.6405,-3.6405,-3.6405,-3.6405,-3.6405,-3.6405,-3.6405,-3.6405,-3.6405,-3.6405,-3.6405,-3.6405,-3.6405,-3.6405,-3.6405,-3.6405,-3.6405,-3.6405,-3.6405,-3.6405,-3.6405,-3.6405,-3.6405,-3.6405,-3.6405,-3.6405,-3.6405,-3.6405,-3.6405,-3.6405,-3.6405,-3.6405,-3.6355,-3.6157,-3.5579,-3.4851,-3.4399,-3.3822,-3.3262,-3.3237,-3.3136,-3.3136,-3.3136,-3.3136,-3.3136,-3.3136,-3.3136,-3.3136,-3.3136,-3.3136,-3.3136,-3.3136,-3.3136,-3.3136,-3.3136,-3.3136,-3.3136,-3.3136,-3.3136,-3.3136,-3.3068,-3.2896,-3.2723,-3.2636,-3.2463,-3.2376,-3.2201,-3.2245,-3.2288,-3.2113,-3.2069,-3.1962,-3.1849,-3.1717,-3.1717,-3.1717,-3.1717,-3.1717,-3.1717,-3.1717,-3.1717,-3.1717,-3.1717,-3.1717,-3.1717,-3.1717,-3.1717,-3.1717,-3.1717,-3.1717,-3.1717,-3.1717,-3.1717,-3.1717,-3.1717,-3.1717,-3.1717,-3.1693,-3.1548,-3.1356,-3.1115,-3.0807,-3.0687,-3.0374,-2.9989,-2.9725,-2.9508,-2.9292,-2.9124,-2.8691,-2.8595,-2.8763,-2.8907,-2.9027]},{"header":{"parameterUnit":"m.s-1","parameterCategory":1,"la1":31.0,"la2":29.5877,"lo1":-88.7671,"lo2":-86.6584,"dy":0.0162,"dx":0.0185,"nx":115,"ny":88,"refTime":"2026-03-20T00:00:00:Z","depth":0,"parameterNumber":3,"parameterNumberName":"V-component_of_WINDS"},"data":[0.0,0.0,0.0,0.0,0.0,0.0,0.0,0.0,0.0,0.0,0.0,0.0,0.0,0.0,0.0,0.0,0.0,0.0,0.0,0.0,0.0,0.0,0.0,0.0,0.0,0.0,0.0,0.0,0.0,0.0,0.0,0.0,0.0,0.0,0.0,0.0,0.0,0.0,0.0,0.0,0.0,0.0,0.0,0.0,0.0,0.0,0.0,0.0,0.0,0.0,0.0,0.0,0.0,0.0,0.0,0.0,0.0,0.0,0.0,0.0,0.0,0.0,0.0,0.0,0.0,0.0,0.0,0.0,0.0,0.0,0.0,0.0,0.0,0.0,0.0,0.0,0.0,0.0,0.0,0.0,0.0,0.0,0.0,0.0,0.0,0.0,0.0,0.0,0.0,0.0,0.0,0.0,0.0,0.0,0.0,0.0,0.0,0.0,0.0,0.0,0.0,0.0,0.0,0.0,0.0,0.0,0.0,0.0,0.0,0.0,0.0,0.0,0.0,0.0,0.0,0.0,0.0,0.0,0.0,0.0,0.0,0.0,0.0,0.0,0.0,0.0,0.0,0.0,0.0,0.0,0.0,0.0,0.0,0.0,0.0,0.0,0.0,0.0,0.0,0.0,0.0,0.0,0.0,0.0,0.0,0.0,0.0,0.0,0.0,0.0,0.0,0.0,0.0,0.0,0.0,0.0,0.0,0.0,0.0,0.0,0.0,0.0,0.0,0.0,0.0,0.0,0.0,0.0,0.0,0.0,0.0,0.0,0.0,0.0,0.0,0.0,0.0,0.0,0.0,0.0,0.0,0.0,0.0,0.0,0.0,0.0,0.0,0.0,0.0,0.0,0.0,0.0,0.0,0.0,0.0,0.0,0.0,0.0,0.0,0.0,0.0,0.0,0.0,0.0,0.0,0.0,0.0,0.0,0.0,0.0,0.0,0.0,0.0,0.0,0.0,0.0,0.0,0.0,0.0,0.0,0.0,0.0,0.0,0.0,0.0,0.0,0.0,0.0,0.0,0.0,0.0,0.0,0.0,0.0,0.0,0.0,0.0,0.0,0.0,0.0,0.0,0.0,0.0,0.0,0.0,0.0,0.0,0.0,0.0,0.0,0.0,0.0,0.0,0.0,0.0,0.0,0.0,0.0,0.0,0.0,0.0,0.0,0.0,0.0,0.0,0.0,0.0,0.0,0.0,0.0,0.0,0.0,0.0,0.0,0.0,0.0,0.0,0.0,0.0,0.0,0.0,0.0,0.0,0.0,0.0,0.0,0.0,0.0,0.0,0.0,0.0,0.0,0.0,0.0,0.0,0.0,0.0,0.0,0.0,0.0,0.0,0.0,0.0,0.0,0.0,0.0,0.0,0.0,0.0,0.0,0.0,0.0,0.0,0.0,0.0,0.0,0.0,0.0,0.0,0.0,0.0,0.0,0.0,0.0,0.0,0.0,0.0,0.0,0.0,0.0,0.0,0.0,0.0,0.0,0.0,0.0,0.0,0.0,0.0,0.0,0.0,0.0,0.0,0.0,0.0,0.0,0.0,0.0,0.0,0.0,0.0,0.0,0.0,0.0,0.0,0.0,0.0,0.0,0.0,0.0,0.0,0.0,0.0,0.0,0.0,0.0,0.0,0.0,0.0,0.0,0.0,0.0,0.0,0.0,0.0,0.0,0.0,0.0,0.0,0.0,0.0,0.0,0.0,0.0,0.0,0.0,0.0,0.0,0.0,0.0,0.0,0.0,0.0,0.0,0.0,0.0,0.0,0.0,0.0,0.0,0.0,0.0,0.0,0.0,0.0,0.0,0.0,0.0,0.0,0.0,0.0,0.0,0.0,0.0,0.0,0.0,0.0,0.0,0.0,0.0,0.0,0.0,0.0,0.0,0.0,0.0,0.0,0.0,0.0,0.0,0.0,0.0,0.0,0.0,0.0,0.0,0.0,0.0,0.0,0.0,0.0,0.0,0.0,0.0,0.0,0.0,0.0,0.0,0.0,0.0,0.0,0.0,0.0,0.0,0.0,0.0,0.0,0.0,0.0,0.0,0.0,0.0,0.0,0.0,0.0,0.0,0.0,0.0,0.0,0.0,0.0,0.0,0.0,0.0,0.0,0.0,0.0,0.0,0.0,0.0,0.0,0.0,0.0,0.0,0.0,0.0,0.0,0.0,0.0,0.0,0.0,0.0,0.0,0.0,0.0,0.0,0.0,0.0,0.0,0.0,0.0,0.0,0.0,0.0,0.0,0.0,0.0,0.0,0.0,0.0,0.0,0.0,0.0,0.0,0.0,0.0,0.0,0.0,0.0,0.0,0.0,0.0,0.0,0.0,0.0,0.0,0.0,0.0,0.0,0.0,0.0,0.0,0.0,0.0,0.0,0.0,0.0,0.0,0.0,0.0,0.0,0.0,0.0,0.0,0.0,0.0,0.0,0.0,0.0,0.0,0.0,0.0,0.0,0.0,0.0,0.0,0.0,0.0,0.0,0.0,0.0,0.0,0.0,0.0,0.0,0.0,0.0,0.0,0.0,0.0,0.0,0.0,0.0,0.0,0.0,0.0,0.0,0.0,0.0,0.0,0.0,0.0,0.0,0.0,0.0,0.0,0.0,0.0,0.0,0.0,0.0,0.0,0.0,0.0,0.0,0.0,0.0,0.0,0.0,0.0,0.0,0.0,0.0,0.0,0.0,0.0,0.0,0.0,0.0,0.0,0.0,0.0,0.0,0.0,0.0,0.0,0.0,0.0,0.0,0.0,0.0,0.0,0.0,0.0,0.0,0.0,0.0,0.0,0.0,0.0,0.0,0.0,0.0,0.0,0.0,0.0,0.0,0.0,0.0,0.0,0.0,0.0,0.0,0.0,0.0,0.0,0.0,0.0,0.0,0.0,0.0,0.0,0.0,0.0,0.0,0.0,0.0,0.0,0.0,0.0,0.0,0.0,0.0,0.0,0.0,0.0,0.0,0.0,0.0,0.0,0.0,0.0,0.0,0.0,0.0,0.0,0.0,0.0,0.0,0.0,0.0,0.0,0.0,0.0,0.0,0.0,0.0,0.0,0.0,0.0,0.0,0.0,0.0,0.0,0.0,0.0,0.0,0.0,0.0,0.0,0.0,0.0,0.0,0.0,0.0,0.0,0.0,0.0,0.0,0.0,0.0,0.0,0.0,0.0,0.0,0.0,0.0,0.0,0.0,0.0,0.0,0.0,0.0,0.0,0.0,0.0,0.0,0.0,0.0,0.0,0.0,0.0,0.0,0.0,0.0,0.0,0.0,0.0,0.0,0.0,0.0,0.0,0.0,0.0,0.0,0.0,0.0,0.0,0.0,0.0,0.0,0.0,0.0,0.0,0.0,0.0,0.0,0.0,0.0,0.0,0.0,0.0,0.0,0.0,0.0,0.0,0.0,0.0,0.0,0.0,0.0,0.0,0.0,0.0,0.0,0.0,0.0,0.0,0.0,0.0,0.0,0.0,0.0,0.0,0.0,0.0,0.0,0.0,0.0,0.0,0.0,0.0,0.0,0.0,0.0,0.0,0.0,0.0,0.0,0.0,0.0,0.0,0.0,0.0,0.0,0.0,0.0,0.0,0.0,0.0,0.0,0.0,0.0,0.0,0.0,0.0,0.0,0.0,0.0,0.0,0.0,0.0,0.0,0.0,0.0,0.0,0.0,0.0,0.0,0.0,0.0,0.0,0.0,0.0,0.0,0.0,0.0,0.0,0.0,0.0,0.0,0.0,0.0,0.0,0.0,0.0,0.0,0.0,0.0,0.0,0.0,0.0,0.0,0.0,0.0,0.0,0.0,0.0,0.0,0.0,0.0,0.0,0.0,0.0,0.0,0.0,0.0,0.0,0.0,0.0,0.0,0.0,0.0,0.0,0.0,0.0,0.0,0.0,0.0,0.0,0.0,0.0,0.0,0.0,0.0,0.0,0.0,0.0,0.0,0.0,0.0,0.0,0.0,0.0,0.0,0.0,0.0,0.0,0.0,0.0,0.0,0.0,0.0,0.0,0.0,0.0,0.0,0.0,0.0,0.0,0.0,0.0,0.0,0.0,0.0,0.0,0.0,0.0,0.0,0.0,0.0,0.0,0.0,0.0,0.0,0.0,0.0,0.0,0.0,0.0,0.0,0.0,0.0,0.0,0.0,0.0,0.0,0.0,0.0,0.0,0.0,0.0,0.0,0.0,0.0,0.0,0.0,0.0,0.0,0.0,0.0,0.0,0.0,0.0,0.0,0.0,0.0,0.0,0.0,0.0,0.0,0.0,0.0,0.0,0.0,0.0,-1.7838,0.0,0.0,0.0,0.0,0.0,0.0,0.0,0.0,0.0,0.0,0.0,0.0,0.0,0.0,0.0,0.0,0.0,0.0,0.0,0.0,0.0,0.0,0.0,0.0,0.0,0.0,0.0,0.0,0.0,0.0,0.0,0.0,0.0,0.0,0.0,0.0,0.0,0.0,0.0,0.0,0.0,0.0,0.0,0.0,0.0,0.0,0.0,0.0,0.0,0.0,0.0,0.0,0.0,0.0,0.0,0.0,0.0,0.0,0.0,0.0,0.0,0.0,0.0,0.0,0.0,0.0,0.0,0.0,0.0,0.0,0.0,0.0,0.0,0.0,0.0,0.0,0.0,0.0,0.0,0.0,0.0,0.0,0.0,0.0,0.0,0.0,0.0,0.0,0.0,0.0,0.0,0.0,0.0,0.0,0.0,0.0,0.0,0.0,0.0,0.0,0.0,0.0,0.0,0.0,0.0,0.0,0.0,0.0,0.0,0.0,-2.0998,-2.0774,-2.0062,-1.9685,-1.975,0.0,0.0,0.0,0.0,0.0,0.0,0.0,0.0,0.0,0.0,0.0,0.0,0.0,0.0,0.0,0.0,0.0,0.0,0.0,0.0,0.0,0.0,0.0,0.0,0.0,0.0,0.0,0.0,0.0,0.0,0.0,0.0,0.0,0.0,0.0,0.0,0.0,0.0,0.0,0.0,0.0,0.0,0.0,0.0,0.0,0.0,0.0,0.0,0.0,0.0,0.0,0.0,0.0,0.0,0.0,0.0,0.0,0.0,0.0,0.0,0.0,0.0,0.0,0.0,0.0,0.0,0.0,0.0,0.0,0.0,0.0,0.0,0.0,0.0,0.0,0.0,0.0,0.0,0.0,0.0,0.0,0.0,0.0,0.0,0.0,0.0,0.0,0.0,0.0,0.0,0.0,0.0,0.0,0.0,0.0,0.0,0.0,0.0,0.0,0.0,0.0,0.0,0.0,0.0,0.0,0.0,0.0,0.0,0.0,0.0,0.0,0.0,-2.1577,-2.1131,-2.1371,0.0,0.0,0.0,0.0,0.0,0.0,0.0,0.0,0.0,0.0,0.0,0.0,0.0,0.0,0.0,0.0,0.0,0.0,0.0,0.0,0.0,0.0,0.0,0.0,0.0,0.0,0.0,0.0,0.0,0.0,0.0,0.0,0.0,0.0,0.0,0.0,0.0,0.0,0.0,0.0,0.0,0.0,0.0,0.0,0.0,0.0,0.0,0.0,0.0,0.0,0.0,0.0,0.0,0.0,0.0,0.0,0.0,0.0,0.0,0.0,0.0,0.0,0.0,0.0,0.0,0.0,0.0,0.0,0.0,0.0,0.0,0.0,0.0,0.0,0.0,0.0,0.0,0.0,0.0,0.0,0.0,0.0,0.0,0.0,0.0,0.0,0.0,0.0,0.0,0.0,0.0,0.0,0.0,0.0,0.0,0.0,0.0,0.0,0.0,0.0,0.0,0.0,0.0,0.0,0.0,0.0,0.0,0.0,0.0,0.0,-2.3269,-2.3066,-2.2946,0.0,-2.1566,0.0,0.0,0.0,0.0,0.0,0.0,0.0,0.0,0.0,0.0,0.0,0.0,0.0,0.0,0.0,0.0,0.0,0.0,0.0,0.0,0.0,0.0,0.0,0.0,0.0,0.0,0.0,0.0,0.0,0.0,0.0,0.0,0.0,0.0,0.0,0.0,0.0,0.0,0.0,0.0,0.0,0.0,0.0,0.0,0.0,0.0,0.0,0.0,0.0,0.0,0.0,0.0,0.0,0.0,0.0,0.0,0.0,0.0,0.0,0.0,0.0,0.0,0.0,0.0,0.0,0.0,0.0,0.0,0.0,0.0,0.0,0.0,0.0,0.0,0.0,0.0,0.0,0.0,0.0,0.0,0.0,0.0,0.0,0.0,0.0,0.0,0.0,0.0,0.0,0.0,0.0,0.0,0.0,0.0,0.0,0.0,0.0,0.0,0.0,0.0,0.0,0.0,0.0,0.0,0.0,0.0,0.0,0.0,0.0,0.0,-2.4892,-2.5056,-2.4542,-2.3639,0.0,0.0,0.0,0.0,0.0,0.0,0.0,0.0,0.0,0.0,0.0,0.0,0.0,0.0,0.0,0.0,0.0,0.0,0.0,0.0,0.0,0.0,0.0,0.0,0.0,0.0,0.0,0.0,0.0,0.0,0.0,0.0,0.0,0.0,0.0,0.0,0.0,0.0,0.0,0.0,0.0,0.0,0.0,0.0,0.0,0.0,0.0,0.0,0.0,0.0,0.0,0.0,0.0,0.0,0.0,0.0,0.0,0.0,0.0,0.0,0.0,0.0,0.0,0.0,0.0,0.0,0.0,0.0,0.0,0.0,0.0,0.0,0.0,0.0,0.0,0.0,0.0,0.0,0.0,0.0,0.0,0.0,0.0,0.0,0.0,0.0,0.0,0.0,0.0,0.0,0.0,0.0,0.0,0.0,0.0,0.0,0.0,0.0,0.0,0.0,0.0,0.0,0.0,0.0,0.0,0.0,0.0,0.0,0.0,0.0,-2.5918,-2.625,-2.6504,-2.582,-2.4726,-2.3131,0.0,0.0,0.0,0.0,0.0,0.0,0.0,0.0,0.0,0.0,0.0,0.0,0.0,0.0,0.0,0.0,0.0,0.0,0.0,0.0,0.0,0.0,0.0,0.0,0.0,0.0,0.0,0.0,0.0,0.0,0.0,0.0,0.0,0.0,0.0,0.0,0.0,0.0,0.0,0.0,0.0,0.0,0.0,0.0,0.0,0.0,0.0,0.0,0.0,0.0,0.0,0.0,0.0,0.0,0.0,0.0,0.0,0.0,0.0,0.0,0.0,0.0,0.0,0.0,0.0,0.0,0.0,0.0,0.0,0.0,0.0,0.0,0.0,0.0,0.0,0.0,0.0,0.0,0.0,0.0,0.0,0.0,0.0,0.0,0.0,0.0,0.0,0.0,0.0,0.0,0.0,0.0,0.0,0.0,0.0,0.0,0.0,0.0,0.0,0.0,0.0,0.0,0.0,0.0,0.0,0.0,0.0,0.0,-2.6816,-2.6894,-2.6953,-2.6992,-2.6562,-2.5547,0.0,0.0,0.0,0.0,0.0,0.0,0.0,0.0,0.0,0.0,0.0,0.0,0.0,0.0,0.0,0.0,0.0,0.0,0.0,0.0,0.0,0.0,0.0,0.0,0.0,0.0,0.0,0.0,0.0,0.0,0.0,0.0,0.0,0.0,0.0,0.0,0.0,0.0,0.0,0.0,0.0,0.0,0.0,0.0,0.0,0.0,0.0,0.0,0.0,0.0,0.0,0.0,0.0,0.0,0.0,0.0,0.0,0.0,0.0,0.0,0.0,0.0,0.0,0.0,0.0,0.0,0.0,0.0,0.0,0.0,0.0,0.0,0.0,0.0,0.0,0.0,0.0,0.0,0.0,0.0,0.0,0.0,0.0,0.0,0.0,0.0,0.0,0.0,0.0,0.0,0.0,0.0,0.0,0.0,0.0,0.0,0.0,0.0,0.0,0.0,0.0,0.0,0.0,0.0,0.0,0.0,0.0,0.0,0.0,-2.4941,-2.5488,-2.6426,-2.7695,-2.582,-2.4824,0.0,0.0,0.0,0.0,0.0,0.0,0.0,0.0,0.0,0.0,0.0,0.0,0.0,0.0,0.0,0.0,0.0,0.0,0.0,0.0,0.0,0.0,0.0,0.0,0.0,0.0,0.0,0.0,0.0,0.0,0.0,0.0,0.0,0.0,0.0,0.0,0.0,0.0,0.0,0.0,0.0,0.0,0.0,0.0,0.0,0.0,0.0,0.0,0.0,0.0,0.0,0.0,0.0,0.0,0.0,0.0,0.0,0.0,0.0,0.0,0.0,0.0,0.0,0.0,0.0,0.0,0.0,0.0,0.0,0.0,0.0,0.0,0.0,0.0,0.0,0.0,0.0,0.0,0.0,0.0,0.0,0.0,0.0,0.0,0.0,0.0,0.0,0.0,0.0,0.0,0.0,0.0,0.0,0.0,0.0,0.0,0.0,0.0,0.0,0.0,0.0,0.0,0.0,0.0,0.0,0.0,0.0,0.0,0.0,-2.4824,0.0,-2.6328,-2.7519,-2.543,-2.4297,0.0,0.0,0.0,0.0,0.0,0.0,0.0,0.0,0.0,0.0,0.0,0.0,0.0,0.0,0.0,0.0,0.0,0.0,0.0,0.0,0.0,0.0,0.0,0.0,0.0,0.0,0.0,0.0,0.0,0.0,0.0,0.0,0.0,0.0,0.0,0.0,0.0,0.0,0.0,0.0,0.0,0.0,0.0,0.0,0.0,0.0,0.0,0.0,0.0,0.0,0.0,0.0,0.0,0.0,0.0,0.0,0.0,0.0,0.0,0.0,0.0,0.0,0.0,0.0,0.0,0.0,0.0,0.0,0.0,0.0,0.0,0.0,0.0,0.0,0.0,0.0,0.0,0.0,0.0,0.0,0.0,0.0,0.0,0.0,0.0,0.0,0.0,0.0,0.0,0.0,0.0,0.0,0.0,0.0,0.0,0.0,0.0,0.0,0.0,0.0,0.0,0.0,0.0,0.0,0.0,0.0,0.0,0.0,-2.4824,-2.6816,-2.6914,-2.6777,-2.6426,-2.5556,-2.4127,0.0,0.0,0.0,0.0,0.0,0.0,0.0,0.0,0.0,0.0,0.0,0.0,0.0,0.0,0.0,0.0,0.0,0.0,0.0,0.0,0.0,0.0,0.0,0.0,0.0,0.0,0.0,0.0,0.0,0.0,0.0,0.0,0.0,0.0,0.0,0.0,0.0,0.0,0.0,0.0,0.0,0.0,0.0,0.0,0.0,0.0,0.0,0.0,0.0,0.0,0.0,0.0,0.0,0.0,0.0,0.0,0.0,0.0,0.0,0.0,0.0,0.0,0.0,0.0,0.0,0.0,0.0,0.0,0.0,0.0,0.0,0.0,0.0,0.0,0.0,0.0,0.0,0.0,0.0,0.0,0.0,0.0,0.0,0.0,0.0,0.0,0.0,0.0,0.0,0.0,0.0,0.0,0.0,0.0,0.0,0.0,0.0,0.0,0.0,0.0,0.0,0.0,0.0,0.0,0.0,0.0,0.0,0.0,0.0,-2.5215,-2.582,-2.6621,-2.7578,-2.541,-2.4297,0.0,0.0,0.0,0.0,0.0,0.0,0.0,0.0,0.0,0.0,0.0,0.0,0.0,0.0,0.0,0.0,0.0,0.0,0.0,0.0,0.0,0.0,0.0,0.0,0.0,0.0,0.0,0.0,0.0,0.0,0.0,0.0,0.0,0.0,0.0,0.0,0.0,0.0,0.0,0.0,0.0,0.0,0.0,0.0,0.0,0.0,0.0,0.0,0.0,0.0,0.0,0.0,0.0,0.0,0.0,0.0,0.0,0.0,0.0,0.0,0.0,0.0,0.0,0.0,0.0,0.0,0.0,0.0,0.0,0.0,0.0,0.0,0.0,0.0,0.0,0.0,0.0,0.0,0.0,0.0,0.0,0.0,0.0,0.0,0.0,0.0,0.0,0.0,0.0,0.0,0.0,0.0,0.0,0.0,0.0,0.0,0.0,0.0,0.0,0.0,0.0,0.0,0.0,0.0,0.0,0.0,0.0,0.0,0.0,-2.5898,-2.6719,-2.7519,-2.8262,-2.5996,-2.4824,-2.4961,0.0,0.0,0.0,0.0,0.0,0.0,0.0,0.0,0.0,0.0,0.0,0.0,0.0,0.0,0.0,0.0,0.0,0.0,0.0,0.0,0.0,0.0,0.0,0.0,0.0,0.0,0.0,0.0,0.0,0.0,0.0,0.0,0.0,0.0,0.0,0.0,0.0,0.0,0.0,0.0,0.0,0.0,0.0,0.0,0.0,0.0,0.0,0.0,0.0,0.0,0.0,0.0,0.0,0.0,0.0,0.0,0.0,0.0,0.0,0.0,0.0,0.0,0.0,0.0,0.0,0.0,0.0,0.0,0.0,0.0,0.0,0.0,0.0,0.0,0.0,0.0,0.0,0.0,0.0,0.0,0.0,0.0,0.0,0.0,0.0,0.0,0.0,0.0,0.0,0.0,0.0,0.0,0.0,0.0,0.0,0.0,0.0,0.0,0.0,0.0,0.0,0.0,0.0,0.0,0.0,0.0,0.0,0.0,-2.834,-2.9277,-2.9355,-2.8516,-2.7168,-2.5644,0.0,0.0,0.0,0.0,0.0,0.0,0.0,0.0,0.0,0.0,0.0,0.0,0.0,0.0,0.0,0.0,0.0,0.0,0.0,0.0,0.0,0.0,0.0,0.0,0.0,0.0,0.0,0.0,0.0,0.0,0.0,0.0,0.0,0.0,0.0,0.0,0.0,0.0,0.0,0.0,0.0,0.0,0.0,0.0,0.0,0.0,0.0,0.0,0.0,0.0,0.0,0.0,0.0,0.0,0.0,0.0,0.0,0.0,0.0,0.0,0.0,0.0,0.0,0.0,0.0,0.0,0.0,0.0,0.0,0.0,0.0,0.0,0.0,0.0,0.0,0.0,0.0,0.0,0.0,0.0,0.0,0.0,0.0,0.0,0.0,0.0,0.0,0.0,0.0,0.0,0.0,0.0,0.0,0.0,0.0,0.0,0.0,0.0,0.0,0.0,0.0,0.0,0.0,0.0,0.0,0.0,0.0,0.0,0.0,-2.9219,-3.0996,-3.1543,-3.0664,-2.8516,-2.666,0.0,0.0,0.0,0.0,0.0,0.0,0.0,0.0,0.0,0.0,0.0,0.0,0.0,0.0,0.0,0.0,0.0,0.0,0.0,0.0,0.0,0.0,0.0,0.0,0.0,0.0,0.0,0.0,0.0,0.0,0.0,0.0,0.0,0.0,0.0,0.0,0.0,0.0,0.0,0.0,0.0,0.0,0.0,0.0,0.0,0.0,0.0,0.0,0.0,0.0,0.0,0.0,0.0,0.0,0.0,0.0,0.0,0.0,0.0,0.0,0.0,0.0,0.0,0.0,0.0,0.0,0.0,0.0,0.0,0.0,0.0,0.0,0.0,0.0,0.0,0.0,0.0,0.0,0.0,0.0,0.0,0.0,0.0,0.0,0.0,0.0,0.0,0.0,0.0,0.0,0.0,0.0,0.0,0.0,0.0,0.0,0.0,0.0,0.0,0.0,0.0,0.0,0.0,0.0,0.0,0.0,0.0,0.0,-2.8476,-3.0371,-3.248,-3.3281,-3.2598,-3.0449,-2.834,0.0,0.0,0.0,0.0,0.0,0.0,0.0,0.0,0.0,0.0,0.0,0.0,0.0,0.0,0.0,0.0,0.0,0.0,0.0,0.0,0.0,0.0,0.0,0.0,0.0,0.0,0.0,0.0,0.0,0.0,0.0,0.0,0.0,0.0,0.0,0.0,0.0,0.0,0.0,0.0,0.0,0.0,0.0,0.0,0.0,0.0,0.0,0.0,0.0,0.0,0.0,0.0,0.0,0.0,0.0,0.0,0.0,0.0,0.0,0.0,0.0,0.0,0.0,0.0,0.0,0.0,0.0,0.0,0.0,0.0,0.0,0.0,0.0,0.0,0.0,0.0,0.0,0.0,0.0,0.0,0.0,0.0,0.0,0.0,0.0,0.0,0.0,0.0,0.0,0.0,0.0,0.0,0.0,0.0,0.0,0.0,0.0,0.0,0.0,0.0,0.0,0.0,0.0,0.0,0.0,0.0,0.0,0.0,-2.9434,-3.1621,-3.3652,-3.4512,-3.4101,-3.2402,-3.0059,0.0,0.0,0.0,0.0,0.0,0.0,0.0,0.0,0.0,0.0,0.0,0.0,0.0,0.0,0.0,0.0,0.0,0.0,0.0,0.0,0.0,0.0,0.0,0.0,0.0,0.0,0.0,0.0,0.0,0.0,0.0,0.0,0.0,0.0,0.0,0.0,0.0,0.0,0.0,0.0,0.0,0.0,0.0,0.0,0.0,0.0,0.0,0.0,0.0,0.0,0.0,0.0,0.0,0.0,0.0,0.0,0.0,0.0,0.0,0.0,0.0,0.0,0.0,0.0,0.0,0.0,0.0,0.0,0.0,0.0,0.0,0.0,0.0,0.0,0.0,0.0,0.0,0.0,0.0,0.0,0.0,0.0,0.0,0.0,0.0,0.0,0.0,0.0,0.0,0.0,0.0,0.0,0.0,0.0,0.0,0.0,0.0,0.0,0.0,0.0,0.0,0.0,0.0,0.0,0.0,0.0,0.0,0.0,-3.0,-3.2461,-3.3945,-3.4648,-3.4551,-3.2266,-2.9766,0.0,0.0,0.0,0.0,0.0,0.0,0.0,0.0,0.0,0.0,0.0,0.0,0.0,0.0,0.0,0.0,0.0,0.0,0.0,0.0,0.0,0.0,0.0,0.0,0.0,0.0,0.0,0.0,0.0,0.0,0.0,0.0,0.0,0.0,0.0,0.0,0.0,0.0,0.0,0.0,0.0,0.0,0.0,0.0,0.0,0.0,0.0,0.0,-2.9202,0.0,0.0,0.0,0.0,0.0,0.0,0.0,0.0,0.0,0.0,0.0,0.0,0.0,0.0,0.0,0.0,0.0,0.0,0.0,0.0,0.0,0.0,0.0,0.0,0.0,0.0,0.0,0.0,0.0,0.0,0.0,0.0,0.0,0.0,0.0,0.0,0.0,0.0,0.0,0.0,0.0,0.0,0.0,0.0,0.0,0.0,0.0,0.0,0.0,0.0,0.0,0.0,0.0,0.0,0.0,0.0,0.0,0.0,0.0,-3.0488,-3.3008,-3.3945,-3.4492,-3.4609,-3.274,-3.0425,0.0,0.0,0.0,0.0,0.0,0.0,0.0,0.0,0.0,0.0,0.0,0.0,0.0,0.0,0.0,0.0,0.0,0.0,0.0,0.0,0.0,0.0,0.0,0.0,0.0,0.0,0.0,0.0,0.0,0.0,0.0,0.0,0.0,0.0,0.0,0.0,0.0,0.0,0.0,0.0,0.0,0.0,0.0,0.0,0.0,0.0,0.0,0.0,0.0,0.0,0.0,0.0,0.0,0.0,0.0,0.0,0.0,0.0,0.0,0.0,0.0,0.0,0.0,0.0,0.0,0.0,0.0,0.0,0.0,0.0,0.0,0.0,0.0,0.0,0.0,0.0,0.0,0.0,0.0,0.0,0.0,0.0,0.0,0.0,0.0,0.0,0.0,0.0,0.0,0.0,0.0,0.0,0.0,0.0,0.0,0.0,0.0,0.0,0.0,0.0,0.0,0.0,0.0,0.0,0.0,0.0,0.0,-2.8354,-3.0723,-3.3398,-3.3887,-3.4303,-3.4636,-3.3319,-3.1384,-2.886,0.0,0.0,0.0,0.0,0.0,0.0,0.0,0.0,0.0,0.0,0.0,0.0,0.0,0.0,0.0,0.0,0.0,0.0,0.0,0.0,0.0,0.0,0.0,0.0,0.0,0.0,0.0,0.0,0.0,0.0,0.0,0.0,0.0,0.0,0.0,0.0,0.0,0.0,-2.8272,-2.9505,0.0,0.0,0.0,0.0,0.0,0.0,0.0,0.0,-2.988,0.0,0.0,0.0,0.0,0.0,0.0,0.0,0.0,0.0,0.0,0.0,0.0,0.0,0.0,0.0,0.0,0.0,0.0,0.0,0.0,0.0,0.0,0.0,0.0,0.0,0.0,0.0,0.0,0.0,0.0,0.0,0.0,0.0,0.0,0.0,0.0,0.0,0.0,0.0,0.0,0.0,0.0,0.0,0.0,0.0,0.0,0.0,0.0,0.0,0.0,0.0,0.0,0.0,0.0,0.0,0.0,-2.8534,-2.8584,-3.0273,-3.3848,-3.4023,-3.423,-3.4591,-3.3347,-3.1578,-2.9412,0.0,0.0,0.0,0.0,0.0,0.0,0.0,0.0,0.0,0.0,0.0,0.0,0.0,0.0,0.0,0.0,0.0,0.0,0.0,0.0,0.0,0.0,0.0,0.0,0.0,0.0,0.0,0.0,0.0,0.0,0.0,0.0,0.0,0.0,0.0,0.0,0.0,0.0,0.0,-3.2355,-3.2828,0.0,0.0,0.0,0.0,0.0,0.0,0.0,0.0,-2.993,0.0,0.0,0.0,0.0,0.0,0.0,0.0,0.0,0.0,0.0,0.0,0.0,0.0,0.0,0.0,0.0,0.0,0.0,0.0,0.0,0.0,0.0,0.0,0.0,0.0,0.0,0.0,0.0,0.0,0.0,0.0,0.0,0.0,0.0,0.0,0.0,0.0,0.0,0.0,0.0,0.0,0.0,0.0,0.0,0.0,0.0,0.0,0.0,0.0,0.0,0.0,0.0,0.0,0.0,0.0,-2.8388,-2.9809,-3.182,-3.4521,-3.4358,-3.4421,-3.4772,-3.2794,-3.1035,0.0,0.0,0.0,0.0,0.0,0.0,0.0,0.0,0.0,0.0,0.0,0.0,0.0,0.0,0.0,0.0,0.0,0.0,0.0,0.0,0.0,0.0,0.0,0.0,0.0,0.0,0.0,0.0,0.0,0.0,0.0,0.0,0.0,0.0,0.0,0.0,0.0,0.0,0.0,0.0,-3.2971,-3.3644,-3.478,0.0,0.0,0.0,0.0,0.0,0.0,-3.1135,-3.0884,0.0,0.0,0.0,0.0,0.0,0.0,0.0,0.0,0.0,0.0,0.0,0.0,0.0,0.0,0.0,0.0,0.0,0.0,0.0,0.0,0.0,0.0,0.0,0.0,0.0,0.0,0.0,0.0,0.0,0.0,0.0,0.0,0.0,0.0,0.0,0.0,0.0,0.0,0.0,0.0,0.0,0.0,0.0,0.0,0.0,0.0,0.0,0.0,0.0,0.0,0.0,0.0,0.0,0.0,0.0,-2.7774,-3.0616,-3.3014,-3.4725,-3.4463,-3.4463,-3.4891,-3.238,-3.0513,0.0,0.0,0.0,0.0,0.0,0.0,0.0,0.0,0.0,0.0,0.0,0.0,0.0,0.0,0.0,0.0,0.0,0.0,0.0,0.0,0.0,0.0,0.0,0.0,0.0,0.0,0.0,0.0,0.0,0.0,0.0,0.0,0.0,0.0,0.0,0.0,0.0,0.0,0.0,0.0,0.0,-3.4717,-3.6534,-3.4933,0.0,0.0,0.0,0.0,-3.2064,-3.2792,0.0,0.0,0.0,0.0,0.0,0.0,0.0,0.0,0.0,0.0,0.0,0.0,0.0,0.0,0.0,0.0,0.0,0.0,0.0,0.0,0.0,0.0,0.0,0.0,0.0,0.0,0.0,0.0,0.0,0.0,0.0,0.0,0.0,0.0,0.0,0.0,0.0,0.0,0.0,0.0,0.0,0.0,0.0,0.0,0.0,0.0,0.0,0.0,0.0,0.0,0.0,0.0,0.0,0.0,0.0,0.0,-2.7427,-2.9621,-3.1805,-3.3799,-3.388,-3.4003,-3.433,-3.2476,-3.0567,0.0,0.0,0.0,0.0,0.0,0.0,0.0,0.0,0.0,0.0,0.0,0.0,0.0,0.0,0.0,0.0,0.0,0.0,0.0,0.0,0.0,0.0,0.0,0.0,0.0,0.0,0.0,0.0,0.0,0.0,0.0,0.0,0.0,0.0,0.0,0.0,0.0,0.0,0.0,0.0,0.0,-3.7346,-3.7161,-3.5922,-3.5032,0.0,0.0,-3.4324,-3.4324,-3.6031,0.0,0.0,0.0,0.0,0.0,0.0,0.0,0.0,0.0,0.0,0.0,0.0,0.0,0.0,0.0,0.0,0.0,0.0,0.0,0.0,0.0,0.0,0.0,0.0,0.0,0.0,0.0,0.0,0.0,0.0,0.0,0.0,0.0,0.0,0.0,0.0,0.0,0.0,0.0,0.0,0.0,0.0,0.0,0.0,0.0,0.0,0.0,0.0,0.0,0.0,0.0,0.0,0.0,0.0,0.0,-2.5797,-2.7701,-3.0622,-3.2694,-3.396,-3.4831,-3.5125,-3.4715,-3.2965,-3.1186,0.0,0.0,0.0,0.0,0.0,0.0,0.0,0.0,0.0,0.0,0.0,0.0,0.0,0.0,0.0,0.0,0.0,0.0,0.0,0.0,0.0,0.0,0.0,0.0,0.0,0.0,0.0,0.0,0.0,0.0,0.0,0.0,0.0,0.0,0.0,0.0,0.0,0.0,0.0,0.0,0.0,0.0,-3.878,-3.8109,0.0,0.0,0.0,-3.6092,-3.6026,0.0,0.0,0.0,0.0,0.0,0.0,0.0,0.0,0.0,0.0,0.0,0.0,0.0,0.0,0.0,0.0,0.0,0.0,0.0,0.0,0.0,0.0,0.0,0.0,0.0,0.0,0.0,0.0,0.0,0.0,0.0,0.0,0.0,0.0,0.0,0.0,0.0,0.0,0.0,0.0,0.0,0.0,0.0,0.0,0.0,0.0,0.0,0.0,0.0,0.0,0.0,0.0,0.0,0.0,0.0,0.0,0.0,-2.8214,-3.2102,-3.4338,-3.4784,-3.5947,-3.6134,-3.5276,-3.3838,0.0,0.0,0.0,0.0,0.0,0.0,0.0,0.0,0.0,0.0,0.0,0.0,0.0,0.0,0.0,0.0,0.0,0.0,0.0,0.0,0.0,0.0,0.0,0.0,0.0,0.0,0.0,-2.4253,0.0,0.0,0.0,0.0,0.0,0.0,0.0,0.0,0.0,0.0,0.0,0.0,0.0,0.0,-3.8932,-4.0286,-4.031,-4.0556,0.0,0.0,-3.8415,-3.8503,-3.9511,-3.8888,0.0,0.0,0.0,0.0,0.0,0.0,0.0,0.0,0.0,0.0,0.0,0.0,0.0,0.0,0.0,0.0,0.0,0.0,0.0,0.0,0.0,0.0,0.0,0.0,0.0,0.0,0.0,0.0,0.0,0.0,0.0,0.0,0.0,0.0,0.0,0.0,0.0,0.0,0.0,0.0,0.0,0.0,0.0,0.0,0.0,0.0,0.0,0.0,0.0,0.0,0.0,0.0,0.0,0.0,0.0,-2.902,-3.354,-3.6154,-3.6711,-3.6812,-3.6584,-3.6036,-3.5077,-3.2695,0.0,0.0,0.0,0.0,0.0,0.0,0.0,0.0,0.0,0.0,0.0,0.0,0.0,0.0,0.0,0.0,0.0,0.0,0.0,0.0,0.0,0.0,0.0,0.0,0.0,0.0,0.0,0.0,0.0,0.0,0.0,0.0,0.0,0.0,0.0,0.0,0.0,0.0,0.0,0.0,0.0,-4.0333,-4.1438,-4.2132,-4.325,0.0,0.0,-4.1876,-4.2501,-4.478,-4.4273,-3.747,0.0,0.0,0.0,0.0,0.0,0.0,0.0,0.0,0.0,0.0,0.0,0.0,0.0,0.0,0.0,0.0,0.0,0.0,0.0,0.0,0.0,0.0,0.0,0.0,0.0,0.0,0.0,0.0,0.0,0.0,0.0,0.0,0.0,0.0,0.0,0.0,0.0,0.0,0.0,0.0,0.0,0.0,0.0,0.0,0.0,0.0,0.0,0.0,0.0,0.0,0.0,0.0,0.0,-2.7671,-2.9024,-3.3385,-3.5925,-3.6461,-3.7442,-3.7392,-3.626,-3.593,-3.3876,0.0,0.0,0.0,0.0,0.0,0.0,0.0,0.0,0.0,0.0,0.0,0.0,0.0,0.0,0.0,0.0,0.0,0.0,0.0,0.0,0.0,0.0,0.0,0.0,0.0,0.0,0.0,0.0,-2.6474,-2.6164,-2.6065,0.0,0.0,0.0,0.0,0.0,0.0,0.0,0.0,0.0,0.0,-4.1606,-4.3646,-4.4314,0.0,0.0,-4.4922,-4.3365,-4.4592,-4.4463,-4.2786,-3.8797,-3.7302,0.0,0.0,0.0,0.0,0.0,0.0,0.0,0.0,0.0,0.0,0.0,0.0,0.0,0.0,0.0,0.0,0.0,0.0,0.0,0.0,0.0,0.0,0.0,0.0,0.0,0.0,0.0,0.0,0.0,0.0,0.0,0.0,0.0,0.0,0.0,0.0,0.0,0.0,0.0,0.0,0.0,0.0,0.0,0.0,0.0,0.0,0.0,0.0,0.0,0.0,0.0,0.0,-2.8198,-2.9852,-3.386,-3.6383,-3.721,-3.8195,-3.808,-3.6866,-3.655,-3.467,0.0,0.0,0.0,0.0,0.0,0.0,0.0,0.0,0.0,0.0,0.0,0.0,0.0,0.0,0.0,0.0,0.0,0.0,0.0,0.0,0.0,0.0,0.0,0.0,0.0,0.0,0.0,0.0,-2.7305,-2.6827,-2.6432,0.0,0.0,0.0,0.0,0.0,0.0,0.0,0.0,0.0,0.0,-4.279,-4.4982,-4.5595,-4.6328,-4.7879,-4.5504,-4.4043,-4.5556,-4.4351,-4.2338,-3.9722,0.0,0.0,0.0,0.0,0.0,0.0,0.0,0.0,0.0,0.0,0.0,0.0,0.0,0.0,0.0,0.0,0.0,0.0,0.0,0.0,0.0,0.0,0.0,0.0,0.0,0.0,0.0,0.0,0.0,0.0,-2.1869,0.0,0.0,0.0,0.0,0.0,0.0,0.0,0.0,0.0,0.0,0.0,0.0,0.0,0.0,0.0,0.0,0.0,0.0,0.0,0.0,0.0,0.0,-2.9181,-3.1801,-3.5266,-3.7916,-3.9469,-3.9119,-3.8567,-3.794,-3.6935,-3.4821,-3.1436,0.0,0.0,0.0,0.0,0.0,0.0,0.0,0.0,0.0,0.0,0.0,0.0,0.0,0.0,0.0,0.0,0.0,0.0,0.0,0.0,0.0,0.0,0.0,0.0,0.0,0.0,-2.5938,-2.5799,-2.5827,0.0,0.0,0.0,0.0,0.0,0.0,0.0,0.0,0.0,0.0,-4.0778,-4.3798,-4.5072,-4.5692,-4.6248,-4.6931,-4.506,-4.4066,-4.5359,-4.5418,-4.4125,0.0,0.0,0.0,0.0,0.0,0.0,0.0,0.0,0.0,0.0,0.0,0.0,0.0,0.0,0.0,0.0,0.0,0.0,0.0,0.0,0.0,0.0,0.0,0.0,0.0,0.0,0.0,-2.4421,-2.3619,0.0,0.0,0.0,0.0,0.0,0.0,0.0,0.0,0.0,0.0,0.0,-2.8614,-2.9598,0.0,0.0,0.0,0.0,0.0,0.0,0.0,0.0,0.0,0.0,0.0,0.0,-2.9514,-3.1423,-3.486,-3.7262,-3.8517,-3.8391,-3.804,-3.7487,-3.6807,-3.4519,-3.0457,0.0,0.0,0.0,0.0,0.0,0.0,0.0,0.0,0.0,0.0,0.0,0.0,0.0,0.0,0.0,0.0,0.0,0.0,0.0,0.0,0.0,0.0,0.0,0.0,0.0,-2.601,0.0,0.0,0.0,0.0,0.0,0.0,0.0,0.0,0.0,0.0,0.0,-3.4669,-3.7674,-4.0756,-4.3369,-4.5035,-4.5789,-4.6582,0.0,0.0,0.0,0.0,0.0,0.0,0.0,0.0,0.0,0.0,0.0,0.0,0.0,0.0,-4.0816,-3.6061,-3.4771,-3.4562,-3.4801,0.0,0.0,0.0,0.0,0.0,0.0,0.0,0.0,0.0,0.0,0.0,0.0,0.0,0.0,-2.5788,0.0,-2.5168,0.0,0.0,0.0,0.0,0.0,0.0,0.0,0.0,-2.9734,-3.0925,-3.1683,-3.2771,-3.3051,0.0,-3.1847,-2.9537,0.0,0.0,0.0,0.0,0.0,0.0,0.0,0.0,-2.9831,-3.181,-3.4624,-3.6709,-3.7939,-3.7814,-3.7563,-3.7186,-3.6128,-3.4016,-3.0733,-2.8499,-2.6675,0.0,0.0,0.0,0.0,0.0,0.0,0.0,0.0,0.0,0.0,0.0,0.0,0.0,0.0,0.0,0.0,0.0,0.0,0.0,0.0,0.0,0.0,0.0,-2.6947,0.0,0.0,0.0,0.0,0.0,0.0,0.0,0.0,0.0,-3.1539,-3.4053,-3.675,-3.911,-4.1504,-4.3549,-4.4766,0.0,0.0,0.0,0.0,0.0,0.0,0.0,-4.2462,-4.271,-4.1692,-4.0846,-4.1055,-4.2342,-4.306,-4.2201,0.0,0.0,-3.8751,-3.7704,-3.7554,-3.7554,-3.8212,-3.8631,-3.8272,-3.902,-3.9709,0.0,0.0,0.0,0.0,0.0,0.0,0.0,0.0,-2.6652,-2.6527,0.0,-2.6099,0.0,0.0,0.0,0.0,0.0,-2.8076,0.0,0.0,-3.3631,-3.4856,-3.5041,-3.5475,-3.5697,-3.5587,-3.5533,-3.4104,-3.1436,-2.8825,0.0,0.0,0.0,0.0,0.0,0.0,-3.0331,-3.3018,-3.468,-3.6285,-3.7864,-3.7437,-3.7136,-3.7061,-3.5052,-3.3395,-3.2215,-3.0091,-2.8473,-2.7379,-2.5234,0.0,0.0,0.0,0.0,0.0,0.0,0.0,0.0,0.0,0.0,0.0,0.0,0.0,0.0,0.0,0.0,0.0,0.0,0.0,0.0,-2.7556,0.0,0.0,0.0,0.0,0.0,0.0,0.0,0.0,0.0,0.0,-3.3694,-3.6387,-3.9176,-4.1055,0.0,0.0,0.0,0.0,-4.4317,-4.4407,-4.3768,-4.3589,-4.4347,-4.4317,-4.4077,-4.3539,0.0,0.0,-4.286,-4.303,-4.311,-4.1863,-4.3299,-4.4407,-4.4287,-4.2611,-4.1474,-4.1414,-4.0606,-4.0157,-4.1205,-4.1983,-4.2641,-3.1328,0.0,0.0,0.0,0.0,-2.8516,-2.9199,-3.0526,-3.035,-2.9764,-2.892,-2.8838,0.0,0.0,0.0,0.0,0.0,0.0,-3.1507,-3.403,-3.5083,-3.6351,-3.7742,-3.8289,-3.8341,-3.7914,-3.7111,-3.5906,-3.4279,-3.2767,-3.0055,-2.6323,0.0,0.0,0.0,0.0,-3.111,-3.3086,-3.4726,-3.5956,-3.681,-3.6732,-3.6408,-3.5959,-3.465,-3.3545,-3.2885,-3.1436,-3.0005,-2.8524,-2.6741,0.0,0.0,0.0,0.0,0.0,0.0,0.0,0.0,0.0,0.0,0.0,0.0,0.0,0.0,0.0,0.0,0.0,0.0,0.0,-2.633,-2.7771,-2.8397,0.0,0.0,0.0,0.0,0.0,0.0,0.0,0.0,0.0,-3.6896,-3.8212,-3.9499,0.0,0.0,-4.28,-4.2282,-4.3,-4.3958,-4.4885,0.0,0.0,0.0,-4.4515,-4.3868,-4.4616,-4.5484,-4.5843,-4.5274,-4.5723,-4.6052,-4.5633,-4.6082,-4.6292,-4.5783,-4.4915,-4.4197,-4.4167,-4.4227,-4.4257,-4.4227,-4.4706,-4.5095,-3.3652,-3.1113,-3.0019,-2.9863,-3.0332,-3.0254,-3.0957,-3.219,-3.2137,-3.1676,-3.0977,-3.1415,-3.0441,-2.847,-2.8873,0.0,0.0,0.0,-3.3909,-3.6604,-3.6924,-3.7816,-3.9195,-3.9521,-3.9421,-3.8894,-3.7939,-3.6935,-3.5855,-3.4977,-3.2717,-2.9214,0.0,0.0,-2.8674,-3.0357,-3.1964,-3.3395,-3.4781,-3.5658,-3.6031,-3.583,-3.5554,-3.5182,-3.4374,-3.3746,-3.3395,-3.2315,-3.126,-3.0217,-2.8497,-2.6712,0.0,0.0,0.0,0.0,0.0,0.0,0.0,0.0,0.0,0.0,0.0,-2.2682,-2.1015,0.0,0.0,0.0,-2.3956,-2.5891,-2.7993,-2.9139,0.0,0.0,0.0,0.0,0.0,0.0,0.0,-3.3725,-3.5639,-3.7434,-3.896,-3.9768,-4.0427,-4.1085,-4.2102,-4.2611,-4.2222,0.0,-4.3678,-4.4766,-4.4556,-4.4766,-4.604,-4.5053,-4.4377,-4.5155,-4.5603,-4.5903,-4.5933,-4.6262,-4.6501,-4.6501,-4.6501,-4.6381,-4.5992,-4.5574,-4.5185,-4.4975,-4.5244,-4.5424,-4.5304,-4.5843,-4.6262,-3.5586,-3.459,-3.2637,-3.1816,-3.1816,-3.2168,-3.2385,-3.2385,-3.2833,-3.2835,-3.2727,-3.3806,-3.342,-3.2066,-3.1894,0.0,-3.5381,-3.543,-3.6653,-3.8944,-3.8994,-3.9195,-3.9672,-3.9647,-3.9371,-3.8868,-3.8241,-3.7412,-3.648,-3.5881,-3.4801,-3.3262,-3.2164,-3.1361,-3.0834,-3.1813,-3.2893,-3.3947,-3.4956,-3.5483,-3.5483,-3.4931,-3.4625,-3.46,-3.4048,-3.3746,-3.3671,-3.2692,-3.2139,-3.2014,-3.0275,-2.8515,-2.6875,0.0,0.0,0.0,0.0,0.0,0.0,0.0,0.0,0.0,0.0,0.0,0.0,0.0,0.0,0.0,-2.6804,0.0,-3.0317,-3.1092,0.0,0.0,0.0,-3.1391,-3.0941,-3.2587,-3.3993,-3.4653,0.0,0.0,-4.0217,0.0,-4.1692,-4.2381,-4.294,-4.329,-4.323,-4.323,-4.3529,-4.4257,-4.4317,-4.4766,-4.5933,-4.5603,-4.5185,-4.5274,-4.5274,-4.5334,-4.5334,-4.5334,-4.5304,-4.5364,-4.5304,-4.5304,-4.5304,-4.5274,-4.5035,-4.4436,-4.4407,-4.4616,-4.5185,-4.5783,-4.6322,-3.6309,-3.5195,-3.4687,-3.4277,-3.3926,-3.3711,-3.3613,-3.3764,-3.4944,-3.52,-3.4918,-3.5833,-3.5895,-3.5297,-3.522,-3.6207,-3.8017,-3.8017,-3.8542,-3.9471,-3.9496,-3.9572,-3.9672,-3.927,-3.8994,-3.8869,-3.7864,-3.7236,-3.7008,-3.6433,-3.5554,-3.4374,-3.4048,-3.3219,-3.1938,-3.2943,-3.3847,-3.4525,-3.5157,-3.5483,-3.5483,-3.46,-3.3897,-3.347,-3.2918,-3.2416,-3.2014,-3.1738,-3.1468,-3.1185,-3.0353,-2.9272,-2.7807,-2.5246,0.0,0.0,0.0,0.0,0.0,0.0,0.0,0.0,0.0,-2.4177,-2.1332,0.0,-2.5418,0.0,-2.7532,-2.9545,-3.0404,-3.1092,0.0,0.0,-3.2497,-3.2826,-3.4173,-3.519,-3.6028,-3.6626,-3.8033,-3.9499,-4.0965,-4.1294,-4.1833,-4.294,-4.324,-4.315,-4.2701,-4.303,-4.3529,-4.4167,-4.4287,-4.4616,-4.5304,-4.5424,-4.5274,-4.5274,-4.5274,-4.5274,-4.5274,-4.5274,-4.5274,-4.5274,-4.5274,-4.5274,-4.5244,-4.4915,-4.4526,-4.4377,-4.4706,-4.5095,-4.5274,-4.5424,-4.5574,-3.666,-3.5684,-3.5664,-3.5527,-3.5215,-3.4414,-3.4062,-3.4216,-3.5666,-3.604,-3.5691,-3.7155,-3.7971,-3.8224,-3.7978,-3.8335,-3.922,-3.922,-3.9396,-3.9672,-3.9697,-3.9546,-3.9372,-3.907,-3.8642,-3.809,-3.7487,-3.7061,-3.6857,-3.6556,-3.6103,-3.5454,-3.5203,-3.4455,-3.3395,-3.3696,-3.4048,-3.4349,-3.4675,-3.4781,-3.4756,-3.3972,-3.3269,-3.2717,-3.239,-3.1838,-3.1085,-3.1115,-3.0943,-3.0452,-3.0126,-2.9343,-2.8013,-2.6142,-2.4532,0.0,0.0,0.0,0.0,0.0,0.0,0.0,0.0,0.0,0.0,0.0,-2.6895,0.0,-2.9141,0.0,-3.1749,-3.2437,-3.3275,-3.4292,-3.4322,-3.4831,-3.6207,-3.6926,-3.7464,-3.7823,-3.8781,-3.9918,-4.1205,-4.1422,-4.1863,-4.311,-4.329,-4.317,-4.291,-4.312,-4.3439,-4.3808,-4.3828,-4.3947,-4.4377,-4.4676,-4.4766,-4.4496,-4.4407,-4.4436,-4.4436,-4.4436,-4.4407,-4.4407,-4.4436,-4.4436,-4.4407,-4.4137,-4.3828,-4.3928,-4.4248,-4.4608,-4.4796,-4.4855,-4.4915,-3.6797,-3.6035,-3.6035,-3.6035,-3.5937,-3.4812,-3.4264,-3.423,-3.5687,-3.6282,-3.6345,-3.8357,-3.9697,-4.0475,-4.0023,-3.9772,-3.9697,-3.9697,-3.9697,-3.9697,-3.9697,-3.9396,-3.8919,-3.8844,-3.8191,-3.7211,-3.7111,-3.6835,-3.643,-3.6282,-3.6279,-3.6179,-3.5604,-3.5006,-3.448,-3.4048,-3.3822,-3.3897,-3.3822,-3.3796,-3.3771,-3.3237,-3.2591,-3.2039,-3.1938,-3.1436,-3.0457,-3.0503,-3.0289,-2.9719,-2.9676,-2.9202,-2.8046,-2.7174,-2.5981,0.0,-2.3629,0.0,0.0,0.0,0.0,0.0,0.0,0.0,0.0,-2.8228,-2.8902,-3.0016,-3.1278,-3.2467,-3.3664,-3.4444,-3.513,-3.5818,-3.6387,-3.6985,-3.7584,-3.8182,-3.8512,-3.8512,-3.905,-3.9888,-4.1025,-4.1324,-4.1863,-4.2901,-4.323,-4.329,-4.329,-4.329,-4.3319,-4.329,-4.329,-4.3409,-4.3439,-4.3828,-4.4018,-4.3469,-4.3409,-4.329,-4.3379,-4.3349,-4.3349,-4.3349,-4.3409,-4.3349,-4.329,-4.3359,-4.3359,-4.3429,-4.3647,-4.3907,-4.4168,-4.4278,-4.4458,-3.6797,-3.6035,-3.6035,-3.6035,-3.5957,-3.5705,-3.5166,-3.4662,-3.5832,-3.748,-3.949,-4.0893,-4.1168,-4.0526,-4.04,-4.0124,-3.9697,-3.9697,-3.9697,-3.9697,-3.9697,-3.9396,-3.8894,-3.8391,-3.7839,-3.7186,-3.6782,-3.6505,-3.6405,-3.5931,-3.5479,-3.5027,-3.4474,-3.3947,-3.342,0.0,0.0,0.0,-3.347,-3.3287,-3.3194,-3.224,-3.1461,-3.0934,-3.0482,0.0,-2.9239,-2.9012,-2.8881,-2.8901,-2.9078,0.0,0.0,0.0,0.0,0.0,0.0,0.0,0.0,0.0,0.0,0.0,-2.8397,-2.8502,-2.8025,-3.0183,-3.1722,-3.199,-3.3662,-3.4861,-3.51,-3.6178,-3.7105,-3.7764,-3.7943,-3.8302,-3.8931,-3.914,-3.923,-3.923,-3.9284,-3.9709,-4.0487,-4.1025,-4.1683,-4.25,-4.3,-4.329,-4.329,-4.329,-4.329,-4.329,-4.329,-4.329,-4.329,-4.3439,-4.3499,-4.3319,-4.329,-4.329,-4.329,-4.329,-4.329,-4.329,-4.329,-4.329,-4.3329,-4.3448,-4.3596,-4.3636,-4.3793,-4.3901,-4.3856,-4.3935,-4.4083,-3.6797,0.0,-3.6035,-3.6403,0.0,-3.6795,-3.6787,-3.6979,-3.7573,-3.9262,-4.1619,-4.2038,-4.1681,-4.0927,-4.0651,-4.0224,-3.9697,-3.9697,-3.9697,-3.9697,-3.9697,-3.9245,-3.8442,-3.814,-3.7563,-3.6832,-3.6556,-3.6279,-3.5956,-3.5633,-3.5232,-3.4726,-3.4173,-3.3771,-3.3495,-3.3262,-3.3219,-3.3495,-3.3219,-3.3136,-3.3068,-3.2516,-3.1838,-3.1035,0.0,0.0,0.0,0.0,0.0,0.0,0.0,0.0,0.0,0.0,0.0,-2.7079,-2.653,-2.6086,-2.5855,-2.6675,-2.7899,-2.951,-3.1502,-3.193,-3.0301,-3.1901,-3.3275,-3.3933,-3.4921,-3.5759,-3.6387,-3.7045,-3.7674,-3.8302,-3.8392,-3.8661,-3.929,-3.9403,-3.9403,-3.9403,-3.9403,-3.9679,-4.0307,-4.0965,-4.1662,-4.2321,-4.291,-4.329,-4.329,-4.329,-4.329,-4.329,-4.329,-4.329,-4.329,-4.329,-4.329,-4.329,-4.329,-4.329,-4.329,-4.329,-4.3329,-4.3478,-4.3518,-4.3518,-4.3636,-4.3754,-4.3832,-4.3871,-4.4026,-4.4143,-4.4026,-4.3988,-4.3988,-3.6738,-3.6035,-3.6035,-3.6809,-3.8088,-3.7847,-3.8573,-3.9803,0.0,0.0,0.0,-4.2429,-4.2007,-4.1455,-4.0902,-4.0375,-3.9848,-3.9747,-3.9697,-3.9697,-3.9697,-3.9094,-3.8015,-3.799,-3.7437,-3.6455,-3.6405,-3.6081,-3.5508,-3.5408,-3.5082,-3.4575,-3.4022,-3.3746,-3.3721,-3.3319,-3.3136,-3.3111,-3.2993,-3.2918,-3.296,-3.2885,-3.234,-3.1411,-3.1251,-3.0374,-2.8757,-2.8671,-2.8277,-2.7404,-2.766,-2.7769,-2.7694,-2.8213,-2.8577,-2.8603,-2.9048,-2.91,-2.8629,-2.9232,-3.0123,-3.1269,-3.4126,-3.507,-3.3185,-3.3754,-3.4651,-3.5729,-3.5938,-3.6447,-3.7464,-3.7704,-3.7973,-3.8512,-3.8571,-3.8811,-3.9313,-3.9403,-3.9403,-3.9403,-3.9403,-3.9619,-4.0127,-4.0756,-4.1482,-4.2111,-4.2701,-4.32,-4.326,-4.329,-4.329,-4.329,-4.329,-4.329,-4.329,-4.329,-4.329,-4.329,-4.3329,-4.3369,-4.3399,-4.3438,-4.3518,-4.3714,-4.3754,-4.3793,-4.3949,-4.4026,-4.4065,-4.4065,-4.422,-4.4374,-4.4335,-4.4189,-4.4112,-3.6465,-3.6035,-3.6035,-3.6809,-3.8175,-3.8666,-4.011,-4.1994,-4.0905,-4.0803,-4.1444,-4.2438,-4.2615,-4.2007,-4.148,-4.0927,-4.0375,-3.9898,-3.9697,0.0,-3.9697,-3.9094,-3.804,-3.799,-3.7437,-3.648,-3.6405,-3.6081,-3.5483,-3.5031,-3.455,-3.4022,-3.3445,-3.3194,-3.3194,-3.3162,-3.3136,-3.3111,-3.2591,-3.234,-3.2315,-3.1863,-3.1562,-3.1402,-3.0705,-3.0189,-2.9859,-2.9288,-2.8886,-2.8731,-2.8933,-2.9039,-2.9004,-2.9091,-2.9179,-2.9179,-2.9258,-2.9248,-2.9205,-3.0281,-3.1978,-3.4427,-3.6187,-3.6537,-3.528,-3.6178,-3.6956,-3.7165,-3.7584,-3.8063,-3.8272,-3.8751,-3.908,-3.9194,-3.926,-3.9284,-3.9409,-3.9403,-3.9403,-3.9403,-3.9403,-3.9403,-3.9619,-4.0157,-4.0816,-4.1444,-4.2141,-4.2701,-4.311,-4.329,-4.329,-4.329,-4.329,-4.329,-4.329,-4.329,-4.3329,-4.329,-4.3518,-4.3636,-4.3636,-4.3754,-4.3871,-4.3949,-4.3949,-4.3957,-4.3996,-4.4181,-4.4228,-4.4197,-4.4358,-4.4472,-4.4503,-4.4465,-4.4465,-3.6887,-3.7146,-3.7146,-3.8374,-4.043,-4.1274,-4.2211,-4.3114,-4.2274,-4.1955,-4.215,-4.2737,-4.2715,-4.2187,-4.158,-4.1,-4.0501,-3.9948,-3.9697,-3.9697,-3.9697,-3.9094,-3.8065,-3.799,-3.7437,-3.6455,-3.6405,-3.5931,-3.5127,-3.4781,-3.4299,-3.3495,-3.3237,-3.3136,-3.3136,-3.3136,-3.3136,-3.3068,-3.2817,-3.2667,-3.2667,-3.2441,-3.2014,-3.1411,-3.1109,-3.0558,-2.9808,-2.9877,-2.9684,-2.9168,-2.9552,-2.9614,-2.9301,-2.9588,-2.9745,-2.9745,-3.0032,-3.0346,-3.066,-3.2308,-3.4056,-3.5729,-3.7144,-3.7704,-3.7135,-3.7285,-3.7554,-3.7913,-3.8212,-3.8542,-3.8901,-3.923,-3.9403,-3.9403,-3.9403,-3.9403,-3.9403,-3.9403,-3.9403,-3.9403,-3.9403,-3.9403,-3.9403,-3.9978,-4.0457,-4.0846,-4.1452,-4.2073,-4.2701,-4.2821,-4.294,-4.323,-4.329,-4.329,-4.329,-4.3438,-4.3518,-4.3518,-4.3714,-4.3832,-4.3871,-4.3949,-4.4026,-4.4143,-4.4151,-4.4037,-4.3869,-4.4167,-4.4273,-4.3966,-4.398,-4.4148,-4.4456,-4.4363,-4.4209,-3.7448,-3.8109,-3.8441,-4.0062,-4.2431,-4.3313,-4.3708,-4.3786,-4.3237,-4.2986,-4.2986,-4.2986,-4.274,-4.2187,-4.158,-4.1028,-4.0501,-3.9948,-3.9697,-3.9697,-3.9697,-3.9094,-3.809,-3.799,-3.7437,-3.6531,-3.6405,-3.5805,-3.4826,-3.468,-3.4173,-3.3194,-3.3136,-3.3136,-3.3136,-3.3136,-3.3061,-3.2893,-3.2935,-3.2935,-3.2867,-3.281,-3.2307,-3.1568,-3.1529,-3.1069,-3.0073,-3.0608,-3.0615,-2.9954,-3.0361,-3.0503,-3.0111,-3.0477,-3.0623,-3.0544,-3.1052,-3.1548,-3.2096,-3.406,-3.5589,-3.6238,-3.7718,-3.8631,-3.8571,-3.8153,-3.8063,-3.8542,-3.8631,-3.8871,-3.929,-3.9373,-3.9403,-3.9403,-3.9403,-3.9403,-3.9403,-3.9403,-3.9403,-3.9403,-3.9403,-3.9403,-3.9463,-3.9858,-4.0217,-4.0457,-4.0965,-4.1594,-4.2081,-4.2171,-4.244,-4.298,-4.324,-4.329,-4.329,-4.3438,-4.3596,-4.3705,-4.3871,-4.3897,-4.3883,-4.386,-4.3815,-4.3846,-4.3853,-4.3676,-4.3457,-4.371,-4.3802,-4.3433,-4.3371,-4.3494,-4.3895,-4.3716,-4.3494,-3.8017,-3.8308,-3.9495,-4.1033,-4.2699,-4.3409,-4.3826,-4.3995,-4.335,-4.2986,-4.2986,-4.2986,-4.274,-4.2187,-4.158,-4.1053,-4.0501,-3.9948,-3.9697,-3.9697,-3.9697,-3.9094,-3.8065,-3.799,-3.7437,-3.6531,-3.6405,-3.5805,-3.4751,-3.463,-3.4148,-3.3237,-3.3136,-3.3136,-3.3136,-3.3136,-3.2817,-3.2315,-3.229,-3.229,-3.2265,-3.1813,-3.1593,-3.1655,-3.1388,-3.1279,-3.1216,-3.1565,-3.1628,-3.1615,-3.2123,-3.2411,-3.2333,-3.2411,-3.2202,-3.1693,-3.2202,-3.2568,-3.2778,-3.4728,-3.6024,-3.6231,-3.8084,-3.926,-3.929,-3.9224,-3.9194,-3.9254,-3.9284,-3.932,-3.9409,-3.9403,-3.9403,-3.9403,-3.9403,-3.9403,-3.9403,-3.9403,-3.9403,-3.9403,-3.9403,-3.9403,-3.9403,-3.9493,-3.9768,-4.0247,-4.0756,-4.1235,-4.1452,-4.1512,-4.1828,-4.2565,-4.3028,-4.324,-4.3339,-4.3329,-4.3497,-4.3714,-4.384,-4.3761,-4.3556,-4.3462,-4.3488,-4.3137,-4.2898,-4.2873,-4.275,-4.2786,-4.2817,-4.2786,-4.2725,-4.2756,-4.2817,-4.2756,-4.2756,-3.9101,-4.0646,-4.1184,-4.227,-4.3597,-4.3673,-4.3767,-4.3844,-4.3294,-4.2986,-4.2986,-4.2986,-4.274,-4.2187,-4.158,-4.1028,-4.0501,-3.9948,-3.9697,-3.9697,-3.9697,-3.9094,-3.809,-3.799,-3.7437,-3.648,-3.6405,-3.5805,-3.4776,-3.4073,-3.3495,-3.3162,-3.3136,-3.3136,-3.3136,-3.3136,-3.2792,-3.224,-3.1888,-3.1628,-3.1473,-3.1524,-3.1463,-3.1255,-3.1342,-3.1255,-3.1164,-3.185,-3.2202,-3.1902,-3.2725,-3.3064,-3.2698,-3.2672,-3.2594,-3.2385,-3.2908,-3.3476,-3.4099,-3.5318,-3.6381,-3.7397,-3.8275,-3.896,-3.9343,-3.9403,-3.9403,-3.9403,-3.9403,-3.9403,-3.9403,-3.9403,-3.9403,-3.9403,-3.9403,-3.9403,-3.9403,-3.9403,-3.9403,-3.9403,-3.9403,-3.9403,-3.9403,-3.9403,-3.9493,-3.9798,-4.0098,-4.0397,-4.0696,-4.0898,-4.131,-4.1919,-4.2319,-4.287,-4.3443,-4.3801,-4.3767,-4.3579,-4.3609,-4.3554,-4.307,-4.2928,-4.2879,-4.2602,-4.2509,-4.2325,-4.2078,-4.2386,-4.254,-4.2325,-4.2386,-4.2417,-4.152,-4.1709,-4.1801,-4.0387,-4.2229,-4.2799,-4.3553,-4.4497,-4.4056,-4.3826,-4.3761,-4.3237,-4.2986,-4.2986,-4.2986,-4.264,-4.1932,-4.1505,-4.0924,-4.03,-3.9873,-3.9697,-3.9697,-3.9697,-3.9094,-3.809,-3.799,-3.7437,-3.6556,-3.6405,-3.5805,-3.4726,-3.3796,-3.3219,-3.3136,-3.3136,-3.3136,-3.3136,-3.3136,-3.2717,-3.2014,-3.1587,-3.1181,-3.0809,-3.1117,-3.1156,-3.0918,-3.1126,-3.1112,-3.0825,-3.1863,-3.228,-3.185,-3.2803,-3.3143,-3.2725,-3.2829,-3.2934,-3.2934,-3.3169,-3.378,-3.4677,-3.5302,-3.6359,-3.7872,-3.8251,-3.8691,-3.9224,-3.9403,-3.9403,-3.9403,-3.9403,-3.9403,-3.9403,-3.9403,-3.9403,-3.9403,-3.9403,-3.9403,-3.9403,-3.9403,-3.9403,-3.9403,-3.9403,-3.9403,-3.9403,-3.9403,-3.9439,-3.9541,-3.9541,-3.9667,-4.0154,-4.045,-4.077,-4.1442,-4.1674,-4.2136,-4.3206,-4.3328,-4.3365,-4.3264,-4.3094,-4.2953,-4.2473,-4.2355,-4.2109,-4.1801,-4.2017,-4.1925,-4.1432,-4.1709,-4.1986,-4.1617,-4.1648,-4.1771,-4.0874,-4.1063,-4.1032,-4.2229,-4.2546,-4.4013,-4.4816,-4.5171,-4.4472,-4.4178,-4.4053,-4.335,-4.2986,-4.2986,-4.2986,-4.2384,-4.1376,-4.13,-4.0699,-3.9823,-3.9722,-3.9697,-3.9697,-3.9697,-3.9094,-3.804,-3.799,-3.7437,-3.6531,-3.643,-3.578,-3.4751,-3.4123,-3.3596,-3.3162,-3.3136,-3.3136,-3.3136,-3.3136,-3.2541,-3.1637,-3.1436,-3.1029,-3.0291,-3.042,-3.0599,-3.0725,-3.075,-3.0863,-3.1014,-3.1536,-3.1823,-3.1797,-3.2437,-3.2725,-3.2725,-3.3221,-3.3483,-3.343,-3.3038,-3.3119,-3.3892,-3.4687,-3.5727,-3.7085,-3.786,-3.8601,-3.914,-3.9254,-3.9284,-3.9373,-3.9343,-3.9403,-3.9403,-3.9403,-3.9403,-3.9403,-3.9403,-3.9403,-3.9403,-3.9403,-3.9403,-3.9403,-3.9403,-3.9403,-3.9403,-3.9403,-3.9481,-3.9589,-3.9661,-3.9762,-3.996,-4.0031,-4.0477,-4.101,-4.1326,-4.1473,-4.19,-4.246,-4.2443,-4.234,-4.2389,-4.2205,-4.1884,-4.1555,-4.1247,-4.0935,-4.0966,-4.0874,-4.0628,-4.0628,-4.0782,-4.072,-4.0751,-4.0597,-4.0536,-4.0505,-4.0536,-4.2925,-4.395,-4.4532,-4.4768,-4.4741,-4.4383,-4.3979,-4.3581,-4.32,-4.2986,-4.2986,-4.2986,-4.2384,-4.1275,-4.1275,-4.0727,-3.9747,-3.9697,-3.9697,-3.9697,-3.9697,-3.9295,-3.8592,-3.8191,-3.7638,-3.6935,-3.6556,-3.5805,-3.4776,-3.4173,-3.3621,-3.3212,-3.3136,-3.3136,-3.3136,-3.3136,-3.2667,-3.1964,-3.1587,-3.1196,-3.0777,-3.0548,-3.0558,-3.0861,-3.0887,-3.0924,-3.0973,-3.1522,-3.1797,-3.1797,-3.2385,-3.2672,-3.2698,-3.2908,-3.3012,-3.2986,-3.2803,-3.3075,-3.39,-3.4259,-3.5132,-3.6561,-3.6994,-3.7464,-3.8063,-3.8512,-3.8751,-3.8841,-3.92,-3.9373,-3.9403,-3.9403,-3.9403,-3.9403,-3.9403,-3.9403,-3.9403,-3.9403,-3.9403,-3.9403,-3.9403,-3.9403,-3.9403,-3.9403,-3.9409,-3.9517,-3.9625,-3.9732,-3.9839,-3.998,-4.0349,-4.0567,-4.0734,-4.083,-4.0944,-4.1893,-4.2297,-4.1965,-4.1792,-4.1515,-4.1181,-4.0935,-4.0628,-4.0597,-4.0413,-4.0443,-4.0443,-4.0505,-4.0505,-4.0505,-4.0505,-4.0505,-4.0505,-4.0505,-4.0505,-4.3888,-4.5025,-4.5147,-4.5036,-4.4769,-4.4485,-4.397,-4.348,-4.3156,-4.2986,-4.2986,-4.2986,-4.2359,-4.1401,-4.1275,-4.0752,-3.9772,-3.9697,-3.9697,-3.9697,-3.9697,-3.9396,-3.8894,-3.8291,-3.7713,-3.7161,-3.6681,-3.5855,-3.5027,-3.4424,-3.3872,-3.337,-3.3169,-3.3136,-3.3136,-3.3136,-3.2792,-3.2215,-3.1662,-3.1312,-3.1175,-3.0689,-3.0596,-3.0936,-3.1011,-3.1011,-3.1037,-3.1365,-3.151,-3.1588,-3.194,-3.2228,-3.2385,-3.2437,-3.2411,-3.2411,-3.2685,-3.3084,-3.3692,-3.4009,-3.4825,-3.6313,-3.6507,-3.6746,-3.7375,-3.8003,-3.8332,-3.8512,-3.902,-3.9403,-3.9403,-3.9403,-3.9403,-3.9403,-3.9403,-3.9403,-3.9403,-3.9403,-3.9403,-3.9403,-3.9403,-3.9403,-3.9439,-3.9445,-3.9517,-3.9583,-3.9768,-3.991,-4.0016,-4.0156,-4.0366,-4.0366,-4.0466,-4.0532,-4.0655,-4.1234,-4.1541,-4.1335,-4.1304,-4.0935,-4.0628,-4.0382,-4.0197,-4.0166,-4.0228,-4.029,-4.0382,-4.0474,-4.0505,-4.0505,-4.0505,-4.0505,-4.0505,-4.0505,-4.0505,-4.5147,-4.5696,-4.5817,-4.559,-4.5254,-4.4786,-4.4234,-4.3714,-4.3187,-4.2986,-4.2986,-4.2986,-4.2384,-4.1451,-4.1275,-4.0727,-3.9848,-3.9697,-3.9697,-3.9697,-3.9697,-3.9396,-3.8919,-3.8266,-3.7663,-3.7086,-3.6656,-3.6081,-3.5433,-3.4856,-3.4374,-3.3872,-3.3319,-3.3136,-3.3136,-3.3111,-3.2817,-3.229,-3.1804,-3.1428,-3.1136,-3.0766,-3.0648,-3.0962,-3.1011,-3.1011,-3.1011,-3.0999,-3.1052,-3.1052,-3.1078,-3.1287,-3.1719,-3.1797,-3.1797,-3.1913,-3.2497,-3.2992,-3.3283,-3.3894,-3.4893,-3.6104,-3.6447,-3.6596,-3.7105,-3.7853,-3.8272,-3.8362,-3.896,-3.9403,-3.9403,-3.9403,-3.9403,-3.9403,-3.9403,-3.9403,-3.9403,-3.9403,-3.9403,-3.9403,-3.9403,-3.9403,-3.9445,-3.9517,-3.9631,-3.9748,-3.9929,-4.0074,-4.0147,-4.0251,-4.0413,-4.0505,-4.0505,-4.0505,-4.0505,-4.0536,-4.0536,-4.057,-4.0628,-4.0536,-4.029,-4.0013,-3.9674,-3.9613,-3.9736,-3.9859,-4.0166,-4.0259,-4.0474,-4.0505,-4.0505,-4.0474,-4.0505,-4.0505,-4.0505,-4.5208,-4.5757,-4.5817,-4.545,-4.492,-4.4694,-4.4116,-4.3263,-4.3037,-4.2986,-4.2986,-4.2986,-4.2359,-4.1476,-4.1275,-4.0752,-3.9747,-3.9697,-3.9697,-3.9697,-3.9697,-3.9421,-3.8868,-3.8291,-3.7513,-3.6782,-3.6505,-3.6081,-3.5508,-3.4956,-3.4449,-3.3897,-3.337,-3.3136,-3.3136,-3.3111,-3.2943,-3.281,-3.2432,-3.2057,-3.1763,-3.137,-3.1099,-3.0988,-3.1011,-3.1011,-3.1011,-3.1011,-3.1011,-3.1011,-3.1011,-3.1078,-3.1235,-3.1261,-3.1235,-3.131,-3.1957,-3.2645,-3.3199,-3.3905,-3.4765,-3.5594,-3.5818,-3.5878,-3.6178,-3.7135,-3.7704,-3.7853,-3.8721,-3.9403,-3.9403,-3.9403,-3.9403,-3.9403,-3.9403,-3.9403,-3.9403,-3.9403,-3.9403,-3.9403,-3.9403,-3.9403,-3.9409,-3.9481,-3.9474,-3.9289,-3.9373,-3.9516,-3.9593,-3.9794,-4.0043,-4.0382,-4.0413,-4.0413,-4.0351,-4.0228,-4.0136,-4.0074,-4.0105,-4.0043,-3.9797,-3.9493,-3.9152,-3.9029,-3.9182,-3.9428,-3.9736,-3.9982,-4.0136,-4.0382,-4.0351,-4.0382,-4.0474,-4.0505,-4.0474,-4.5514,-4.5939,-4.5999,-4.541,-4.4611,-4.4618,-4.3991,-4.3062,-4.2986,-4.2986,-4.2986,-4.2986,-4.2359,-4.1451,-4.1275,-4.0648,-3.9772,-3.9697,-3.9697,-3.9697,-3.9697,-3.9496,-3.9069,-3.8366,-3.7437,-3.6581,-3.6405,-3.6182,-3.583,-3.5102,-3.4505,-3.4173,-3.347,-3.3136,-3.3136,-3.3111,-3.3111,-3.3164,-3.2811,-3.2459,-3.214,-3.1732,-3.1357,-3.1078,-3.1011,-3.1011,-3.1011,-3.1011,-3.1011,-3.1011,-3.1011,-3.1011,-3.1011,-3.1037,-3.1011,-3.1198,-3.1919,-3.2755,-3.3248,-3.4177,-3.4938,-3.5392,-3.5489,-3.5519,-3.5729,-3.6686,-3.7375,-3.7554,-3.8631,-3.9403,-3.9403,-3.9403,-3.9403,-3.9403,-3.9403,-3.9403,-3.9403,-3.9403,-3.9403,-3.9403,-3.9403,-3.9403,-3.9373,-3.9553,-3.9474,-3.9259,-3.9195,-3.9215,-3.9259,-3.9241,-3.9613,-3.992,-4.0013,-4.0013,-4.0074,-3.9951,-3.9767,-3.9705,-3.9644,-3.9459,-3.9213,-3.8754,-3.8385,-3.8262,-3.8354,-3.8662,-3.9,-3.9308,-3.9524,-3.9767,-4.0013,-4.0013,-4.0013,-4.0413,-4.0474,-4.5999,-4.6326,-4.6276,-4.5623,-4.4611,-4.4568,-4.394,-4.3062,-4.2986,-4.2986,-4.2986,-4.2986,-4.2384,-4.1451,-4.1275,-4.0674,-3.9848,-3.9697,-3.9697,-3.9697,-3.9697,-3.9572,-3.922,-3.8291,-3.7337,-3.6556,-3.6405,-3.6405,-3.6254,-3.5328,-3.4705,-3.453,-3.3696,-3.3136,-3.3136,-3.3111,-3.3197,-3.3335,-3.2946,-3.2685,-3.247,-3.1928,-3.1461,-3.1104,-3.1026,-3.1011,-3.1011,-3.1011,-3.1011,-3.1011,-3.1011,-3.1048,-3.1048,-3.1048,-3.1011,-3.1272,-3.247,-3.3073,-3.3561,-3.4572,-3.5392,-3.5457,-3.5489,-3.5489,-3.5669,-3.6626,-3.7404,-3.7494,-3.8631,-3.9403,-3.9403,-3.9403,-3.9403,-3.9403,-3.9403,-3.9403,-3.9403,-3.9403,-3.9403,-3.9403,-3.9403,-3.9403,-3.9439,-3.9661,-3.9778,-3.9707,-3.949,-3.9412,-3.9395,-3.9244,-3.9029,-3.9244,-3.9644,-3.9521,-3.9585,-3.9431,-3.9182,-3.8846,-3.8846,-3.8754,-3.8508,-3.8046,-3.7646,-3.7554,-3.7677,-3.7954,-3.8262,-3.8631,-3.8846,-3.9,-3.9216,-3.937,-3.9551,-3.9828,-4.0105,-4.5999,-4.6276,-4.5874,-4.5271,-4.4593,-4.4217,-4.3639,-4.3037,-4.2986,-4.2986,-4.2986,-4.2986,-4.2359,-4.1351,-4.1275,-4.0727,-3.9923,-3.9697,-3.9697,-3.9697,-3.9697,-3.917,-3.8467,-3.7764,-3.7061,-3.648,-3.6405,-3.6405,-3.6355,-3.5629,-3.5056,-3.47,-3.4022,-3.3532,-3.3333,-3.3154,-3.3283,-3.3556,-3.3513,-3.3255,-3.2961,-3.2592,-3.2124,-3.1615,-3.1235,-3.1026,-3.1037,-3.1011,-3.1011,-3.1011,-3.1011,-3.131,-3.1663,-3.1357,-3.1505,-3.2426,-3.2932,-3.3492,-3.4041,-3.4935,-3.5457,-3.5489,-3.5489,-3.5489,-3.5549,-3.6656,-3.7285,-3.7644,-3.8601,-3.9373,-3.9373,-3.9403,-3.9403,-3.9403,-3.9403,-3.9403,-3.9403,-3.9403,-3.9403,-3.9403,-3.9373,-3.9409,-3.9445,-3.9553,-3.9581,-3.9429,-3.9329,-3.9283,-3.9361,-3.9308,-3.9093,-3.9244,-3.9459,-3.9152,-3.897,-3.8846,-3.8539,-3.7984,-3.7861,-3.7892,-3.7646,-3.7307,-3.6969,-3.6753,-3.7246,-3.7584,-3.7861,-3.8169,-3.8262,-3.82,-3.8539,-3.8754,-3.8785,-3.897,-3.9339,-4.612,-4.625,-4.5723,-4.5146,-4.4593,-4.4016,-4.3489,-4.3062,-4.2986,-4.2986,-4.2986,-4.2986,-4.2359,-4.1351,-4.1275,-4.0727,-3.9798,-3.9697,-3.9697,-3.9697,-3.9697,-3.9069,-3.8191,-3.7613,-3.7136,-3.6455,-3.6405,-3.6405,-3.6304,-3.5805,-3.5207,-3.4726,-3.4173,-3.3752,-3.3394,-3.3326,-3.3454,-3.3768,-3.3827,-3.372,-3.3383,-3.3193,-3.2803,-3.2228,-3.1615,-3.1261,-3.1052,-3.1011,-3.1011,-3.1048,-3.131,-3.1663,-3.2037,-3.2028,-3.2354,-3.3178,-3.3457,-3.3871,-3.4312,-3.5067,-3.5457,-3.5489,-3.5489,-3.5489,-3.5669,-3.6447,-3.7045,-3.7494,-3.8422,-3.902,-3.9343,-3.9403,-3.9403,-3.9403,-3.9403,-3.9403,-3.9403,-3.9403,-3.9403,-3.9409,-3.9481,-3.9517,-3.9553,-3.9661,-3.9657,-3.9564,-3.9463,-3.9412,-3.9425,-3.9305,-3.9093,-3.9059,-3.8967,-3.8692,-3.8323,-3.8138,-3.7892,-3.7369,-3.7215,-3.7184,-3.7061,-3.6784,-3.6661,-3.6599,-3.6907,-3.7153,-3.7369,-3.7461,-3.7369,-3.7461,-3.7861,-3.8077,-3.8108,-3.82,-3.8569,-4.6225,-4.6175,-4.5573,-4.502,-4.4468,-4.394,-4.3413,-4.3037,-4.2986,-4.2986,-4.2961,-4.2911,-4.2258,-4.1275,-4.1125,-4.0651,-3.9697,-3.9697,-3.9697,-3.9697,-3.9622,-3.9094,-3.809,-3.7939,-3.7312,-3.6556,-3.6405,-3.6405,-3.6304,-3.5855,-3.5378,-3.4921,-3.4368,-3.3896,-3.3725,-3.3547,-3.3683,-3.4021,-3.4063,-3.3965,-3.3714,-3.3561,-3.3169,-3.2594,-3.1862,-3.1432,-3.1182,-3.1089,-3.1048,-3.1123,-3.1773,-3.2074,-3.2254,-3.2897,-3.3318,-3.3555,-3.4036,-3.4279,-3.4543,-3.5166,-3.5489,-3.5489,-3.5489,-3.5489,-3.5639,-3.6178,-3.6806,-3.7375,-3.8003,-3.8721,-3.9254,-3.9403,-3.9403,-3.9403,-3.9403,-3.9403,-3.9403,-3.9403,-3.9409,-3.9445,-3.9589,-3.9696,-3.9839,-4.0016,-4.0196,-3.9943,-3.9776,-3.9661,-3.9518,-3.9275,-3.8877,-3.8415,-3.8292,-3.8108,-3.7738,-3.74,-3.7123,-3.6784,-3.6753,-3.6722,-3.6753,-3.6599,-3.6538,-3.6599,-3.6753,-3.6753,-3.6722,-3.6722,-3.6692,-3.6784,-3.7215,-3.7338,-3.743,-3.7615,-3.7892,-4.5673,-4.5598,-4.4593,-4.4091,-4.389,-4.3388,-4.3087,-4.2986,-4.2986,-4.2986,-4.2886,-4.2534,-4.1982,-4.1304,-4.0927,-4.0325,-3.9747,-3.9697,-3.9697,-3.9697,-3.9697,-3.9044,-3.8216,-3.799,-3.7387,-3.6656,-3.6405,-3.6405,-3.6355,-3.6229,-3.5974,-3.5603,-3.5021,-3.4736,-3.4504,-3.3905,-3.3852,-3.423,-3.4189,-3.4137,-3.4121,-3.3796,-3.3352,-3.2725,-3.1848,-3.147,-3.1522,-3.1235,-3.131,-3.1736,-3.2074,-3.2506,-3.2897,-3.3178,-3.3796,-3.4505,-3.4476,-3.461,-3.51,-3.5359,-3.5489,-3.5489,-3.5489,-3.5489,-3.5549,-3.6088,-3.6716,-3.7345,-3.8003,-3.8631,-3.9254,-3.9403,-3.9403,-3.9403,-3.9403,-3.9403,-3.9403,-3.9373,-3.9445,-3.9589,-3.9661,-3.9768,-3.9874,-3.998,-4.0156,-4.0231,-4.0147,-3.9941,-3.964,-3.9339,-3.8754,-3.8138,-3.7892,-3.7738,-3.7246,-3.6969,-3.6815,-3.6599,-3.6538,-3.6507,-3.6507,-3.6507,-3.6507,-3.6507,-3.6507,-3.6507,-3.6507,-3.6507,-3.6569,-3.6599,-3.663,-3.6784,-3.6969,-3.7092,-3.7246,-4.5321,-4.4995,-4.4141,-4.379,-4.3714,-4.3237,-4.2986,-4.2986,-4.2986,-4.2986,-4.2861,-4.2464,-4.1856,-4.125,-4.0777,-4.0224,-3.9798,-3.9697,-3.9697,-3.9697,-3.9647,-3.9069,-3.8216,-3.7914,-3.7462,-3.6556,-3.6405,-3.6405,-3.6405,-3.6355,-3.6172,-3.5872,-3.5364,-3.5002,-3.4857,-3.4246,-3.4089,-3.4314,-3.4314,-3.4314,-3.4319,-3.4136,-3.3692,-3.3211,-3.2565,-3.2258,-3.1784,-3.2048,-3.2046,-3.2254,-3.2755,-3.3283,-3.3699,-3.407,-3.4735,-3.5166,-3.5166,-3.5004,-3.5392,-3.5489,-3.5489,-3.5489,-3.5489,-3.5489,-3.5549,-3.5878,-3.6297,-3.6926,-3.7584,-3.8272,-3.9224,-3.9403,-3.9373,-3.9403,-3.9403,-3.9403,-3.9403,-3.9373,-3.9409,-3.9589,-3.9732,-3.9839,-3.9945,-4.0086,-4.0226,-4.0401,-4.037,-4.0163,-3.9671,-3.9308,-3.8662,-3.8108,-3.7738,-3.7338,-3.6815,-3.6599,-3.663,-3.6538,-3.6507,-3.6507,-3.6507,-3.6507,-3.6507,-3.6507,-3.6507,-3.6507,-3.6507,-3.6507,-3.6507,-3.6538,-3.6538,-3.6507,-3.6569,-3.6753,-3.6846,-4.4945,-4.4443,-4.3915,-4.3689,-4.3614,-4.3162,-4.2986,-4.2986,-4.2986,-4.2911,-4.2735,-4.2283,-4.1656,-4.1153,-4.0601,-4.0099,-3.9798,-3.9697,-3.9697,-3.9697,-3.9697,-3.9019,-3.8241,-3.7914,-3.7437,-3.6531,-3.6405,-3.6405,-3.6452,-3.6427,-3.6438,-3.609,-3.55,-3.5307,-3.5003,-3.4442,-3.4189,-3.4397,-3.4397,-3.4397,-3.4397,-3.4345,-3.4125,-3.4112,-3.3904,-3.3598,-3.3111,-3.322,-3.333,-3.2853,-3.3949,-3.4535,-3.4878,-3.5096,-3.5489,-3.5489,-3.5424,-3.5424,-3.5457,-3.5489,-3.5489,-3.5489,-3.5489,-3.5489,-3.5519,-3.5609,-3.5938,-3.6507,-3.7165,-3.7943,-3.9044,-3.917,-3.926,-3.9343,-3.9403,-3.9403,-3.9403,-3.9403,-3.9409,-3.9547,-3.9768,-3.9975,-4.0121,-4.0261,-4.0401,-4.0505,-4.0474,-4.029,-3.9767,-3.9216,-3.8539,-3.7861,-3.74,-3.7123,-3.663,-3.6507,-3.6507,-3.6507,-3.6507,-3.6507,-3.6507,-3.6507,-3.6507,-3.6507,-3.6507,-3.6507,-3.6507,-3.6507,-3.6507,-3.6507,-3.6507,-3.6507,-3.6507,-3.6507,-3.6538,-4.4016,-4.389,-4.3338,-4.3112,-4.3112,-4.3011,-4.2986,-4.2986,-4.2961,-4.2766,-4.2313,-4.1706,-4.1178,-4.0651,-4.0074,-3.9772,-3.9722,-3.9697,-3.9697,-3.9697,-3.9647,-3.9094,-3.8191,-3.7965,-3.7387,-3.6681,-3.6405,-3.6499,-3.6593,-3.6637,-3.6773,-3.6888,-3.6161,-3.5745,-3.5505,-3.4956,-3.4366,-3.4397,-3.4397,-3.4397,-3.4397,-3.4496,-3.4759,-3.5049,-3.5068,-3.5012,-3.5123,-3.4994,-3.5086,-3.5554,-3.5867,-3.6259,-3.6373,-3.5989,-3.5666,-3.5639,-3.5609,-3.5639,-3.5609,-3.5549,-3.5519,-3.5489,-3.5489,-3.5519,-3.5519,-3.5579,-3.5968,-3.6447,-3.7045,-3.7704,-3.8452,-3.8661,-3.8901,-3.92,-3.9403,-3.9403,-3.9403,-3.9409,-3.9445,-3.9553,-3.9833,-4.0046,-4.0187,-4.0296,-4.0436,-4.0505,-4.0474,-4.0166,-3.9674,-3.9031,-3.8354,-3.7646,-3.6999,-3.6784,-3.6507,-3.6507,-3.6507,-3.6507,-3.6507,-3.6507,-3.6507,-3.6507,-3.6507,-3.6507,-3.6507,-3.6507,-3.6507,-3.6507,-3.6507,-3.6507,-3.6507,-3.6507,-3.6507,-3.6507,-3.6507,-4.3639,-4.3363,-4.3087,-4.2986,-4.2986,-4.2986,-4.2986,-4.2936,-4.2685,-4.2464,-4.2037,-4.1304,-4.0777,-4.0425,-3.9923,-3.9697,-3.9697,-3.9697,-3.9697,-3.9697,-3.9647,-3.9094,-3.809,-3.799,-3.7312,-3.6681,-3.6499,-3.6546,-3.6593,-3.6828,-3.7062,-3.7068,-3.6535,-3.6171,-3.5948,-3.5312,-3.4711,-3.4502,-3.4439,-3.4439,-3.4522,-3.4786,-3.5399,-3.5611,-3.6069,-3.6182,-3.6061,-3.6433,-3.6264,-3.6335,-3.6617,-3.6996,-3.7088,-3.6926,-3.6477,-3.6447,-3.6207,-3.5998,-3.6028,-3.5998,-3.5908,-3.5519,-3.5519,-3.5699,-3.5908,-3.6088,-3.6267,-3.6746,-3.6776,-3.7345,-3.8302,-3.8362,-3.8721,-3.923,-3.9403,-3.9403,-3.9403,-3.9403,-3.9481,-3.9589,-3.9839,-4.0046,-4.0117,-4.0261,-4.0436,-4.0505,-4.0505,-4.0136,-3.9644,-3.8939,-3.8262,-3.7492,-3.6876,-3.6661,-3.6507,-3.6507,-3.6507,-3.6507,-3.6507,-3.6507,-3.6507,-3.6507,-3.6507,-3.6507,-3.6507,-3.6507,-3.6507,-3.6507,-3.6507,-3.6507,-3.6507,-3.6507,-3.6507,-3.6507,-3.6507,-4.3388,-4.2986,-4.2986,-4.2986,-4.2986,-4.2986,-4.2911,-4.2791,-4.2414,-4.2087,-4.1706,-4.0953,-4.0581,-4.0537,-4.0234,-3.9929,-3.9749,-3.9697,-3.9697,-3.9672,-3.9521,-3.8944,-3.8241,-3.7764,-3.7335,-3.6672,-3.6687,-3.6734,-3.6734,-3.6968,-3.7201,-3.7232,-3.691,-3.6449,-3.6027,-3.5495,-3.5041,-3.4831,-3.4662,-3.4729,-3.5073,-3.5696,-3.6175,-3.6294,-3.7129,-3.7382,-3.716,-3.7497,-3.7517,-3.7417,-3.7529,-3.7849,-3.7789,-3.7674,-3.7674,-3.7674,-3.7105,-3.6776,-3.6686,-3.6656,-3.6477,-3.6148,-3.5968,-3.6207,-3.6387,-3.6567,-3.6626,-3.7015,-3.6896,-3.6956,-3.7913,-3.8302,-3.8721,-3.923,-3.9403,-3.9373,-3.9409,-3.9445,-3.9517,-3.9661,-3.9874,-3.998,-4.0086,-4.0226,-4.0401,-4.0505,-4.0505,-4.0413,-3.9859,-3.8967,-3.8231,-3.74,-3.6846,-3.6599,-3.6507,-3.6507,-3.6507,-3.6507,-3.6507,-3.6507,-3.6507,-3.6507,-3.6507,-3.6507,-3.6507,-3.6507,-3.6507,-3.6507,-3.6507,-3.6507,-3.6507,-3.6507,-3.6507,-3.6507,-3.6507,-4.3037,-4.2986,-4.2986,-4.2986,-4.2961,-4.2936,-4.266,-4.2313,-4.2217,-4.158,-4.0852,-4.0734,-4.0849,-4.095,-4.0922,-4.0415,-3.9929,-3.9697,-3.9697,-3.9647,-3.9245,-3.8718,-3.8015,-3.7462,-3.718,-3.6763,-3.6922,-3.7015,-3.7155,-3.7387,-3.7551,-3.7586,-3.7215,-3.6679,-3.6227,-3.5877,-3.5394,-3.5534,-3.5521,-3.5856,-3.6503,-3.7309,-3.7644,-3.7985,-3.8495,-3.8875,-3.8597,-3.8847,-3.8847,-3.8877,-3.8973,-3.9104,-3.9044,-3.8571,-3.8691,-3.8601,-3.8123,-3.7315,-3.7315,-3.7315,-3.7195,-3.6985,-3.7015,-3.7195,-3.7195,-3.6926,-3.6746,-3.6537,-3.6537,-3.6896,-3.7674,-3.8093,-3.8691,-3.914,-3.9439,-3.9379,-3.9349,-3.9354,-3.942,-3.9521,-3.9672,-3.9889,-4.0051,-4.0226,-4.0366,-4.0436,-4.0474,-4.0382,-3.9951,-3.8936,-3.8015,-3.7153,-3.6753,-3.6569,-3.6507,-3.6507,-3.6507,-3.6507,-3.6507,-3.6507,-3.6507,-3.6507,-3.6507,-3.6507,-3.6507,-3.6507,-3.6507,-3.6507,-3.6507,-3.6507,-3.6507,-3.6507,-3.6507,-3.6507,-3.6507,-4.2986,-4.2961,-4.269,-4.2564,-4.2459,-4.2183,-4.1932,-4.1764,-4.2023,-4.151,-4.0843,-4.1489,-4.1579,-4.1246,-4.0693,-4.0134,-3.9749,-3.98,-3.9697,-3.9598,-3.9145,-3.8592,-3.8039,-3.7583,-3.7172,-3.693,-3.7155,-3.7756,-3.7848,-3.7802,-3.7762,-3.7684,-3.7567,-3.7246,-3.6762,-3.6538,-3.6362,-3.632,-3.6316,-3.6543,-3.7011,-3.7691,-3.8202,-3.824,-3.901,-3.9301,-3.9403,-3.9403,-3.9403,-3.9403,-3.9403,-3.9373,-3.9379,-3.914,-3.9104,-3.9224,-3.8931,-3.8392,-3.8063,-3.7973,-3.7793,-3.7494,-3.7464,-3.7524,-3.7764,-3.7704,-3.7524,-3.7584,-3.7225,-3.7345,-3.7793,-3.8212,-3.8721,-3.917,-3.9445,-3.9277,-3.9193,-3.9219,-3.9269,-3.9369,-3.9499,-3.9782,-4.0034,-4.0266,-4.037,-4.047,-4.0382,-4.0197,-3.9582,-3.8569,-3.7646,-3.6753,-3.6569,-3.6507,-3.6507,-3.6507,-3.6507,-3.6507,-3.6507,-3.6507,-3.6507,-3.6507,-3.6507,-3.6507,-3.6507,-3.6507,-3.6507,-3.6507,-3.6507,-3.6507,-3.6507,-3.6507,-3.6507,-3.6507,-3.6507,-4.314,-4.3332,-4.278,-4.2656,-4.2693,-4.2257,-4.208,-4.198,-4.2343,-4.2005,-4.1668,-4.2472,-4.255,-4.1815,-4.1246,-4.1145,-4.0567,-4.0465,-4.016,-3.9829,-3.9297,-3.8664,-3.7958,-3.7501,-3.7162,-3.6896,-3.7664,-3.8232,-3.8639,-3.8774,-3.8639,-3.8232,-3.8342,-3.8131,-3.7802,-3.7418,-3.7123,-3.7087,-3.7402,-3.7615,-3.7767,-3.8211,-3.8464,-3.8686,-3.9046,-3.9403,-3.9403,-3.9403,-3.9403,-3.9403,-3.9403,-3.9403,-3.9373,-3.9343,-3.9313,-3.9373,-3.9194,-3.9044,-3.8781,-3.8601,-3.8362,-3.8093,-3.7913,-3.8272,-3.8512,-3.8542,-3.8362,-3.8212,-3.7943,-3.7973,-3.8272,-3.8512,-3.8931,-3.9296,-3.9517,-3.9228,-3.9058,-3.9234,-3.9278,-3.9286,-3.9447,-3.9707,-4.0025,-4.0313,-4.0474,-4.0474,-4.032,-4.0043,-3.9182,-3.8169,-3.743,-3.6599,-3.6507,-3.6507,-3.6507,-3.6507,-3.6507,-3.6507,-3.6507,-3.6507,-3.6507,-3.6507,-3.6507,-3.6507,-3.6507,-3.6507,-3.6507,-3.6507,-3.6507,-3.6507,-3.6507,-3.6507,-3.6507,-3.6507,-3.6507,-4.3439,-4.4262,-4.3809,-4.3782,-4.4103,-4.4229,-4.3829,-4.3195,-4.339,-4.3215,-4.2906,-4.3511,-4.3416,-4.2985,-4.3006,-4.2909,-4.2501,-4.255,-4.1523,-4.0484,-3.9737,-3.8884,-3.8034,-3.7359,-3.7185,-3.7598,-3.8232,-3.8792,-3.9387,-4.013,-4.0216,-4.0303,-3.9519,-3.9397,-3.8986,-3.8308,-3.8069,-3.8188,-3.8626,-3.8907,-3.8943,-3.9119,-3.9192,-3.9228,-3.9337,-3.9403,-3.9403,-3.9403,-3.9403,-3.9403,-3.9403,-3.9403,-3.9403,-3.9403,-3.9403,-3.9403,-3.9403,-3.9284,-3.92,-3.92,-3.9224,-3.9224,-3.9134,-3.902,-3.914,-3.8691,-3.8482,-3.8512,-3.8392,-3.8392,-3.8631,-3.8901,-3.923,-3.9356,-3.9451,-3.9379,-3.9305,-3.9516,-3.953,-3.9321,-3.9333,-3.9504,-3.9634,-3.9856,-4.032,-4.0382,-3.9859,-3.9551,-3.8754,-3.78,-3.7246,-3.6692,-3.6538,-3.6507,-3.6507,-3.6507,-3.6507,-3.6507,-3.6507,-3.6507,-3.6507,-3.6507,-3.6507,-3.6507,-3.6507,-3.6507,-3.6507,-3.6507,-3.6507,-3.6507,-3.6507,-3.6507,-3.6507,-3.6507,-3.6507,-4.4215,-4.4857,-4.4683,-4.433,-4.3886,-4.3534,-4.3286,-4.3242,-4.3746,-4.4377,-4.4573,-4.3843,-4.3511,-4.3654,-4.3273,-4.3225,-4.284,-4.2792,-4.1807,-4.101,-4.033,-3.9396,-3.8376,-3.7976,-3.8187,-3.8459,-3.897,-3.9913,-4.0944,-4.1281,-4.1782,-4.1657,-4.0746,-4.0277,-3.983,-3.9502,-3.9283,-3.927,-3.94,-3.9403,-3.9403,-3.9403,-3.9403,-3.9403,-3.9403,-3.9403,-3.9403,-3.9403,-3.9403,-3.9403,-3.9403,-3.9403,-3.9403,-3.9403,-3.9403,-3.9403,-3.9403,-3.9403,-3.9403,-3.9403,-3.9403,-3.9403,-3.9373,-3.9403,-3.9403,-3.914,-3.905,-3.8985,-3.899,-3.8931,-3.908,-3.9224,-3.9373,-3.9409,-3.9421,-3.9373,-3.9461,-3.9672,-3.9603,-3.9367,-3.9134,-3.9118,-3.9213,-3.9305,-3.9828,-4.0228,-3.9613,-3.8967,-3.82,-3.7492,-3.6969,-3.6692,-3.6538,-3.6507,-3.6507,-3.6507,-3.6507,-3.6507,-3.6507,-3.6507,-3.6507,-3.6507,-3.6507,-3.6507,-3.6507,-3.6507,-3.6507,-3.6507,-3.6507,-3.6507,-3.6507,-3.6507,-3.6507,-3.6507,-3.6507,-4.4775,-4.5345,-4.5392,-4.4987,-4.4283,-4.3895,-4.3748,-4.3843,-4.4509,-4.5155,-4.5776,-4.434,-4.4078,-4.4406,-4.4172,-4.3843,-4.3882,-4.3593,-4.254,-4.1824,-4.1223,-4.0221,-3.9253,-3.8898,-3.9254,-3.9431,-3.9956,-4.0901,-4.1769,-4.2211,-4.2618,-4.2618,-4.214,-4.1587,-4.1299,-4.0768,-4.0456,-4.0248,-3.9798,-3.9403,-3.9403,-3.9403,-3.9403,-3.9403,-3.9403,-3.9403,-3.9403,-3.9403,-3.9403,-3.9403,-3.9403,-3.9403,-3.9403,-3.9403,-3.9403,-3.9403,-3.9403,-3.9403,-3.9403,-3.9403,-3.9403,-3.9403,-3.9403,-3.9403,-3.9403,-3.9403,-3.9284,-3.9313,-3.9343,-3.9403,-3.9403,-3.9403,-3.9403,-3.9409,-3.9445,-3.9463,-3.9491,-3.9611,-3.9516,-3.9382,-3.933,-3.9459,-3.9336,-3.9459,-3.9428,-3.9582,-3.8782,-3.8323,-3.7861,-3.7246,-3.6722,-3.6538,-3.6507,-3.6507,-3.6507,-3.6507,-3.6507,-3.6507,-3.6507,-3.6507,-3.6507,-3.6507,-3.6507,-3.6507,-3.6507,-3.6507,-3.6507,-3.6507,-3.6507,-3.6507,-3.6507,-3.6507,-3.6507,-3.6507,-3.6507,-4.4936,-4.585,-4.5879,-4.5834,-4.5681,-4.5805,-4.5685,-4.5504,-4.5685,-4.5776,-4.5895,-4.5549,-4.5595,-4.5685,-4.5384,-4.5281,-4.5154,-4.4931,-4.4015,-4.2709,-4.2288,-4.1336,-4.0482,-4.0102,-4.0361,-4.0774,-4.1155,-4.1603,-4.2129,-4.2739,-4.317,-4.325,-4.297,-4.286,-4.3021,-4.1966,-4.1085,-4.0427,-3.9798,-3.9463,-3.9403,-3.9403,-3.9403,-3.9403,-3.9403,-3.9403,-3.9403,-3.9403,-3.9403,-3.9403,-3.9403,-3.9403,-3.9403,-3.9403,-3.9403,-3.9403,-3.9403,-3.9403,-3.9403,-3.9403,-3.9403,-3.9403,-3.9403,-3.9403,-3.9403,-3.9403,-3.9403,-3.9403,-3.9403,-3.9403,-3.9403,-3.9403,-3.9403,-3.9409,-3.9445,-3.9559,-3.9622,-3.9773,-3.9738,-3.963,-4.0009,-4.0228,-3.9951,-3.9705,-3.9336,-3.8939,-3.8046,-3.7584,-3.7492,-3.7215,-3.6784,-3.6507,-3.6507,-3.6507,-3.6507,-3.6507,-3.6507,-3.6507,-3.6507,-3.6507,-3.6507,-3.6507,-3.6507,-3.6507,-3.6507,-3.6507,-3.6507,-3.6507,-3.6507,-3.6507,-3.6507,-3.6507,-3.6507,-3.6507,-3.6507,-4.5595,-4.5895,-4.5895,-4.5895,-4.5895,-4.5895,-4.5895,-4.5895,-4.5895,-4.5895,-4.5895,-4.5895,-4.5895,-4.5895,-4.5824,-4.5694,-4.5419,-4.5303,-4.4283,-4.2711,-4.2921,-4.1895,-4.1043,-4.1042,-4.1407,-4.1603,-4.1964,-4.2415,-4.293,-4.321,-4.325,-4.329,-4.329,-4.329,-4.2961,-4.2132,-4.1242,-4.0876,-4.0098,-3.9403,-3.9403,-3.9403,-3.9403,-3.9403,-3.9403,-3.9403,-3.9403,-3.9403,-3.9403,-3.9403,-3.9403,-3.9403,-3.9403,-3.9403,-3.9403,-3.9403,-3.9403,-3.9403,-3.9403,-3.9403,-3.9403,-3.9403,-3.9403,-3.9403,-3.9403,-3.9403,-3.9403,-3.9403,-3.9403,-3.9403,-3.9403,-3.9403,-3.9403,-3.9409,-3.9517,-3.9696,-3.9849,-4.0025,-4.0113,-4.0002,-4.0197,-3.9767,-3.9431,-3.9674,-3.9459,-3.9367,-3.8721,-3.8015,-3.7769,-3.7492,-3.7153,-3.6692,-3.6507,-3.6507,-3.6507,-3.6692,-3.6692,-3.6661,-3.6599,-3.6507,-3.6507,-3.6507,-3.6507,-3.6507,-3.6507,-3.6507,-3.6507,-3.6507,-3.6507,-3.6507,-3.6507,-3.6507,-3.6507,-3.6507,-3.6507,-4.5985,-4.594,-4.5956,-4.5956,-4.594,-4.5895,-4.5895,-4.5895,-4.5895,-4.5895,-4.5837,-4.5663,-4.5518,-4.5459,-4.533,-4.5215,-4.4865,-4.4688,-4.4496,-4.2934,-4.3366,-4.2655,-4.2063,-4.1947,-4.2345,-4.2456,-4.2496,-4.278,-4.321,-4.329,-4.329,-4.329,-4.329,-4.329,-4.2961,-4.2342,-4.1632,-4.1175,-4.0367,-3.9679,-3.9493,-3.9403,-3.9403,-3.9403,-3.9403,-3.9403,-3.9403,-3.9403,-3.9403,-3.9403,-3.9403,-3.9403,-3.9403,-3.9403,-3.9403,-3.9403,-3.9403,-3.9403,-3.9403,-3.9403,-3.9403,-3.9403,-3.9403,-3.9403,-3.9403,-3.9403,-3.9403,-3.9403,-3.9403,-3.9403,-3.9403,-3.9403,-3.9409,-3.9445,-3.9517,-3.9696,-3.991,-4.0086,-4.0261,-4.0186,-4.0166,-3.9582,-3.9247,-3.94,-3.9582,-3.9582,-3.9521,-3.8846,-3.8138,-3.7923,-3.7707,-3.7307,-3.7123,-3.7277,-3.7215,-3.7092,-3.703,-3.6876,-3.6722,-3.6599,-3.6507,-3.6507,-3.6507,-3.6507,-3.6507,-3.6507,-3.6507,-3.6507,-3.6507,-3.6507,-3.6507,-3.6507,-3.6507,-3.6507,-3.6507,-4.6061,-4.5927,-4.6077,-4.5974,-4.5824,-4.5707,-4.5795,-4.5808,-4.5779,-4.575,-4.5766,-4.5097,-4.4923,-4.4807,-4.4342,-4.4253,-4.432,-4.4019,-4.382,-4.366,-4.3518,-4.3099,-4.308,-4.309,-4.305,-4.317,-4.317,-4.305,-4.329,-4.329,-4.329,-4.329,-4.329,-4.329,-4.305,-4.2731,-4.2043,-4.1354,-4.0636,-3.9948,-3.9559,-3.9403,-3.9403,-3.9403,-3.9403,-3.9403,-3.9403,-3.9403,-3.9403,-3.9403,-3.9403,-3.9403,-3.9403,-3.9403,-3.9403,-3.9403,-3.9403,-3.9403,-3.9403,-3.9403,-3.9403,-3.9403,-3.9403,-3.9403,-3.9403,-3.9403,-3.9403,-3.9403,-3.9403,-3.9403,-3.9403,-3.9403,-3.9403,-3.9409,-3.9445,-3.9625,-3.9874,-4.0051,-4.0226,-4.0305,-4.0409,-4.0166,-4.0105,-4.0136,-3.989,-4.0013,-3.9982,-3.9674,-3.9062,-3.8662,-3.8446,-3.82,-3.8108,-3.8292,-3.8138,-3.7738,-3.7615,-3.7523,-3.6999,-3.6784,-3.6661,-3.6569,-3.6507,-3.6507,-3.6507,-3.6507,-3.6507,-3.6507,-3.6507,-3.6507,-3.6507,-3.6507,-3.6507,-3.6507,-3.6507,-4.5727,-4.5654,-4.5242,-4.4907,-4.4763,-4.4792,-4.4938,-4.5126,-4.4734,-4.4531,-4.4501,-4.4501,-4.4471,-4.4442,-4.4438,-4.4255,-4.4098,-4.3927,-4.3694,-4.3528,-4.3369,-4.3349,-4.329,-4.329,-4.329,-4.329,-4.329,-4.329,-4.329,-4.329,-4.329,-4.329,-4.329,-4.329,-4.323,-4.311,-4.2342,-4.1534,-4.0786,-4.0127,-3.9619,-3.9403,-3.9403,-3.9403,-3.9403,-3.9403,-3.9403,-3.9403,-3.9403,-3.9403,-3.9403,-3.9403,-3.9403,-3.9403,-3.9403,-3.9403,-3.9403,-3.9403,-3.9403,-3.9403,-3.9403,-3.9403,-3.9403,-3.9403,-3.9403,-3.9403,-3.9403,-3.9403,-3.9403,-3.9403,-3.9409,-3.9409,-3.9445,-3.9445,-3.9517,-3.9732,-3.9945,-4.0086,-4.0261,-4.0366,-4.047,-4.0505,-4.0505,-4.0443,-4.0259,-4.0413,-4.0382,-4.0136,-3.989,-3.9428,-3.9152,-3.897,-3.8846,-3.897,-3.8692,-3.8292,-3.8262,-3.8138,-3.7615,-3.7215,-3.7153,-3.703,-3.6661,-3.6507,-3.6507,-3.6507,-3.6507,-3.6507,-3.6507,-3.6507,-3.6507,-3.6507,-3.6507,-3.6507,-3.6507,-4.5266,-4.5165,-4.4896,-4.4676,-4.452,-4.4229,-4.4219,-4.4397,-4.4266,-4.4237,-4.4222,-4.4144,-4.407,-4.4053,-4.3843,-4.3685,-4.3564,-4.3504,-4.3418,-4.3429,-4.329,-4.329,-4.329,-4.329,-4.329,-4.329,-4.329,-4.329,-4.329,-4.329,-4.329,-4.329,-4.329,-4.329,-4.329,-4.317,-4.2581,-4.1713,-4.0935,-4.0277,-3.9768,-3.9403,-3.9403,-3.9403,-3.9403,-3.9403,-3.9403,-3.9403,-3.9403,-3.9403,-3.9403,-3.9403,-3.9403,-3.9403,-3.9403,-3.9403,-3.9403,-3.9403,-3.9403,-3.9403,-3.9403,-3.9403,-3.9403,-3.9403,-3.9403,-3.9403,-3.9403,-3.9403,-3.9403,-3.9373,-3.9409,-3.9445,-3.9481,-3.9517,-3.9696,-3.9839,-4.0016,-4.0156,-4.0296,-4.0366,-4.0436,-4.0505,-4.0505,-4.0505,-4.0505,-4.0505,-4.0505,-4.0413,-4.0259,-4.0074,-3.9859,-3.9674,-3.9551,-3.9524,-3.9182,-3.8967,-3.8939,-3.8754,-3.8292,-3.7954,-3.78,-3.74,-3.6969,-3.6692,-3.6507,-3.6507,-3.6507,-3.6507,-3.6507,-3.6507,-3.6569,-3.6661,-3.6661,-3.663,-3.6599,-4.4798,-4.463,-4.4739,-4.4733,-4.4733,-4.3962,-4.3673,-4.3732,-4.4175,-4.4428,-4.428,-4.3838,-4.3632,-4.3584,-4.3312,-4.3127,-4.3199,-4.3239,-4.3279,-4.329,-4.329,-4.329,-4.329,-4.329,-4.329,-4.329,-4.329,-4.329,-4.329,-4.329,-4.329,-4.329,-4.329,-4.329,-4.329,-4.315,-4.2491,-4.1564,-4.1025,-4.0516,-3.9672,-3.9403,-3.9403,-3.9403,-3.9403,-3.9403,-3.9403,-3.9403,-3.9403,-3.9403,-3.9403,-3.9403,-3.9403,-3.9403,-3.9403,-3.9403,-3.9403,-3.9403,-3.9403,-3.9403,-3.9403,-3.9403,-3.9403,-3.9403,-3.9403,-3.9403,-3.9403,-3.9403,-3.9403,-3.9445,-3.9481,-3.9589,-3.9625,-3.9696,-3.9839,-3.9945,-4.0081,-4.0222,-4.0331,-4.0401,-4.047,-4.0505,-4.0505,-4.0505,-4.0505,-4.0505,-4.0505,-4.0505,-4.0474,-4.0413,-4.032,-4.0228,-4.0105,-3.9951,-3.9951,-3.9767,-3.9647,-3.937,-3.8939,-3.8692,-3.8539,-3.7984,-3.7277,-3.6999,-3.6722,-3.6538,-3.6507,-3.6507,-3.6507,-3.6507,-3.6599,-3.6815,-3.6846,-3.6753,-3.6876,-4.4434,-4.4333,-4.3704,-4.3567,-4.3617,-4.3307,-4.3278,-4.3398,-4.3518,-4.3504,-4.3212,-4.3175,-4.3197,-4.3197,-4.3169,-4.317,-4.317,-4.321,-4.325,-4.329,-4.329,-4.329,-4.329,-4.329,-4.329,-4.329,-4.329,-4.329,-4.329,-4.329,-4.329,-4.329,-4.329,-4.329,-4.326,-4.3,-4.2261,-4.1452,-4.0876,-4.0367,-3.9553,-3.9403,-3.9403,-3.9403,-3.9403,-3.9403,-3.9403,-3.9403,-3.9403,-3.9403,-3.9403,-3.9403,-3.9403,-3.9403,-3.9403,-3.9403,-3.9403,-3.9403,-3.9403,-3.9403,-3.9403,-3.9373,-3.9409,-3.9373,-3.9403,-3.9403,-3.9439,-3.9439,-3.9409,-3.9517,-3.9589,-3.9696,-3.9768,-3.9874,-3.998,-4.0081,-4.0117,-4.0257,-4.0366,-4.0436,-4.0505,-4.0505,-4.0505,-4.0505,-4.0505,-4.0505,-4.0505,-4.0505,-4.0505,-4.0474,-4.0443,-4.0382,-4.0413,-4.0351,-4.0413,-4.0351,-4.0105,-3.992,-3.9616,-3.94,-3.9247,-3.8539,-3.7831,-3.7338,-3.6999,-3.6815,-3.6661,-3.6507,-3.6507,-3.6507,-3.6569,-3.6722,-3.6907,-3.6907,-3.7123,-4.3828,-4.3798,-4.3359,-4.321,-4.325,-4.317,-4.321,-4.329,-4.329,-4.317,-4.301,-4.309,-4.313,-4.313,-4.325,-4.329,-4.329,-4.329,-4.329,-4.329,-4.329,-4.329,-4.329,-4.329,-4.329,-4.329,-4.329,-4.329,-4.329,-4.329,-4.329,-4.329,-4.329,-4.329,-4.32,-4.2701,-4.2051,-4.1422,-4.0726,-4.0068,-3.9433,-3.9403,-3.9403,-3.9403,-3.9403,-3.9403,-3.9403,-3.9403,-3.9403,-3.9403,-3.9403,-3.9403,-3.9403,-3.9403,-3.9403,-3.9403,-3.9403,-3.9403,-3.9403,-3.9403,-3.9403,-3.9373,-3.9517,-3.9553,-3.9589,-3.9589,-3.9625,-3.9625,-3.9589,-3.9625,-3.9803,-3.991,-4.0016,-4.0152,-4.0226,-4.0296,-4.0331,-4.0366,-4.0436,-4.047,-4.0505,-4.0505,-4.0505,-4.0505,-4.0505,-4.0505,-4.0505,-4.0505,-4.0505,-4.0505,-4.0505,-4.0505,-4.0505,-4.0505,-4.0474,-4.0474,-4.0413,-4.0259,-4.0105,-3.9862,-3.9493,-3.8939,-3.8354,-3.7954,-3.7523,-3.7153,-3.6969,-3.6784,-3.6538,-3.6507,-3.6538,-3.663,-3.6815,-3.6999,-3.7153,-4.3319,-4.329,-4.329,-4.329,-4.329,-4.329,-4.329,-4.329,-4.329,-4.329,-4.325,-4.325,-4.329,-4.329,-4.329,-4.329,-4.329,-4.329,-4.329,-4.329,-4.329,-4.329,-4.329,-4.329,-4.329,-4.329,-4.329,-4.329,-4.329,-4.329,-4.329,-4.329,-4.329,-4.329,-4.312,-4.2581,-4.1901,-4.1265,-4.0636,-3.9978,-3.9582,-3.9403,-3.9403,-3.9403,-3.9403,-3.9403,-3.9403,-3.9403,-3.9403,-3.9403,-3.9403,-3.9403,-3.9403,-3.9403,-3.9403,-3.9403,-3.9403,-3.9403,-3.9403,-3.9403,-3.9403,-3.9445,-3.9589,-3.9666,-3.9732,-3.9803,-3.9803,-3.9839,-3.9803,-3.9839,-4.0016,-4.0121,-4.0257,-4.0327,-4.0401,-4.047,-4.047,-4.047,-4.0505,-4.0505,-4.0505,-4.0505,-4.0505,-4.0505,-4.0505,-4.0505,-4.0505,-4.0505,-4.0505,-4.0505,-4.0505,-4.0505,-4.0505,-4.0505,-4.0505,-4.0505,-4.0505,-4.0443,-4.029,-4.0043,-3.977,-3.9308,-3.8939,-3.8662,-3.8231,-3.7769,-3.74,-3.7184,-3.6938,-3.6722,-3.6538,-3.6599,-3.6815,-3.6999,-3.7123,-4.329,-4.329,-4.329,-4.329,-4.329,-4.329,-4.329,-4.329,-4.329,-4.329,-4.329,-4.329,-4.329,-4.329,-4.329,-4.329,-4.329,-4.329,-4.329,-4.329,-4.329,-4.329,-4.329,-4.329,-4.329,-4.329,-4.329,-4.329,-4.329,-4.329,-4.329,-4.329,-4.329,-4.323,-4.309,-4.2402,-4.1534,-4.0995,-4.0307,-3.9553,-3.9523,-3.9403,-3.9403,-3.9403,-3.9403,-3.9403,-3.9403,-3.9403,-3.9403,-3.9403,-3.9403,-3.9403,-3.9403,-3.9403,-3.9403,-3.9403,-3.9403,-3.9403,-3.9403,-3.9403,-3.9403,-3.9409,-3.9553,-3.9696,-3.9768,-3.991,-3.998,-4.0121,-4.0086,-4.0051,-4.0191,-4.0226,-4.0362,-4.0401,-4.0505,-4.0505,-4.0505,-4.0505,-4.0505,-4.0505,-4.0505,-4.0505,-4.0505,-4.0505,-4.0505,-4.0505,-4.0505,-4.0505,-4.0505,-4.0505,-4.0505,-4.0505,-4.0505,-4.0505,-4.0505,-4.0505,-4.0505,-4.0505,-4.0474,-4.029,-4.0043,-3.9736,-3.9431,-3.9277,-3.8877,-3.8385,-3.8046,-3.7769,-3.7492,-3.7277,-3.6722,-3.6599,-3.6815,-3.6999,-3.7153]}]]